GFSSW_925_thetae_000.txt.gz
Theta_e
314 313 314 314 314 314 314 313 311 310 310 310 311 311 312 312 313 315 320 319 317 317 316 317 319 319 319 320 318 318 318 324 322 321 319 318 317 318 318 322 322 325 326 331 331
314 315 314 315 314 314 313 311 310 310 310 310 311 311 312 314 318 322 319 316 316 315 317 319 321 320 320 319 319 318 320 319 318 318 317 316 317 316 317 320 320 322 328 333 332
316 315 316 316 315 315 313 312 310 310 310 310 311 312 313 316 324 321 316 317 316 315 318 321 321 320 319 319 318 318 318 317 316 316 317 316 316 316 317 317 318 320 322 332 332
314 314 315 315 315 315 313 311 310 310 310 311 311 313 315 319 323 318 316 317 318 317 322 321 320 319 319 318 319 318 317 317 316 316 316 315 316 315 316 318 318 320 322 331 330
312 312 312 313 314 313 312 311 310 310 311 311 313 314 318 324 320 318 318 318 318 321 321 321 321 321 319 319 318 318 317 317 316 316 317 317 317 317 317 318 318 320 325 329 330
313 313 313 313 313 312 311 311 310 311 311 312 314 317 322 323 318 318 318 319 319 320 319 320 320 320 318 318 318 318 317 317 317 318 318 317 318 319 319 318 317 320 324 327 330
314 314 313 313 312 312 311 310 311 311 312 313 315 317 324 322 317 317 318 318 319 320 321 320 320 319 319 319 319 319 318 319 319 320 319 318 320 318 319 319 318 318 320 323 327
313 313 312 311 311 311 310 311 311 312 313 316 317 320 323 318 317 317 317 318 318 320 320 319 319 321 322 320 318 318 320 320 320 321 321 320 321 320 320 319 319 319 319 320 325
314 312 311 310 310 310 311 312 313 314 317 319 318 326 323 316 317 317 317 318 318 320 319 319 320 319 319 318 319 320 320 321 322 321 322 321 322 321 321 321 321 321 321 320 321
316 315 314 313 313 313 314 314 316 317 317 318 321 325 318 318 317 316 317 318 320 320 320 320 321 320 320 321 321 320 320 319 318 321 318 319 320 321 321 321 322 321 321 322 321
316 316 316 315 315 314 315 316 322 322 322 321 318 319 316 315 316 318 317 319 321 321 322 320 321 323 321 320 319 319 319 319 321 321 319 320 321 321 322 322 322 322 322 323 327
316 316 316 316 316 316 319 327 325 322 319 318 319 318 318 319 318 318 318 320 320 321 320 318 321 320 320 319 319 319 319 320 321 320 319 322 321 321 321 322 322 322 324 326 326
316 319 320 318 317 318 325 327 326 326 320 319 319 318 319 320 320 319 320 319 319 320 318 323 320 319 319 321 321 321 321 324 322 322 321 321 322 321 321 321 321 322 322 323 322
315 317 320 320 320 324 326 325 327 325 321 316 319 319 319 320 319 319 319 320 319 319 320 321 320 321 321 323 322 323 322 321 321 321 322 321 322 322 321 321 321 321 322 321 320
314 315 317 319 323 323 326 327 328 329 335 319 319 319 318 321 320 320 320 320 319 320 321 322 322 323 323 322 321 324 322 321 322 322 322 322 324 325 322 321 321 321 321 321 321
314 317 318 319 329 326 326 326 328 342 332 319 319 320 320 320 321 321 320 321 323 321 322 321 320 322 322 321 321 322 324 324 324 325 333 323 325 327 323 322 321 321 321 321 320
315 319 321 327 328 323 321 328 334 334 320 320 320 321 321 321 322 322 322 323 324 324 324 323 322 322 321 324 324 322 325 332 335 338 334 326 323 327 323 322 321 321 321 321 321
315 319 325 329 328 322 329 328 332 321 320 319 320 321 322 322 322 323 323 323 322 325 323 324 327 322 321 322 322 324 323 334 332 335 329 322 320 323 321 320 319 319 319 319 320
316 324 325 324 321 327 329 348 332 320 321 320 320 321 322 322 323 323 323 321 320 322 325 325 325 321 320 320 320 324 324 320 326 328 329 320 324 322 320 319 319 318 318 319 319
321 321 323 319 318 330 335 334 324 321 319 320 321 322 322 321 322 323 323 321 321 320 319 320 326 319 319 321 322 322 320 325 329 331 326 321 321 325 322 320 318 318 318 318 319
325 321 328 318 319 325 338 329 321 320 322 320 322 321 323 322 323 324 323 321 321 321 320 320 323 321 321 322 323 323 324 321 319 324 326 326 320 319 320 318 318 318 318 318 318
325 324 327 318 322 325 331 324 317 321 322 324 323 323 324 323 324 324 324 324 320 320 322 318 321 330 320 319 320 320 321 320 329 324 330 329 322 319 319 320 318 318 318 318 318
324 328 326 326 332 344 325 323 322 321 321 322 324 324 324 325 325 324 325 322 321 322 323 320 326 329 323 324 321 320 320 318 322 322 322 329 324 320 320 319 318 317 318 317 316
327 331 322 323 329 327 326 324 324 323 323 323 324 323 324 325 324 325 324 322 321 320 316 319 320 322 325 319 317 318 317 317 317 327 324 324 320 319 319 318 317 317 317 316 315
328 326 321 336 332 325 324 323 324 323 322 322 322 323 324 325 325 324 324 321 320 316 320 321 324 321 319 317 316 316 316 316 317 318 320 320 318 318 318 317 317 316 316 315 314
327 326 326 327 326 325 322 324 323 322 323 322 323 323 323 326 322 323 321 319 321 320 320 320 328 322 322 317 316 317 316 316 316 316 317 317 318 317 317 317 316 315 315 315 313
323 325 326 322 326 328 328 324 323 324 323 321 322 324 326 323 322 321 321 320 319 321 324 322 325 323 326 320 320 325 322 318 317 316 317 320 318 318 317 316 315 315 314 312 309

GFSSW_925_thetae_006.txt.gz
Theta_e
314 314 313 315 314 313 312 312 312 312 312 311 311 311 310 310 312 316 315 311 314 314 315 316 316 317 317 316 315 313 312 313 315 318 319 315 315 314 316 322 325 324 328 326 328
315 315 316 315 315 314 313 313 312 312 312 311 310 310 310 311 315 318 312 314 316 318 315 315 315 315 315 315 315 313 312 313 313 316 314 313 312 313 317 327 328 328 327 324 324
315 315 315 315 315 315 313 313 312 312 311 311 310 310 311 314 322 321 316 316 320 316 316 315 315 317 316 315 315 312 312 311 311 313 311 311 312 313 314 323 330 330 326 322 321
314 312 312 313 314 314 313 313 312 312 311 310 309 310 312 317 322 318 319 318 320 316 315 316 317 318 317 317 313 314 311 312 313 311 311 310 310 312 314 314 327 328 325 324 322
312 312 312 312 312 313 312 312 312 311 311 310 310 311 316 323 319 318 316 316 316 315 317 318 320 318 316 314 313 311 311 311 310 313 312 310 311 311 314 312 327 327 327 326 324
312 312 312 312 312 312 312 312 312 311 310 309 310 313 315 320 317 318 317 316 316 316 319 319 319 317 316 314 313 312 310 311 312 314 315 313 314 315 313 311 327 328 327 326 326
312 313 313 313 312 312 311 312 311 310 309 310 312 315 320 322 318 317 316 317 317 318 318 317 320 317 316 315 312 311 311 312 312 315 315 314 316 315 314 312 327 329 328 327 326
313 312 312 313 312 311 310 311 310 310 310 312 315 316 320 314 316 316 316 317 317 318 318 318 318 317 315 314 314 314 312 313 314 314 316 313 313 314 311 310 313 321 326 325 324
313 313 312 311 311 311 311 310 310 311 313 315 316 320 317 318 316 316 316 316 318 319 319 318 318 315 313 311 311 312 313 315 316 314 316 315 317 313 311 311 310 310 313 317 319
314 314 311 310 310 310 310 311 314 314 317 316 317 321 320 322 316 316 316 317 318 317 317 316 313 314 313 312 313 314 316 314 315 315 317 314 316 315 313 316 319 320 320 322 320
315 314 312 310 310 310 312 315 315 315 319 314 318 320 318 319 316 316 317 317 318 317 318 317 316 315 316 316 316 316 316 315 316 316 316 315 316 315 318 322 321 321 323 322 318
315 315 314 313 312 313 315 323 323 322 318 319 320 318 318 315 316 315 317 318 318 318 317 315 317 317 317 319 319 319 319 319 317 317 315 315 315 317 320 319 320 321 322 320 318
315 315 315 314 314 314 314 317 322 323 319 317 317 317 317 318 316 316 318 317 318 317 317 317 317 317 319 318 320 320 319 319 319 317 314 317 317 319 317 316 316 315 318 318 318
315 317 315 316 315 321 318 324 326 327 312 315 317 316 318 318 317 317 317 318 318 317 317 317 318 320 319 319 319 323 321 320 319 317 313 315 318 318 318 318 318 319 318 318 317
314 320 319 316 319 324 325 325 326 325 314 315 318 317 317 318 318 318 319 320 319 317 318 320 320 320 320 320 319 322 320 320 320 318 318 318 318 318 318 318 317 316 317 316 315
314 315 319 318 323 327 324 321 322 321 319 318 317 318 316 318 318 317 318 318 319 318 317 318 318 319 319 319 320 319 321 321 320 319 320 321 322 322 320 319 319 316 315 315 314
314 317 317 325 328 326 320 317 320 318 321 317 318 319 318 319 320 320 318 318 319 320 320 320 320 319 319 321 319 318 322 322 323 320 321 323 324 323 321 319 319 318 315 314 313
316 318 326 329 326 320 324 319 325 322 319 317 318 319 320 320 319 320 319 318 317 320 320 321 322 318 317 319 320 321 320 320 327 320 321 319 323 319 318 319 318 317 315 314 313
316 322 328 319 320 318 320 320 325 323 318 319 319 320 321 321 320 318 317 317 318 317 321 322 321 319 317 317 320 322 316 317 318 315 317 319 319 317 317 316 316 316 317 314 311
318 325 324 321 316 320 320 324 326 320 320 318 319 320 320 320 321 320 320 319 320 316 316 319 321 318 317 319 319 315 316 321 315 319 319 318 322 321 319 317 314 313 312 312 311
325 314 323 322 315 315 320 324 324 319 322 319 320 319 320 319 320 321 321 319 319 319 315 320 318 318 320 319 320 319 320 318 316 314 316 316 317 316 319 316 315 313 312 311 310
321 318 327 325 309 316 322 326 319 319 320 321 322 323 320 322 325 323 323 322 319 320 317 317 314 313 319 318 318 318 319 317 313 321 312 311 315 315 314 314 315 314 312 310 309
319 322 328 326 308 307 323 323 320 320 320 321 322 322 322 322 324 324 322 319 316 317 320 317 314 315 320 320 317 319 318 320 314 309 314 311 311 315 315 313 313 311 311 310 308
320 317 316 317 315 321 324 322 322 320 321 321 321 321 322 323 322 323 323 321 316 315 314 317 318 315 318 318 314 315 315 319 316 312 314 312 314 317 315 314 313 311 309 307 306
321 316 313 311 313 323 324 322 323 322 321 320 321 322 321 323 324 323 322 320 318 314 317 316 317 316 315 315 315 315 315 314 315 315 315 314 316 318 314 313 312 311 309 308 306
323 320 316 311 316 321 321 322 322 322 321 322 320 322 320 319 320 322 320 319 319 318 320 315 314 313 316 317 317 315 314 314 313 314 314 317 317 313 311 311 310 309 307 307 306
321 322 317 315 314 318 317 321 322 321 320 320 320 319 318 321 317 316 317 318 318 319 315 312 307 308 313 312 312 310 314 317 316 315 315 313 315 312 312 311 308 306 306 305 305

GFSSW_925_thetae_012.txt.gz
Theta_e
315 316 315 315 314 314 314 313 313 313 312 312 312 310 312 311 310 313 313 312 311 312 312 313 311 313 315 314 312 308 309 311 320 325 325 324 318 317 323 329 326 324 331 336 340
316 315 315 315 314 314 314 313 312 312 312 312 311 311 311 311 312 314 312 311 311 312 311 313 313 314 313 315 312 310 310 312 312 319 325 325 318 321 329 329 327 326 334 338 338
315 314 315 314 313 313 313 312 312 312 312 311 310 310 311 312 315 315 316 311 311 313 313 314 313 314 316 313 313 310 312 310 311 319 320 314 320 316 328 330 326 332 334 334 336
314 313 311 314 313 313 313 312 312 312 311 310 311 311 312 314 316 317 316 313 312 314 315 314 314 316 316 316 314 313 310 310 309 314 312 314 311 323 320 324 325 331 332 331 332
314 313 312 312 313 313 312 312 312 311 310 310 310 310 313 318 316 316 317 318 315 315 315 313 313 314 316 315 312 313 311 310 309 309 309 308 311 320 313 321 322 328 330 329 330
312 311 311 311 311 312 313 312 312 310 309 310 310 311 312 316 315 316 315 317 317 315 314 313 314 314 316 313 313 311 309 309 309 307 307 309 311 312 312 322 321 325 327 326 326
312 312 312 311 312 312 312 313 311 310 310 310 310 312 316 315 316 315 316 315 316 317 314 315 315 315 314 314 310 308 309 309 309 312 311 310 313 312 316 323 322 322 323 320 319
312 312 312 311 312 312 312 312 311 310 310 309 311 313 317 314 314 316 317 314 314 315 315 316 316 315 314 311 310 310 308 310 311 313 311 309 308 309 320 324 323 322 322 320 318
312 312 313 311 312 312 312 310 310 310 310 312 312 315 315 313 316 317 315 314 314 314 315 315 316 312 310 310 309 309 311 313 314 312 313 311 313 311 310 322 319 318 317 319 318
312 312 313 311 311 312 310 310 312 311 312 312 314 316 314 315 317 315 315 315 316 315 315 315 311 312 310 308 311 311 312 312 313 313 311 311 318 317 316 317 318 316 316 317 316
312 313 313 311 311 311 309 310 310 313 314 310 313 314 317 317 315 314 315 316 315 314 316 313 313 313 314 312 310 312 313 313 312 312 316 318 318 317 318 317 316 316 316 315 315
312 313 313 310 311 311 312 314 317 319 322 316 316 316 316 317 314 313 316 316 315 316 315 313 315 315 316 316 316 315 314 315 314 314 317 318 316 315 315 318 317 316 316 315 314
312 314 313 312 311 312 313 314 320 320 320 316 317 317 316 315 314 314 316 316 315 316 314 314 316 316 317 316 318 319 316 317 315 318 316 318 319 316 317 318 317 316 315 314 314
311 313 313 313 312 313 313 315 326 320 311 314 314 314 315 314 315 315 315 315 315 314 315 318 317 317 316 317 317 320 318 316 316 317 321 315 323 319 319 320 319 318 315 315 313
312 314 314 313 317 320 323 325 326 316 312 312 315 316 314 317 313 315 316 315 316 316 316 319 318 317 317 318 318 320 317 316 315 314 314 317 319 316 319 321 320 317 316 315 313
312 314 314 313 316 322 326 324 317 317 315 315 315 315 316 316 316 316 316 314 314 316 315 317 316 316 317 317 317 317 318 316 316 315 317 317 317 317 319 319 319 317 316 315 313
312 317 314 315 324 327 324 311 314 318 317 316 316 315 316 317 317 316 315 315 317 318 319 317 317 315 316 320 317 317 317 319 320 317 319 318 319 317 316 316 318 317 315 314 312
312 316 316 323 328 325 316 311 319 319 317 315 316 315 318 318 317 316 316 316 315 316 317 319 318 316 315 317 318 318 318 318 322 319 320 317 322 319 314 313 315 315 313 311 312
312 314 320 323 325 322 310 310 316 317 316 316 317 318 319 318 317 316 316 315 316 315 320 319 319 316 315 316 318 318 315 314 316 312 316 317 317 317 316 315 314 314 312 312 310
316 318 323 324 321 316 312 316 323 321 317 317 318 317 319 319 319 318 319 317 318 316 315 318 317 316 315 317 315 316 314 316 312 316 317 316 318 318 318 317 315 314 312 309 307
319 312 318 326 314 309 311 317 323 321 318 317 317 318 317 317 318 319 319 319 319 319 316 316 314 315 316 317 317 317 316 313 313 311 312 313 316 312 315 317 313 311 310 309 307
309 311 325 317 310 309 314 321 321 318 318 320 318 318 317 320 321 321 320 319 315 318 317 315 313 313 317 315 316 316 317 311 309 314 308 307 311 310 311 311 311 310 309 306 305
313 320 322 311 308 305 312 321 320 317 319 320 320 319 319 320 321 321 320 317 312 316 316 313 313 316 317 314 314 318 317 312 309 308 315 310 311 312 311 311 310 309 307 306 304
315 319 315 309 307 310 315 318 320 318 320 318 319 318 319 321 319 321 320 317 313 315 315 313 313 313 315 315 312 314 317 313 311 309 311 310 311 315 312 312 309 308 306 304 303
311 315 316 313 313 312 314 319 320 321 319 317 319 319 319 322 321 321 320 317 315 315 315 311 314 314 314 313 313 313 313 315 314 312 313 312 310 310 312 311 309 307 305 304 304
319 312 307 310 316 319 316 319 320 320 319 320 319 320 318 317 317 319 316 314 313 317 315 308 310 309 317 313 311 314 311 311 312 312 312 313 312 310 310 308 308 307 305 305 304
317 314 310 307 311 316 315 321 320 318 318 317 318 316 317 319 315 313 311 311 314 316 310 306 305 304 304 307 306 306 308 309 310 309 310 313 311 310 311 310 309 306 305 304 303

GFSSW_925_thetae_015.txt.gz
Theta_e
315 315 315 315 315 314 313 313 313 313 312 312 312 312 312 312 310 312 312 310 311 311 312 313 312 312 314 315 312 308 315 323 326 328 329 326 324 322 326 330 328 326 337 338 340
315 315 315 315 314 313 313 313 312 312 311 312 311 311 311 310 310 312 311 311 312 312 312 311 312 314 316 316 314 315 316 316 319 326 327 326 324 325 331 331 328 338 339 340 340
314 315 314 314 313 313 313 312 312 311 311 311 311 311 311 311 314 315 315 312 311 312 312 313 313 315 316 314 315 313 318 314 313 324 327 325 320 323 331 332 329 339 338 337 337
314 314 313 314 313 312 312 312 312 311 311 311 310 310 310 312 318 316 316 310 311 312 313 313 313 315 317 317 314 314 313 311 312 321 324 321 318 328 331 328 327 337 339 337 336
313 313 311 312 312 312 312 311 312 312 311 310 310 310 312 317 318 315 317 311 311 314 314 314 315 316 318 317 315 314 314 310 310 315 316 314 319 327 323 325 331 337 338 340 338
312 313 312 312 310 312 311 311 311 311 310 309 309 310 311 316 314 316 316 316 313 314 314 313 314 314 316 315 316 314 310 310 309 310 309 314 312 317 317 325 335 337 338 337 335
312 312 312 312 311 312 311 312 312 310 309 308 309 310 314 316 315 316 315 315 316 314 314 314 314 316 316 315 311 309 311 310 311 311 311 312 313 311 318 325 332 336 332 331 328
312 312 312 312 310 311 311 312 311 309 308 309 309 311 318 313 314 314 315 315 315 315 315 316 315 315 316 312 312 312 312 313 312 313 311 311 313 316 315 325 327 327 326 325 322
312 312 312 312 311 312 311 310 309 309 309 309 311 313 319 313 314 316 315 314 313 315 315 315 315 317 311 313 314 313 314 314 314 313 313 314 315 319 317 325 323 323 324 323 323
312 311 312 312 312 312 310 308 309 310 310 311 313 316 313 314 317 314 314 314 316 314 315 315 313 315 313 313 315 315 314 313 315 314 318 320 322 321 320 324 323 322 322 323 321
312 311 312 312 313 311 309 309 311 313 312 314 313 312 314 316 314 314 314 315 315 316 317 315 317 317 316 312 311 312 313 314 313 315 322 322 322 321 320 321 322 322 322 322 321
312 311 312 313 312 310 310 312 313 318 322 316 315 315 315 316 315 313 316 317 317 317 315 317 318 315 316 316 316 316 316 317 317 318 321 321 323 322 321 320 320 322 322 322 321
312 311 313 312 312 309 310 314 316 320 321 317 317 317 316 315 314 313 315 315 315 316 315 318 316 315 317 317 320 318 318 317 320 320 320 322 323 324 322 321 320 319 319 320 322
312 311 313 312 310 312 312 313 318 319 314 315 314 314 314 313 315 313 314 315 316 315 318 319 316 316 317 319 318 321 317 318 321 321 323 317 322 323 324 324 323 321 321 320 319
312 311 313 311 314 314 318 324 324 314 319 313 314 315 313 314 314 315 315 315 316 316 317 319 318 318 319 318 318 320 316 318 316 317 318 320 324 321 324 326 325 322 319 318 316
312 311 313 312 312 319 322 324 316 321 320 314 315 315 316 315 315 314 317 315 314 317 317 317 315 316 317 316 316 318 319 319 318 319 322 319 321 322 325 327 324 321 319 317 315
312 311 313 313 318 326 326 312 319 322 316 315 315 314 316 317 317 316 316 318 319 322 321 318 318 315 316 320 318 319 321 325 327 328 324 319 321 322 320 320 323 322 320 318 316
311 311 314 314 318 323 314 314 317 317 318 314 314 315 318 317 316 315 316 318 316 317 319 320 319 317 315 318 320 319 321 327 326 327 324 319 326 323 317 317 320 320 319 317 316
311 312 314 315 315 318 313 315 316 316 316 316 316 318 318 317 317 317 316 316 316 315 322 322 321 315 314 315 318 319 319 317 319 314 320 320 319 318 317 316 319 318 318 318 316
312 314 317 324 325 314 314 314 318 318 317 315 316 317 319 318 319 318 318 317 317 317 315 319 320 315 315 316 316 317 315 320 318 320 319 317 320 322 320 319 319 318 318 317 315
317 317 317 325 317 313 316 314 322 321 317 316 317 318 318 319 318 319 318 318 318 318 316 315 318 318 316 318 320 319 318 315 316 316 317 318 317 317 319 319 319 320 317 316 313
309 314 321 314 313 310 316 318 320 320 316 319 316 317 317 319 320 320 320 319 315 318 319 315 317 321 318 315 316 316 317 316 319 315 313 316 318 312 315 316 317 316 314 313 312
311 320 317 310 313 310 312 319 321 317 318 319 320 318 319 321 321 320 320 315 312 315 318 315 318 322 320 316 315 318 317 312 312 314 317 327 317 312 314 314 314 315 312 311 310
317 322 318 309 307 312 315 317 320 317 318 317 319 318 320 321 319 321 320 316 314 315 314 314 314 318 321 316 315 317 318 313 315 318 316 319 316 313 316 315 313 312 311 310 308
312 317 318 316 311 310 312 316 320 320 318 316 319 319 320 322 321 320 319 316 315 315 315 313 317 315 314 313 314 313 315 314 314 314 320 316 314 313 315 316 313 311 310 309 307
314 314 308 312 313 313 311 319 319 319 319 319 320 319 318 319 319 321 318 315 314 317 314 309 315 311 316 313 312 315 313 312 314 314 313 313 315 312 312 311 311 311 309 309 307
315 310 312 306 314 314 315 317 319 319 318 317 318 318 318 318 315 313 312 312 314 317 312 310 311 310 312 308 308 313 312 313 312 312 315 317 316 313 313 312 313 311 309 308 308

GFSSW_925_thetae_018.txt.gz
Theta_e
315 314 315 315 315 314 313 313 312 313 312 311 312 311 311 310 309 313 315 313 312 311 313 315 315 315 316 316 317 317 317 322 328 330 332 328 327 326 328 331 333 332 337 339 342
314 314 314 314 314 313 313 313 312 312 312 311 311 311 310 309 312 315 313 311 311 310 314 314 315 315 316 317 318 319 319 320 327 329 331 328 326 325 332 333 333 339 340 340 341
313 312 313 313 312 312 312 312 312 312 311 311 311 310 309 309 317 318 315 315 311 312 314 314 314 317 316 317 318 319 320 319 326 329 326 325 325 325 330 335 334 340 343 340 340
309 312 313 313 312 312 311 312 312 311 311 311 310 310 308 313 320 317 316 313 311 313 314 315 317 317 316 317 318 319 319 317 324 328 325 323 324 326 330 330 331 337 340 341 340
310 311 312 312 312 312 311 311 311 311 310 310 309 309 313 320 317 316 313 311 312 313 315 316 317 316 316 318 319 318 318 317 316 321 326 324 324 328 330 329 334 338 339 341 338
311 312 312 311 311 311 311 311 311 311 310 309 308 308 315 318 315 317 314 313 314 315 317 317 317 317 319 319 319 318 317 315 314 322 321 323 322 327 323 332 337 338 338 338 337
311 312 313 311 311 310 310 311 311 310 309 308 308 310 317 318 315 320 318 317 315 316 319 317 317 317 318 319 316 315 315 315 314 319 320 321 320 319 323 330 335 335 336 337 336
312 312 312 311 311 311 311 310 311 309 308 308 308 311 320 315 316 317 317 317 317 316 317 317 317 318 318 316 314 315 316 316 316 318 314 318 319 320 323 330 334 335 336 336 332
312 312 312 311 311 310 310 310 310 309 308 309 312 315 320 315 315 316 316 316 317 317 316 315 317 319 317 319 315 315 315 315 317 318 316 316 316 321 325 329 332 334 333 332 329
312 312 311 312 311 311 310 309 308 308 309 311 314 321 320 317 318 316 314 315 317 318 317 318 319 319 317 318 316 316 317 315 316 319 316 318 322 321 327 329 330 330 331 330 330
312 312 311 312 312 311 309 311 316 318 315 319 316 317 315 316 316 315 315 316 318 318 321 318 319 318 318 317 316 316 317 317 318 321 323 322 323 323 324 329 330 329 330 330 329
312 312 312 312 312 310 310 316 318 322 323 319 318 317 316 316 318 316 317 319 320 320 319 319 319 319 320 318 318 318 317 320 320 321 324 324 325 324 323 326 329 330 330 329 328
312 312 311 313 311 309 312 314 318 317 326 321 321 319 318 317 317 316 318 319 318 319 319 320 321 319 320 320 320 321 321 322 321 322 323 324 325 326 324 324 324 326 328 328 329
312 312 312 312 309 313 314 313 314 316 322 318 317 319 317 318 316 316 318 319 319 320 320 322 319 320 321 321 321 322 320 322 323 323 322 323 322 327 327 327 326 326 327 328 329
312 312 312 311 316 315 320 322 322 320 320 317 316 315 316 317 317 319 317 320 319 320 321 322 321 321 322 322 321 323 321 323 322 323 323 324 323 327 328 328 329 329 329 330 330
312 312 312 310 313 317 319 323 323 327 320 317 317 318 318 318 318 319 320 319 320 321 321 321 319 321 321 320 321 321 322 322 322 323 324 323 324 322 329 328 329 328 327 327 325
312 311 312 313 317 324 324 323 324 323 318 317 317 318 318 318 319 321 321 322 322 323 323 322 321 320 321 322 322 323 323 324 325 326 325 323 323 321 323 325 328 328 325 324 322
312 311 312 314 316 319 319 320 320 318 318 317 317 319 320 319 320 321 322 322 321 322 323 321 324 320 320 322 322 323 323 323 321 324 321 323 322 322 322 322 326 326 324 322 321
311 310 310 314 314 318 321 326 320 321 320 318 318 319 321 320 319 322 322 322 321 321 321 322 321 319 319 320 321 322 322 322 325 322 325 321 323 323 321 322 324 326 323 322 321
312 312 316 317 315 317 324 321 319 321 320 318 317 318 320 320 319 320 322 321 321 320 321 323 324 320 320 320 320 322 320 324 324 325 322 319 320 319 324 323 323 325 323 322 321
315 318 322 321 321 324 327 321 320 325 323 319 318 319 319 321 320 319 320 321 321 320 321 321 322 322 321 322 323 322 322 319 321 322 318 316 316 321 321 323 323 324 323 322 321
317 321 321 320 325 322 322 319 323 325 322 321 320 321 321 322 322 322 321 322 320 321 323 320 323 326 323 320 320 321 322 319 319 319 321 324 318 317 320 321 322 323 322 322 321
318 324 318 313 325 326 319 320 324 322 321 323 321 322 323 324 325 324 323 318 317 320 323 321 324 326 324 321 320 322 321 319 319 321 321 330 317 317 319 320 321 322 322 321 320
320 328 324 317 317 320 320 320 320 321 322 322 323 324 325 325 324 326 324 319 318 319 313 316 323 324 326 321 321 322 322 319 319 321 318 320 316 317 317 319 320 320 321 320 318
321 323 323 327 320 319 320 319 320 323 321 322 323 324 325 326 325 325 323 319 319 316 320 321 323 320 318 318 317 318 320 320 319 319 319 316 316 314 316 317 318 319 319 318 317
322 323 320 322 317 317 317 319 319 322 323 323 325 324 324 326 324 326 323 321 322 321 321 317 323 318 320 318 317 318 318 318 319 319 318 318 318 317 317 317 318 318 318 317 316
320 315 320 315 318 319 318 319 319 324 322 321 324 325 325 324 322 321 319 319 320 322 321 320 320 318 319 315 316 321 318 317 317 318 319 319 318 317 317 317 317 318 317 316 315

GFSSW_925_thetae_021.txt.gz
Theta_e
311 314 314 314 314 313 313 313 313 312 312 312 312 311 311 311 310 314 317 315 315 312 312 317 315 317 316 317 317 318 319 319 323 332 333 331 331 330 328 328 333 335 337 339 342
311 313 314 314 313 313 312 312 312 311 312 312 312 311 310 310 312 316 315 315 312 311 315 316 318 317 317 317 317 317 318 320 327 331 332 329 328 327 328 326 331 338 339 341 341
311 310 313 314 313 313 311 311 312 311 311 311 311 310 309 310 319 320 317 315 311 310 316 315 316 316 317 317 318 318 321 321 324 330 330 329 327 326 330 330 332 337 340 340 340
311 310 312 311 312 312 310 311 311 311 311 311 311 310 309 314 325 322 316 315 311 313 316 315 316 317 318 317 318 319 320 320 324 327 325 325 326 326 325 327 329 335 339 341 339
311 310 312 311 311 311 311 311 311 311 311 310 309 308 313 322 321 318 311 313 312 316 317 316 317 318 317 317 318 319 320 320 324 325 322 324 324 327 329 326 331 336 340 338 338
311 310 312 312 312 311 311 311 311 310 311 309 309 308 317 321 317 321 316 314 316 317 316 316 317 317 318 319 320 320 320 319 321 324 326 324 323 327 328 329 333 336 336 332 332
311 310 312 312 311 311 310 310 311 311 310 308 307 311 318 321 317 321 317 316 317 316 318 318 318 318 320 320 320 319 318 317 319 323 324 323 320 322 328 330 332 332 332 331 330
311 310 312 312 311 311 311 310 310 310 309 308 307 314 321 318 318 320 320 320 319 317 318 319 319 319 320 320 318 318 318 319 318 322 323 323 321 322 327 329 330 330 331 331 331
311 310 312 312 310 311 310 310 310 309 308 310 315 318 323 317 316 317 319 319 319 319 318 318 319 320 321 321 318 318 317 319 319 321 322 322 321 322 326 327 329 330 332 332 331
311 310 312 311 311 310 310 309 311 310 312 313 316 323 323 319 318 317 318 318 320 320 320 320 320 322 321 321 318 318 318 317 319 321 321 318 320 321 325 326 329 330 331 332 330
311 310 312 311 311 311 310 313 318 321 318 321 321 320 318 318 318 318 317 318 320 322 322 321 320 320 319 320 318 319 319 317 318 319 318 317 320 322 324 326 328 329 330 331 331
310 311 312 312 312 311 311 317 321 323 326 320 319 318 318 317 319 318 317 320 321 320 320 321 321 320 319 319 317 318 318 319 319 319 321 319 321 322 324 326 327 328 328 329 330
310 311 312 311 312 310 314 316 321 320 328 322 320 319 318 319 318 318 318 320 320 320 321 321 321 321 320 318 318 319 318 321 321 321 322 322 323 326 325 326 328 329 329 329 330
310 311 312 311 310 316 316 315 316 317 328 320 321 321 320 319 318 318 318 320 319 320 320 323 322 321 319 320 320 321 322 321 322 323 322 322 322 324 327 326 326 328 329 330 330
310 312 312 312 320 317 323 324 320 326 327 319 318 319 319 318 318 319 319 319 320 320 320 322 322 321 320 322 323 325 322 323 322 323 324 324 322 326 327 327 327 327 327 328 330
310 312 312 311 313 320 321 327 327 333 324 318 318 318 319 318 317 319 318 319 321 319 321 323 322 322 323 322 322 322 324 324 323 321 324 321 322 326 328 327 328 328 329 330 332
310 312 311 314 318 321 326 328 331 328 319 318 317 318 318 317 317 318 318 318 319 320 320 322 322 322 322 323 323 322 323 325 324 326 325 323 323 322 321 326 326 329 330 331 329
310 312 311 315 318 323 328 329 328 320 319 317 317 317 318 318 317 317 318 318 318 321 321 322 324 322 322 323 322 323 322 325 321 322 323 324 321 321 325 323 324 329 329 329 327
311 311 313 314 316 321 329 332 325 318 319 318 317 318 319 318 318 318 318 318 319 320 321 321 322 321 321 322 321 322 323 323 325 325 325 319 318 323 324 324 325 328 328 328 324
313 313 315 316 316 323 328 326 322 320 320 318 318 319 321 320 318 318 320 321 323 323 324 322 322 321 322 322 322 323 322 323 321 322 322 319 319 318 325 323 325 328 328 326 324
315 318 317 319 319 325 328 324 321 322 321 319 318 318 320 320 319 319 320 322 323 323 323 321 321 324 323 323 321 324 322 321 322 325 324 319 319 320 318 322 324 326 327 326 324
317 321 323 322 322 326 326 322 319 323 325 321 321 319 319 320 320 320 319 320 322 323 322 321 321 324 323 323 323 323 323 323 324 321 322 326 320 319 320 321 323 324 326 325 325
322 323 325 321 328 335 324 322 320 323 323 323 320 320 320 320 320 320 320 322 322 323 322 324 321 324 324 324 323 321 321 322 321 323 320 329 320 319 319 319 320 322 324 324 324
321 326 326 325 324 326 325 322 321 323 322 322 320 322 323 324 324 325 325 322 322 322 313 318 322 322 325 324 323 325 322 321 322 324 321 322 318 318 318 318 318 320 321 323 323
322 322 323 329 328 327 323 321 320 322 323 323 324 322 323 323 325 326 326 323 322 318 320 323 324 323 322 322 321 321 320 321 321 320 323 320 317 316 316 317 317 318 320 320 323
322 323 322 325 324 324 320 322 320 322 323 325 323 322 322 324 324 323 326 325 325 324 324 322 324 323 324 322 321 320 319 318 318 319 318 318 318 317 318 317 318 317 319 319 321
321 321 324 325 327 323 325 321 320 323 326 324 323 324 324 326 326 325 325 324 324 326 326 325 326 322 319 318 320 323 322 320 318 318 319 320 319 317 318 318 317 317 318 319 319

GFSSW_925_thetae_024.txt.gz
Theta_e
313 311 312 313 314 314 314 313 312 312 312 312 312 312 311 311 309 314 316 315 316 314 313 316 315 314 317 317 317 317 316 319 320 322 332 328 333 330 330 330 331 332 337 342 341
313 311 311 309 312 314 313 312 312 311 312 312 312 311 311 310 312 316 315 314 316 315 314 316 317 316 318 317 317 316 318 318 326 332 331 330 330 330 329 329 334 336 342 341 341
313 312 311 311 310 312 313 312 311 311 311 312 311 311 310 310 319 322 317 316 315 312 313 317 317 318 316 317 317 317 318 319 326 328 328 330 328 328 330 331 331 330 339 339 338
314 312 310 311 312 312 311 311 311 311 311 311 311 309 308 314 325 322 316 316 314 312 315 318 317 317 316 318 318 318 318 319 325 329 329 331 329 328 328 328 329 330 336 337 338
314 313 310 311 312 312 312 311 311 311 311 311 309 307 313 322 322 317 311 315 311 314 318 318 316 316 318 318 318 318 320 320 325 326 327 329 330 329 325 326 327 327 336 336 336
314 313 310 311 312 312 312 310 310 310 311 311 309 310 317 321 319 320 316 314 314 316 318 316 317 318 318 318 318 319 320 319 324 325 324 327 327 327 327 327 327 333 334 334 332
313 313 310 311 312 312 312 310 310 311 311 310 308 311 317 319 319 321 316 316 317 318 317 317 318 318 319 320 321 321 319 319 320 324 323 325 326 326 329 330 331 331 329 329 329
313 313 310 311 312 311 312 310 311 311 310 308 309 314 321 319 319 319 320 319 319 317 317 319 320 320 320 321 319 319 319 320 319 323 324 324 322 322 327 329 329 330 329 329 327
313 313 310 311 312 311 312 310 310 310 309 310 316 320 323 319 318 317 319 321 320 320 319 319 319 321 321 321 320 320 319 319 319 322 324 323 323 321 324 328 329 329 329 329 329
313 312 310 311 312 311 312 310 313 310 314 313 316 320 323 321 317 318 319 319 321 321 320 320 320 321 322 320 321 320 319 319 319 319 323 322 322 321 323 328 329 329 329 331 330
313 312 310 311 311 311 311 313 317 320 318 319 321 319 319 318 318 319 318 319 320 321 323 322 322 321 322 321 320 319 320 319 319 320 320 320 320 319 322 325 329 329 330 331 330
314 312 310 311 311 311 311 319 323 323 327 321 316 320 319 319 319 318 317 320 322 322 323 321 321 321 321 321 320 319 320 318 318 318 319 318 318 320 321 324 327 328 330 331 330
314 312 310 312 312 311 314 316 320 320 326 322 320 318 319 319 318 318 318 319 321 321 322 323 323 323 321 320 319 319 321 321 319 317 316 322 318 321 320 323 325 327 327 329 330
315 312 310 312 311 317 317 316 315 318 328 322 320 320 320 319 318 319 318 321 321 321 324 325 323 323 321 320 319 322 323 322 322 321 320 323 325 326 326 323 324 326 327 328 329
315 312 310 312 318 318 325 320 323 327 332 321 320 319 319 318 317 318 318 321 321 321 323 327 320 320 320 323 323 323 322 324 322 321 326 325 324 326 326 326 326 327 329 330 329
315 312 311 311 312 319 322 327 328 335 330 320 319 319 318 317 317 318 319 319 322 322 320 321 321 323 323 322 322 323 323 324 321 322 330 323 327 325 326 326 323 326 327 329 330
315 311 311 315 318 318 318 329 330 328 319 320 318 318 318 318 317 318 319 318 318 321 320 321 319 321 323 320 321 320 321 325 331 333 332 322 323 327 325 326 328 330 327 328 330
314 311 311 314 317 320 327 333 328 320 321 317 317 318 318 317 317 317 319 318 318 318 320 321 327 321 320 320 326 325 320 328 333 331 328 324 324 322 325 325 326 329 330 331 332
313 311 313 314 315 322 329 334 326 322 319 319 317 317 318 317 317 317 318 318 317 318 324 327 324 323 322 321 320 321 322 322 326 331 329 321 318 320 323 323 323 330 330 332 330
313 313 313 314 316 321 330 330 324 321 320 318 317 317 319 318 318 318 317 318 319 322 324 327 328 325 322 321 321 321 320 325 323 325 324 320 319 323 325 322 323 328 330 330 329
313 316 315 316 317 324 331 328 325 322 320 320 317 318 319 320 318 318 317 318 323 323 322 322 325 323 323 322 318 323 322 320 320 329 334 331 321 320 320 321 323 325 329 329 328
315 318 319 320 319 320 328 324 321 323 320 322 320 319 319 321 320 319 318 320 321 320 322 320 321 329 321 322 322 322 324 322 336 326 332 334 325 320 320 319 322 323 325 327 327
317 320 321 320 320 325 325 324 322 322 322 323 322 321 319 320 321 320 320 324 324 323 323 323 323 326 322 323 323 322 321 320 323 329 330 334 326 320 319 318 319 321 323 326 326
317 323 326 325 318 322 326 323 322 322 321 322 322 320 320 320 320 321 322 324 323 324 315 323 322 321 327 323 324 326 323 320 321 333 329 325 319 319 319 319 319 320 320 322 325
320 322 324 327 326 324 327 323 322 322 320 322 322 319 322 324 322 324 323 325 323 318 320 323 324 322 321 321 322 323 322 321 320 322 324 324 320 319 318 318 318 319 320 320 320
319 322 324 324 323 324 326 326 323 321 322 324 324 321 323 324 323 323 323 327 325 324 323 323 327 326 327 323 323 322 321 320 319 318 319 319 319 318 318 319 318 318 317 318 319
316 321 323 323 324 326 328 327 324 323 323 322 323 323 323 325 326 327 328 327 325 327 327 328 333 328 325 320 320 321 322 320 318 319 319 320 321 319 318 317 318 318 318 318 318

GFSSW_925_thetae_027.txt.gz
Theta_e
314 313 312 311 310 311 313 313 313 312 311 311 312 312 311 311 308 311 313 311 313 316 313 313 315 313 314 312 314 313 310 310 312 327 331 329 329 330 328 328 329 333 338 337 331
314 313 313 311 311 312 312 311 312 311 311 311 311 311 311 310 311 313 318 316 314 315 315 314 315 314 311 313 313 312 310 313 326 329 329 329 328 329 330 329 333 332 336 334 329
313 313 313 311 310 312 313 312 312 311 311 311 311 311 310 309 316 322 317 317 314 315 315 313 315 314 313 314 314 313 313 314 326 328 327 328 329 327 328 330 331 331 331 332 332
313 313 313 311 310 312 312 312 312 311 311 311 311 308 308 314 322 319 314 316 316 315 312 314 315 315 314 313 313 314 315 315 327 327 327 330 330 324 325 328 325 325 327 331 334
314 313 313 312 310 312 312 312 312 311 310 310 311 308 312 319 323 320 312 315 315 312 314 315 317 315 314 314 314 315 315 318 327 328 328 328 329 327 323 324 329 332 331 333 334
314 313 313 312 310 311 312 312 312 310 311 310 310 309 314 322 320 318 312 314 312 314 318 317 316 315 315 316 317 316 315 318 324 328 328 329 329 326 325 324 327 331 333 334 334
315 313 312 312 309 311 312 311 311 310 310 310 309 310 315 316 319 317 316 313 315 315 315 317 317 318 318 319 320 318 317 317 320 323 325 324 326 324 325 326 327 328 332 329 329
316 314 312 312 310 311 312 312 310 310 310 310 309 311 318 317 319 318 317 316 316 317 317 317 319 319 319 318 319 318 317 318 318 323 323 321 321 325 323 326 326 326 326 326 325
317 314 313 312 310 311 312 312 310 311 309 310 312 314 324 322 319 318 319 320 319 319 318 318 319 319 319 319 318 317 317 318 318 320 322 321 321 326 324 327 327 326 324 324 323
318 315 313 312 310 311 312 311 311 309 314 311 313 316 318 322 319 318 318 319 320 320 320 319 317 318 317 318 318 318 318 316 317 319 321 320 318 318 323 325 326 323 323 324 322
319 316 313 312 310 311 312 316 314 316 314 318 318 318 319 319 318 318 318 319 319 320 321 320 318 319 320 320 320 320 318 317 315 317 321 320 318 317 317 324 324 327 328 326 324
320 316 314 312 310 311 311 315 319 318 323 320 317 318 316 319 318 317 318 318 320 321 321 320 320 320 321 320 321 321 321 319 316 317 317 317 316 316 318 320 326 323 324 326 326
320 316 314 311 310 311 312 314 310 316 323 324 323 320 316 318 318 317 316 317 320 321 322 323 322 322 321 321 322 322 322 320 319 316 315 320 317 320 319 320 324 324 325 327 326
320 316 314 310 311 313 316 314 311 312 325 324 323 320 318 318 319 318 317 319 320 323 323 322 322 321 321 322 320 320 322 321 321 321 316 319 320 325 323 322 322 322 323 327 326
319 316 313 309 314 318 320 324 319 320 331 322 321 319 318 319 319 316 319 321 319 323 322 323 324 322 322 322 321 322 320 321 323 322 323 322 321 320 323 320 323 321 322 321 327
319 316 313 311 311 315 320 322 327 330 331 322 320 319 318 318 318 316 317 318 320 322 322 322 320 322 321 321 320 321 321 323 323 322 323 322 322 324 324 323 324 324 323 324 323
317 316 312 311 315 320 319 321 328 326 321 321 319 319 318 317 317 316 317 317 319 321 321 319 320 321 322 321 322 322 321 323 324 324 326 325 324 324 323 322 324 324 322 322 326
316 316 313 310 313 317 322 328 331 323 322 320 318 318 317 317 316 316 317 316 315 317 320 322 323 322 321 320 323 320 322 326 328 330 326 325 326 322 321 322 323 323 321 323 326
313 313 312 312 310 314 325 330 324 325 319 321 316 317 317 317 315 316 317 317 316 315 319 324 325 323 324 322 321 321 319 324 327 325 328 323 317 321 322 323 324 322 322 327 326
312 312 312 312 311 315 325 326 327 322 321 320 319 317 317 317 316 315 316 317 318 321 322 325 325 324 324 322 320 320 320 322 322 323 323 318 320 325 322 322 324 323 327 327 324
313 315 314 312 316 321 322 325 325 323 321 323 319 318 318 319 316 317 317 316 318 322 322 322 326 327 324 324 321 321 320 319 319 320 322 322 320 318 318 320 321 325 328 327 324
314 317 314 314 316 316 320 322 321 323 323 322 321 320 318 320 319 316 317 323 320 321 322 322 322 324 325 321 321 321 322 323 318 320 319 317 319 317 316 318 318 318 325 325 323
315 317 315 315 315 316 316 321 323 323 323 322 322 322 321 320 323 318 325 323 323 323 322 323 320 317 318 319 322 322 321 320 323 319 320 316 318 316 316 316 317 318 319 323 322
315 319 320 319 312 315 315 320 324 323 323 322 322 322 322 320 320 321 325 323 323 321 315 322 322 318 317 319 321 323 324 322 319 317 318 318 321 317 315 315 315 315 317 319 322
314 316 320 322 320 315 317 320 324 325 322 321 322 322 321 320 321 322 325 324 324 317 320 320 320 321 323 324 323 322 323 322 320 320 319 319 321 318 316 314 314 315 316 317 316
315 316 320 321 320 320 317 322 324 323 322 322 323 321 319 322 323 322 326 325 324 321 321 321 323 323 322 321 319 318 319 319 318 319 317 318 318 315 314 314 313 313 313 315 315
311 314 318 320 321 320 318 322 323 322 321 320 323 323 321 324 323 325 324 323 324 322 321 321 317 316 320 316 314 311 313 317 318 318 317 316 315 314 315 315 314 314 314 314 315

GFSSW_925_thetae_033.txt.gz
Theta_e
314 314 313 312 312 312 309 309 310 311 311 311 310 310 309 309 307 309 310 311 310 309 310 312 313 313 312 311 311 307 311 311 312 313 327 327 330 328 328 334 334 335 334 333 332
315 315 314 312 312 312 309 309 311 311 311 310 310 310 308 308 309 312 318 314 313 314 313 311 312 312 308 310 310 310 309 313 311 319 326 328 327 329 332 334 334 333 332 332 331
317 315 314 312 312 312 310 309 311 311 311 310 310 310 306 309 314 320 318 315 313 314 314 312 312 312 313 311 312 311 313 312 312 325 324 326 325 327 332 333 333 332 330 330 330
319 317 315 313 312 312 310 309 311 311 311 309 310 308 307 314 320 315 319 314 313 314 314 311 311 314 313 313 312 313 311 311 315 326 325 326 324 323 324 328 330 329 329 329 329
322 319 316 314 312 312 311 309 311 311 311 309 309 307 310 312 313 318 314 314 314 314 311 312 315 315 314 312 311 311 313 312 317 325 324 326 324 327 327 328 329 329 329 329 329
321 322 318 315 313 312 311 309 310 311 311 309 309 307 312 308 318 318 314 314 314 313 312 313 315 314 315 313 315 316 315 325 324 325 326 326 326 328 327 330 331 329 328 326 325
320 320 321 316 314 312 311 309 310 311 311 309 309 309 312 306 317 316 314 313 312 311 313 315 316 316 316 315 317 317 318 325 326 326 326 323 324 329 326 332 332 330 329 328 325
320 320 321 318 315 313 311 309 310 311 310 310 309 312 315 310 314 317 319 315 315 313 313 315 316 316 316 315 316 315 314 319 325 326 324 320 325 322 326 330 332 332 331 330 327
319 320 320 320 315 314 311 309 311 312 311 310 311 314 317 315 317 318 319 317 317 315 314 315 316 315 315 316 313 313 315 317 325 323 323 320 321 321 325 330 331 333 332 329 327
316 320 320 321 316 314 311 309 312 313 312 311 311 309 311 317 318 319 318 317 316 316 317 316 312 314 313 314 317 318 317 316 317 316 321 324 320 324 323 329 331 327 331 330 327
313 318 321 321 316 314 310 311 312 315 312 312 308 308 311 316 317 317 317 316 317 317 318 317 316 317 317 316 318 319 319 319 318 317 319 319 318 324 322 324 325 323 325 332 330
311 316 320 320 316 313 310 310 312 312 315 314 315 314 315 317 317 315 315 316 318 318 319 316 319 317 317 318 319 319 320 320 317 315 315 316 317 321 323 325 325 324 323 324 331
310 315 319 320 315 313 310 312 316 315 311 317 318 319 319 318 319 315 314 315 318 318 318 318 318 319 319 319 320 318 320 319 320 317 314 315 317 317 316 323 323 323 323 323 325
308 314 318 318 313 310 313 317 315 316 319 320 323 321 319 315 316 316 315 316 317 319 318 318 318 320 320 320 318 320 318 318 319 317 313 313 317 318 316 322 324 325 322 322 322
305 312 317 317 311 315 317 315 313 317 310 312 322 319 313 314 316 315 315 316 317 320 318 318 321 320 320 318 318 319 319 318 320 319 317 318 316 315 319 317 323 324 323 323 321
303 309 315 314 312 311 313 317 319 315 314 319 320 318 315 315 317 314 316 316 315 319 319 317 318 318 317 319 318 319 319 317 318 319 319 321 317 317 319 318 319 324 323 321 319
304 306 312 314 312 313 313 320 324 317 314 321 319 317 315 316 316 316 315 317 318 320 319 318 319 318 320 319 318 318 316 317 318 320 320 320 320 319 317 317 317 318 320 318 319
305 306 311 314 313 315 321 325 324 320 321 321 317 316 316 315 316 315 314 314 314 316 317 319 318 320 321 319 320 319 316 318 322 321 319 321 324 320 318 317 316 316 315 316 319
304 305 311 312 314 312 322 327 319 320 321 315 317 317 317 316 316 315 313 313 313 314 317 319 320 320 320 320 319 320 318 317 320 319 322 320 319 315 317 320 318 318 319 321 321
305 308 311 312 314 311 321 323 321 320 323 322 317 316 317 315 315 314 313 313 314 313 314 317 319 319 319 320 319 319 317 318 317 323 325 319 317 319 320 319 319 319 318 322 322
305 310 310 312 313 312 318 318 319 319 320 323 321 317 316 315 314 312 314 313 314 318 315 319 316 317 322 320 319 318 318 316 316 315 318 318 318 312 318 318 318 317 318 319 322
305 310 312 313 316 311 314 316 316 317 319 321 322 321 317 314 314 314 314 313 312 318 318 318 316 317 320 318 318 318 319 316 316 317 314 314 317 313 312 313 315 318 318 319 322
306 310 312 313 316 313 313 315 316 316 318 319 322 321 318 315 315 314 314 319 318 317 318 319 318 317 318 317 316 320 318 319 316 312 316 315 316 313 311 311 311 316 317 320 321
307 311 313 313 313 313 313 315 318 317 316 319 321 322 321 319 318 319 321 321 320 319 317 316 315 317 319 318 316 320 321 318 318 316 316 314 316 316 314 313 312 310 312 318 321
305 310 313 316 313 314 312 314 317 318 316 315 317 321 322 320 319 321 322 322 320 316 318 317 317 315 314 314 320 319 319 320 318 317 317 317 316 316 315 312 310 309 312 316 320
306 311 312 313 313 313 313 313 316 316 317 318 316 319 317 320 317 318 321 320 320 319 318 316 316 319 319 316 315 317 316 315 316 316 316 316 316 312 311 312 310 309 310 311 312
302 305 311 313 314 314 313 313 313 315 315 315 318 319 320 319 317 314 317 318 317 318 317 316 313 314 318 312 312 313 312 313 314 315 315 314 312 312 313 311 310 310 311 311 312

GFSSW_925_thetae_036.txt.gz
Theta_e
316 315 314 313 312 312 311 309 309 311 311 311 310 309 308 307 307 310 310 312 310 310 310 312 312 313 311 310 310 306 309 309 311 312 315 327 329 328 331 334 334 333 335 334 333
318 317 315 314 312 312 311 309 309 311 311 311 309 308 307 307 309 312 317 314 309 313 311 311 312 309 306 309 309 308 309 312 311 311 324 327 326 329 334 334 333 334 334 333 332
320 319 317 315 313 311 312 311 309 310 311 311 309 308 306 308 312 318 318 315 313 313 312 312 312 312 313 310 310 309 311 311 311 312 323 326 326 327 333 335 332 334 334 332 332
322 321 319 317 314 312 311 311 309 310 311 311 309 307 306 313 319 313 315 315 312 313 313 310 311 313 312 313 311 313 310 311 311 324 324 324 324 325 326 328 330 330 330 331 330
322 321 321 320 316 314 312 311 310 310 311 311 308 307 309 307 309 317 314 313 313 313 311 312 314 315 314 311 310 311 311 313 314 323 324 324 325 328 330 329 328 328 328 329 330
319 321 321 321 319 315 313 311 310 309 311 311 308 307 310 305 312 317 314 313 313 313 311 311 314 314 315 314 315 314 316 322 324 325 325 329 328 327 329 328 329 329 328 328 329
315 320 320 320 321 316 314 312 310 309 311 311 309 309 311 305 313 317 314 313 312 313 313 313 315 315 315 315 315 316 322 323 325 325 326 322 323 329 330 330 330 329 327 325 327
313 316 320 320 320 319 314 313 310 309 310 310 309 311 313 308 312 311 315 317 315 313 311 313 314 314 316 314 314 313 314 318 324 325 323 320 324 328 331 330 330 329 328 328 325
310 314 319 320 319 319 315 313 309 310 312 310 310 313 310 312 313 315 317 318 316 314 312 313 314 314 314 315 313 312 314 317 326 324 323 320 323 326 329 331 331 330 330 330 327
307 313 316 319 320 319 315 312 310 313 311 311 310 309 307 315 316 318 317 318 316 315 315 315 311 313 312 313 316 317 317 317 317 316 323 324 320 324 328 330 332 330 330 330 327
305 310 314 318 319 318 315 309 310 313 312 314 308 304 307 315 317 315 315 315 316 316 318 316 315 316 316 315 316 317 318 318 315 315 317 322 321 324 326 328 330 329 329 330 327
306 307 312 317 319 316 313 310 311 312 315 312 313 310 312 315 319 316 315 315 317 317 318 315 317 316 316 316 318 318 318 317 316 314 315 316 318 324 324 328 328 329 327 328 329
306 306 312 317 317 315 312 309 314 315 313 312 315 316 316 317 318 317 313 313 316 317 317 317 316 318 318 318 318 317 319 318 318 317 313 315 316 323 321 324 323 325 325 325 328
306 303 311 316 315 313 310 314 315 315 315 316 319 318 317 317 317 315 314 315 317 316 316 317 316 319 319 319 317 319 316 317 318 316 314 313 315 316 318 325 322 324 322 322 323
306 303 309 314 311 312 315 312 314 314 311 312 321 318 316 314 314 314 314 315 316 318 317 318 319 319 319 318 317 318 318 318 318 317 316 317 315 314 316 318 324 323 323 321 321
306 304 306 312 313 314 315 313 316 319 312 312 319 317 314 314 315 313 315 314 314 318 318 316 317 316 316 317 317 318 318 314 316 317 319 318 317 317 318 318 320 322 323 323 320
305 305 305 311 314 316 315 317 326 318 311 317 320 316 313 314 315 314 315 316 316 318 318 317 318 317 318 319 317 316 314 316 317 319 320 318 319 318 315 314 316 315 319 321 321
304 305 304 308 314 313 317 323 324 318 317 319 317 315 314 314 314 315 313 315 314 315 316 318 318 318 318 318 317 317 315 316 319 319 317 318 321 318 317 316 315 313 313 317 317
303 305 306 309 312 312 318 323 318 317 318 315 316 317 315 314 314 314 313 312 313 313 316 317 318 318 319 319 317 318 317 314 318 317 320 317 317 313 316 319 318 317 317 313 315
302 305 304 308 311 311 317 320 321 316 322 321 316 316 316 314 314 313 312 312 312 313 314 317 316 318 318 319 318 317 315 317 315 322 322 317 316 315 316 318 319 319 317 318 319
304 306 304 308 312 313 314 316 318 318 319 321 322 319 316 315 313 313 314 313 312 312 313 315 313 314 321 319 317 317 317 314 314 314 317 317 316 311 314 316 316 315 315 315 319
305 304 308 310 315 315 317 313 314 318 318 319 320 322 318 314 313 313 313 313 311 315 315 316 314 313 317 318 316 315 316 315 316 317 313 313 315 313 310 310 312 313 315 315 317
305 306 310 310 314 314 314 313 314 317 317 318 320 320 319 315 314 313 313 312 314 314 316 317 315 316 316 315 315 318 317 316 313 311 316 314 315 311 310 311 310 311 312 315 319
305 306 311 310 311 311 313 313 313 315 315 316 319 320 320 319 314 314 314 319 317 315 316 315 315 315 317 316 315 318 318 316 316 315 315 314 315 314 313 312 311 310 308 310 317
305 305 310 311 311 312 311 312 313 314 315 315 317 319 319 321 318 319 320 321 318 317 315 314 315 314 314 314 316 317 318 316 317 315 317 317 314 315 313 312 309 308 310 313 319
304 306 309 309 309 312 314 313 313 314 316 315 317 316 318 320 316 317 320 319 318 317 316 313 316 314 318 315 316 318 315 315 316 316 315 314 314 311 310 310 309 309 311 312 314
300 302 308 309 310 311 312 312 312 313 314 315 314 314 317 317 316 315 315 316 316 317 316 313 313 313 317 312 313 314 312 313 313 313 314 316 313 310 311 311 311 310 310 309 308

GFSSW_925_thetae_039.txt.gz
Theta_e
319 318 317 315 314 312 311 311 310 309 310 311 311 309 307 306 306 310 313 313 310 311 312 312 311 312 310 312 310 308 316 315 314 313 316 328 331 329 332 335 334 334 336 334 328
322 320 319 318 315 314 311 311 311 309 310 311 311 308 307 307 309 313 317 314 309 311 310 311 312 309 310 311 312 314 315 315 314 313 319 327 328 331 334 335 334 334 334 330 329
323 322 321 320 318 315 313 311 311 309 310 311 311 308 307 307 312 317 317 316 310 312 311 312 312 312 313 311 312 312 316 314 314 313 322 326 327 328 333 335 333 334 333 332 331
319 319 322 321 320 318 314 312 311 310 309 311 311 308 306 311 319 313 314 314 313 313 312 311 311 314 314 314 312 314 313 313 313 322 325 327 326 332 328 330 331 331 331 331 330
315 318 319 321 320 320 317 314 312 310 309 310 311 308 308 308 306 317 313 314 313 313 310 311 315 315 316 313 311 313 313 314 318 324 324 324 326 329 331 330 331 331 331 331 331
308 314 317 319 319 319 320 316 313 311 309 309 311 307 309 308 311 316 313 312 313 312 310 311 315 315 316 316 315 315 317 323 325 326 326 329 330 327 331 330 330 329 329 330 329
304 309 313 316 319 317 319 319 314 312 309 309 310 309 311 308 310 315 313 313 312 312 312 311 314 315 316 317 315 317 322 323 326 326 328 324 325 330 331 330 331 330 329 329 328
305 306 311 314 318 319 318 320 316 313 310 309 310 311 312 308 310 312 313 314 313 312 311 312 312 314 316 316 315 314 316 319 325 326 324 320 326 329 331 331 331 331 329 328 328
307 306 308 313 316 319 319 320 316 312 311 311 310 312 310 308 310 312 311 316 315 313 312 312 313 315 316 317 317 316 317 320 327 325 325 322 325 328 331 331 330 330 329 329 326
307 306 305 312 315 318 319 319 314 311 311 310 310 311 308 312 314 316 317 317 315 315 315 315 314 317 315 317 320 320 320 319 319 319 324 326 323 329 331 331 330 330 330 330 330
307 307 305 310 314 317 318 317 309 313 312 315 312 308 305 313 317 315 315 315 316 317 320 317 319 319 317 317 316 318 319 319 318 317 322 326 325 329 331 331 332 332 332 332 331
306 307 306 309 314 317 316 310 310 312 315 313 313 311 310 313 317 317 315 316 318 319 318 319 321 317 316 316 318 319 320 319 318 315 317 317 320 323 329 331 332 332 332 332 332
306 306 306 309 315 316 316 315 312 314 316 314 314 315 315 315 317 318 314 314 316 317 319 320 318 317 318 318 319 319 320 319 320 317 315 317 319 322 325 327 328 329 330 330 330
305 306 305 309 312 315 313 313 313 314 315 314 316 317 317 317 318 316 313 316 317 318 317 319 317 318 319 319 318 320 317 318 319 319 318 314 320 316 322 327 327 329 329 329 329
304 305 305 307 311 310 313 314 313 313 317 313 320 316 317 316 315 315 312 315 319 319 319 321 318 320 320 319 317 320 318 319 319 319 319 319 320 318 317 323 328 328 327 327 328
304 304 305 305 310 313 314 314 315 321 318 311 319 319 319 314 314 313 315 315 315 319 318 318 316 318 319 316 317 317 318 316 318 320 324 320 321 322 320 321 323 325 327 326 326
303 303 305 306 311 313 314 316 322 323 313 313 320 316 315 315 314 314 316 319 319 320 320 317 319 317 317 319 318 318 319 322 320 326 324 320 322 323 319 317 318 320 322 326 326
302 303 305 304 310 313 314 318 323 317 317 316 317 315 316 314 314 314 316 317 315 315 316 319 319 319 318 320 321 319 320 324 321 323 320 319 323 320 319 317 318 318 317 316 323
302 303 305 304 307 312 316 319 318 318 316 316 315 316 315 314 315 315 316 317 316 316 319 320 319 317 319 318 318 319 320 317 322 320 325 320 319 317 317 319 320 320 319 317 318
303 304 304 304 305 311 317 317 319 315 320 321 317 317 316 315 316 316 315 314 315 315 316 319 319 317 318 319 318 319 317 322 321 325 325 320 319 318 318 319 318 320 321 320 320
303 304 303 304 308 313 316 316 316 316 318 321 322 322 317 316 315 315 316 313 313 313 314 317 317 316 321 321 320 319 320 317 318 319 323 322 320 317 318 317 319 318 317 320 320
303 304 303 304 310 313 315 314 313 315 317 319 320 322 320 316 315 316 317 316 311 314 317 317 318 319 319 317 316 317 320 320 325 320 318 319 320 315 316 314 313 315 315 318 318
303 303 303 305 311 311 312 312 313 314 317 319 320 320 319 316 316 315 314 312 313 315 318 318 317 319 318 317 316 320 318 316 316 317 320 328 323 313 314 315 314 313 314 314 319
304 305 306 306 308 309 312 312 313 313 315 317 319 319 320 320 315 315 315 315 314 315 315 316 317 318 318 319 318 320 319 317 320 322 322 321 321 319 318 317 317 315 313 312 313
304 305 307 307 307 308 310 311 313 314 314 315 317 319 320 319 317 317 316 320 317 317 316 318 319 317 315 315 316 317 319 318 319 320 324 322 317 318 318 317 315 312 311 316 320
304 306 306 309 306 308 311 311 312 313 313 315 317 317 317 321 319 319 321 319 320 317 317 315 319 315 316 315 316 319 317 318 318 317 317 317 318 316 314 312 313 311 316 316 315
302 301 306 308 308 307 308 310 312 313 313 313 315 316 317 316 317 316 315 317 318 319 317 316 317 317 319 313 315 319 317 317 316 316 319 320 320 314 313 313 313 314 313 311 309

GFSSW_925_thetae_042.txt.gz
Theta_e
323 323 321 319 318 317 314 312 311 310 309 310 311 311 308 307 307 313 318 316 312 311 313 314 314 314 315 316 316 316 318 317 317 318 318 326 325 332 333 335 335 336 338 337 330
321 321 322 322 321 320 317 314 312 310 310 309 311 311 308 307 313 316 317 315 309 311 313 314 314 313 315 317 317 318 318 317 318 318 318 321 326 331 335 335 336 337 333 331 332
318 319 319 321 322 321 320 318 314 312 310 309 310 311 308 308 317 321 317 316 310 311 312 314 313 314 315 316 317 318 319 319 319 317 317 321 329 331 332 333 334 336 333 331 331
315 317 318 318 318 321 320 320 318 314 312 310 309 311 307 314 316 316 316 314 311 315 313 315 317 318 318 318 318 318 319 319 318 320 322 327 328 331 332 335 333 334 332 331 329
305 308 316 318 318 318 318 319 320 316 313 311 309 310 311 313 311 316 313 314 313 315 314 316 319 319 318 319 318 318 319 320 322 322 328 328 329 330 335 333 332 333 332 330 328
308 305 305 314 317 318 317 317 318 319 315 313 310 310 313 312 311 317 314 314 315 314 314 316 319 319 320 320 320 320 320 327 325 326 327 329 331 331 335 333 332 332 331 329 326
308 307 305 309 314 317 318 318 317 319 317 314 310 311 313 313 312 317 314 314 314 314 315 315 317 319 320 320 319 320 322 326 327 328 330 328 329 334 334 331 331 330 332 329 325
308 308 306 306 312 315 318 318 318 319 317 312 310 312 315 310 311 315 316 316 314 314 314 315 315 318 320 320 320 320 320 321 323 328 328 328 328 334 332 331 331 331 328 331 328
307 307 307 305 310 314 317 317 317 318 313 312 312 314 314 309 312 312 316 317 318 315 315 313 316 320 320 319 319 321 320 320 322 328 328 328 326 330 332 330 329 329 328 329 330
306 307 307 305 308 313 315 317 317 313 312 312 312 315 314 312 314 318 315 315 318 318 318 318 320 321 320 318 319 319 320 322 322 325 328 328 327 330 332 330 328 329 327 327 330
306 306 307 306 308 313 316 317 317 317 315 319 318 315 309 314 317 318 318 318 319 320 321 322 323 320 318 318 320 321 320 321 321 321 322 323 325 326 331 332 330 328 329 330 328
305 305 306 306 308 314 315 318 317 314 317 316 316 316 315 314 318 319 317 320 320 321 321 322 322 321 320 320 321 322 321 321 322 320 320 321 321 324 329 332 331 330 330 330 329
305 305 306 306 309 314 316 317 315 315 320 318 316 315 315 315 317 318 318 319 320 320 322 322 321 320 321 321 322 322 322 322 322 322 320 320 321 323 327 331 332 332 330 330 330
305 305 305 305 309 314 315 315 314 314 321 316 315 316 316 316 317 317 317 318 319 320 321 322 321 321 322 321 322 322 321 321 323 323 322 320 322 322 324 329 331 331 332 329 330
305 304 305 305 311 315 315 316 315 316 316 315 318 316 317 317 316 318 317 318 319 319 320 321 321 322 321 321 321 321 321 322 322 323 323 322 321 322 322 322 326 329 331 331 328
305 304 304 306 307 313 313 316 317 324 315 314 320 320 319 318 317 317 317 318 319 320 321 321 320 321 321 321 321 321 322 322 324 324 324 322 322 322 321 320 321 324 327 330 331
300 304 304 306 309 312 315 318 322 319 314 313 321 320 318 317 317 318 318 319 319 321 322 321 321 320 320 322 321 322 323 325 324 325 325 323 323 322 321 322 322 323 323 326 329
301 305 303 306 307 313 315 321 317 309 313 316 319 320 319 316 317 318 318 319 318 319 320 321 321 320 320 322 321 322 323 325 323 324 323 322 322 322 322 322 322 323 324 323 324
299 303 303 304 307 310 317 321 311 312 315 315 317 321 319 315 316 318 319 318 319 319 319 320 319 320 321 321 321 323 323 322 324 325 324 321 320 320 320 320 321 323 324 325 323
302 303 304 303 306 307 316 317 311 312 316 318 316 321 320 316 317 318 319 318 318 318 318 320 321 321 322 322 322 322 322 323 323 324 323 322 321 319 319 319 320 320 322 325 325
302 304 304 303 304 308 315 314 311 314 317 320 320 317 320 317 316 318 318 317 319 319 319 319 321 322 323 323 322 323 323 322 322 323 324 323 321 319 320 319 322 320 321 323 325
303 306 304 304 306 308 313 314 311 313 317 319 320 323 321 319 317 318 318 318 317 318 319 319 320 323 321 321 320 320 321 323 324 322 323 326 323 319 320 321 320 320 320 322 324
303 305 304 304 306 308 310 312 312 314 315 319 320 321 322 322 319 318 318 318 317 319 319 320 321 323 321 320 320 320 321 320 322 322 325 330 323 320 320 321 321 321 320 319 321
303 305 306 305 307 308 309 312 311 312 313 317 319 320 323 323 320 319 318 317 317 318 318 320 320 321 321 319 319 321 321 321 322 326 324 325 322 321 321 321 321 321 321 319 318
303 305 306 308 308 308 309 309 311 313 313 315 319 320 322 322 321 320 317 319 318 317 318 320 320 320 318 317 317 318 318 321 322 323 323 323 321 320 319 320 320 319 318 319 321
303 307 308 307 307 307 311 311 310 312 312 313 318 319 320 320 319 321 321 322 320 321 320 320 319 321 320 319 319 318 319 319 321 320 321 321 320 319 320 321 320 318 319 321 322
302 305 308 307 307 308 311 309 311 311 312 311 314 315 319 319 319 318 317 318 318 322 322 322 321 321 320 320 320 323 321 320 321 322 322 322 321 320 320 320 320 320 320 320 319

GFSSW_925_thetae_045.txt.gz
Theta_e
319 320 323 323 322 321 321 320 318 314 312 310 309 309 311 309 307 317 321 318 316 311 315 316 316 316 317 318 317 318 319 318 318 320 320 322 325 329 332 333 335 337 340 339 334
317 318 318 319 322 322 321 320 320 318 314 312 310 308 310 309 315 317 319 317 312 311 315 315 316 316 317 318 318 319 320 319 319 320 320 322 326 331 333 331 334 340 337 334 334
313 315 316 317 318 318 321 320 319 320 318 314 311 308 310 309 319 318 320 316 310 311 315 314 316 315 317 318 319 320 320 320 320 320 320 322 325 330 332 334 328 337 336 334 334
308 307 311 315 316 318 317 317 318 319 319 317 313 309 309 316 318 322 317 314 311 314 315 316 316 317 319 319 320 320 320 320 320 320 322 327 324 328 330 335 335 337 332 331 331
308 308 306 305 312 316 317 318 317 317 318 319 315 312 312 318 317 319 315 313 312 316 316 319 319 320 319 318 320 320 321 322 323 323 327 328 330 331 336 334 335 333 331 331 330
308 308 308 305 306 313 316 317 317 318 318 319 317 313 316 318 314 319 320 316 316 316 317 318 320 320 321 319 320 321 321 325 324 326 327 328 330 331 335 333 333 333 331 329 328
307 308 308 307 305 309 314 316 318 318 318 319 318 312 315 317 314 318 317 316 316 316 318 318 319 320 321 320 320 320 321 325 323 325 326 328 326 330 333 330 329 331 332 330 328
306 307 307 308 306 306 312 316 318 317 318 318 314 314 317 315 312 316 317 316 315 316 316 318 318 320 321 321 320 320 321 324 323 326 328 327 328 331 331 330 330 327 332 331 329
306 306 307 307 307 305 312 315 316 317 317 314 315 316 317 313 312 313 319 317 316 316 317 316 318 320 321 320 320 320 322 324 323 324 328 327 329 332 330 329 330 327 330 331 328
306 306 306 306 307 305 312 313 316 317 315 315 315 318 317 315 312 312 318 318 319 319 319 320 321 321 321 319 320 320 320 321 325 327 325 325 327 330 331 328 329 327 328 330 326
306 306 306 306 307 306 313 315 319 321 317 315 319 316 313 314 317 316 316 318 319 320 321 322 323 323 321 319 319 320 321 322 323 322 321 323 323 325 331 331 327 329 327 329 329
306 306 305 305 306 306 313 315 317 318 319 316 317 317 317 315 318 317 318 319 321 322 321 323 324 322 321 320 319 320 320 320 321 321 321 322 323 322 329 330 329 327 329 326 327
305 306 305 305 306 308 314 315 317 318 318 314 316 317 317 316 317 317 319 319 321 322 322 323 323 322 320 319 321 321 322 323 321 323 322 322 322 322 325 329 329 328 327 328 327
302 306 305 305 305 309 313 314 316 317 318 314 319 318 317 317 318 316 318 319 320 321 321 322 322 321 321 321 321 322 321 321 322 322 323 324 324 325 324 327 330 329 328 328 328
301 302 305 304 308 315 317 316 318 319 313 316 318 317 318 318 317 317 317 318 320 320 321 322 322 322 322 321 321 322 322 322 323 324 324 323 321 325 322 324 326 329 329 328 327
301 301 304 305 306 310 316 318 320 321 315 315 319 319 320 318 317 318 317 318 319 320 320 321 321 321 321 321 321 322 323 323 324 324 327 323 323 325 322 320 320 325 328 328 327
301 301 303 305 308 308 313 319 318 314 313 314 318 320 321 320 318 319 318 319 319 320 322 320 322 321 321 322 322 322 324 326 326 327 327 325 323 323 325 321 321 322 323 327 328
301 301 301 306 306 308 312 320 313 309 311 317 317 321 321 320 320 319 320 319 318 320 322 322 322 322 321 321 323 323 324 327 333 327 325 325 322 322 322 322 322 322 324 324 327
301 302 303 304 306 307 311 318 314 310 311 313 316 321 322 319 319 319 319 319 318 319 321 322 322 321 321 321 322 323 324 324 327 325 325 324 322 321 320 320 320 322 324 326 326
303 303 304 303 306 308 311 316 311 310 310 313 314 319 322 320 318 320 320 318 318 319 320 320 322 320 321 322 322 323 324 325 325 327 329 322 322 321 321 320 319 320 322 324 326
303 305 304 304 305 308 310 313 314 310 311 312 316 315 320 322 318 319 319 318 318 319 319 320 321 322 323 323 323 323 325 324 324 325 328 327 323 322 320 320 320 321 320 321 322
303 306 304 303 307 309 309 311 311 311 312 312 316 317 317 322 319 317 318 318 318 319 320 320 322 325 324 323 322 322 323 324 326 325 325 326 325 322 321 321 321 321 321 321 322
304 305 304 305 307 311 308 310 311 312 312 312 317 319 320 320 322 319 318 319 320 319 320 320 320 325 323 323 322 322 323 323 324 324 325 333 326 322 321 320 320 320 321 321 322
304 306 306 307 307 308 308 309 309 311 312 311 315 317 319 322 321 321 319 318 320 319 320 321 320 322 325 324 322 322 321 321 322 327 325 324 322 322 322 321 321 321 321 321 321
304 307 307 307 309 310 308 307 308 310 312 313 313 316 315 320 320 321 320 321 319 318 319 321 321 321 320 321 321 321 321 321 321 321 324 323 321 322 321 321 320 322 321 320 321
302 307 308 309 308 309 309 308 308 309 310 312 314 316 317 318 318 320 320 320 319 319 320 321 322 321 320 321 320 319 318 318 319 320 320 320 320 321 320 319 319 320 320 321 323
301 304 308 307 309 310 311 308 307 308 310 311 312 313 317 317 321 320 319 320 320 322 322 320 324 322 324 321 321 324 319 318 319 319 320 321 321 321 320 319 320 321 321 323 324

GFSSW_925_thetae_051.txt.gz
Theta_e
312 313 314 315 315 316 317 317 318 317 318 317 318 318 320 316 309 310 318 318 320 319 313 314 317 317 316 314 314 314 311 312 314 319 320 320 325 327 325 327 328 325 327 330 330
309 309 308 308 310 312 313 316 317 317 317 316 315 316 319 319 312 316 315 319 319 315 312 314 316 315 313 313 313 313 311 313 316 318 317 317 317 328 328 326 327 326 326 332 330
308 308 308 308 306 304 304 309 314 316 317 317 316 316 318 317 319 321 319 317 318 315 311 313 316 313 313 312 313 313 312 315 317 318 318 317 325 329 330 333 327 330 330 332 330
307 307 307 308 308 307 305 304 308 314 315 317 317 316 317 315 319 321 317 317 318 313 311 315 314 312 314 313 313 315 316 316 316 320 319 325 326 329 332 333 331 333 332 331 329
307 307 307 307 307 308 307 305 304 309 313 316 317 317 317 317 319 318 318 317 314 312 315 314 315 314 314 315 317 317 317 319 317 322 321 324 325 328 323 330 330 331 331 329 326
307 306 306 307 306 307 307 307 304 305 312 315 317 316 317 320 315 319 318 317 314 313 314 315 316 316 317 318 317 317 317 316 317 321 324 324 325 325 325 329 331 330 330 327 324
307 307 306 306 306 306 306 306 306 303 310 315 316 316 316 317 311 315 318 321 317 315 314 316 317 316 317 318 319 319 318 316 315 321 323 324 326 326 327 325 333 331 328 327 324
304 306 307 306 306 306 306 306 306 302 307 313 315 315 316 310 312 316 316 316 319 315 315 316 318 317 318 317 318 317 317 316 316 322 325 325 330 325 324 324 331 329 329 326 324
303 304 306 307 306 306 306 305 303 301 307 313 315 314 320 315 316 314 315 316 318 317 316 316 317 316 316 317 317 317 317 317 317 325 326 328 330 325 326 328 331 331 329 325 325
302 302 304 306 306 306 305 304 300 306 312 317 316 316 318 314 316 316 316 315 318 315 316 317 315 315 314 315 318 318 319 316 323 322 326 327 327 325 327 329 327 328 328 327 327
304 303 301 305 306 305 305 305 314 316 317 320 317 314 312 317 317 315 316 314 318 316 316 316 315 316 315 316 318 318 318 316 318 322 322 326 328 324 326 328 326 327 328 327 324
304 304 302 302 306 305 305 307 313 313 317 318 320 318 314 318 318 316 313 316 319 319 316 317 317 317 319 320 321 321 318 316 323 324 323 324 328 325 327 328 326 327 326 325 325
302 302 303 301 306 305 305 306 304 308 316 315 314 313 312 313 316 316 311 315 318 319 319 318 319 319 320 321 321 319 318 317 323 322 320 320 328 328 326 330 329 327 326 325 326
303 302 302 302 305 306 307 312 314 314 319 312 310 311 311 311 315 315 317 315 317 319 319 319 319 320 321 322 320 317 317 321 323 321 319 319 319 329 330 331 330 327 326 325 327
303 303 303 301 305 306 310 310 313 319 310 308 312 312 312 311 314 313 315 316 316 317 317 320 320 321 321 322 320 318 321 323 323 321 320 321 321 321 329 330 329 327 327 324 328
303 303 303 302 302 305 305 308 315 320 320 311 318 318 315 311 314 315 313 315 317 317 317 318 318 319 319 321 321 320 322 322 322 321 323 322 322 324 324 323 327 326 325 325 324
303 303 304 301 303 305 308 312 318 318 309 307 320 319 318 317 314 315 315 315 316 319 319 319 319 319 319 320 321 319 320 323 328 324 324 325 325 323 322 322 324 325 325 325 325
303 303 303 303 302 303 307 315 318 308 308 312 313 320 320 319 319 318 317 317 315 317 318 319 320 319 319 320 320 320 319 325 331 329 331 327 327 322 321 321 320 320 325 324 325
304 303 304 303 302 303 309 314 309 308 309 307 309 312 320 320 320 319 318 318 318 316 318 319 319 319 318 320 319 320 321 321 330 329 330 328 325 322 322 319 319 319 318 323 323
305 304 304 303 303 305 309 312 311 308 307 308 310 312 314 318 321 320 320 319 319 317 317 319 321 319 319 319 319 319 320 322 327 332 336 327 327 324 322 320 317 318 319 321 319
305 305 303 303 304 306 308 309 308 309 310 308 309 310 312 312 314 316 320 320 318 317 317 317 319 320 320 321 321 320 320 322 324 326 325 325 324 322 321 322 318 315 317 319 321
305 305 303 303 306 306 306 307 308 307 308 309 310 310 312 313 313 314 318 322 318 318 319 318 321 319 319 320 320 320 320 322 326 328 327 321 324 321 318 319 318 317 317 316 320
305 304 304 304 306 307 306 306 308 308 308 309 308 310 311 312 313 314 321 321 322 319 320 318 318 320 320 320 320 320 320 322 324 326 327 325 326 322 321 320 319 317 318 317 317
303 305 306 306 304 305 306 306 307 307 308 308 309 308 308 312 312 314 320 323 322 318 320 318 319 319 319 321 324 324 323 321 323 323 325 324 325 323 322 320 317 317 319 315 316
302 304 305 308 306 306 305 306 307 308 307 306 307 308 309 310 313 313 319 321 321 321 318 319 319 319 319 319 322 324 324 322 323 324 325 324 324 322 320 318 319 319 319 319 317
299 305 305 304 306 306 306 306 306 307 307 308 307 308 308 308 311 314 319 320 322 322 320 319 321 319 321 320 321 320 320 321 321 322 324 323 323 321 318 318 319 319 319 317 315
303 302 305 305 307 307 307 306 307 307 307 307 307 307 308 309 309 317 320 322 321 322 323 322 320 321 320 320 320 320 320 321 322 322 320 319 318 318 319 318 318 317 317 317 316

GFSSW_925_thetae_054.txt.gz
Theta_e
308 309 309 309 307 307 309 310 313 314 315 316 316 317 315 315 316 315 314 313 317 316 314 314 316 314 313 313 314 311 312 311 312 315 318 321 326 324 325 329 328 326 328 328 330
308 309 309 309 308 308 306 304 304 307 312 315 315 316 314 315 317 315 317 316 320 319 313 312 315 315 313 312 312 310 309 312 312 315 320 328 326 327 329 329 327 326 327 331 329
308 307 307 307 308 308 308 307 305 304 307 312 314 316 315 315 316 316 319 316 318 317 313 312 313 314 312 312 311 310 312 313 313 314 318 325 327 329 326 327 331 333 330 332 328
307 307 307 307 307 306 307 307 306 305 303 309 313 316 315 316 313 320 318 316 316 315 311 313 313 313 312 314 312 313 312 313 313 317 322 325 325 330 330 333 333 332 332 329 328
307 307 307 306 307 307 306 306 306 306 305 306 313 316 315 317 317 314 315 317 316 312 312 312 314 313 313 313 314 315 315 316 316 322 322 324 326 327 331 331 330 331 330 329 327
305 305 307 307 306 306 306 305 305 305 305 304 311 315 315 318 309 314 317 317 315 311 313 313 314 313 314 316 317 316 317 316 315 322 323 323 325 324 324 330 330 330 329 326 324
303 304 304 306 307 306 306 305 305 305 305 304 308 314 314 315 306 318 318 319 318 314 312 313 314 315 315 317 317 317 316 315 315 320 323 322 325 326 328 330 331 329 327 326 324
302 303 303 304 306 306 306 305 305 305 303 303 308 313 314 307 306 309 309 314 313 317 314 314 314 315 317 316 315 317 315 316 315 323 323 323 325 323 327 331 331 329 327 325 322
305 303 302 302 304 306 306 306 305 303 304 310 313 313 315 312 316 314 311 314 316 316 317 315 314 314 315 314 314 315 316 317 317 318 325 324 325 325 322 326 331 329 327 324 323
305 305 304 303 302 306 306 305 302 307 308 315 316 313 313 311 314 316 316 313 314 316 315 314 313 314 312 312 316 316 316 315 314 323 325 327 325 323 327 331 331 328 325 324 323
300 301 304 304 301 304 306 305 308 313 314 318 318 314 311 312 316 315 315 314 314 314 313 315 316 315 313 313 315 316 317 317 316 318 326 325 324 323 324 326 330 329 325 324 324
303 303 302 303 302 302 306 305 307 305 309 311 316 317 316 316 317 315 315 313 315 317 314 315 317 315 315 316 317 318 318 319 316 321 320 323 325 324 323 326 324 327 327 326 325
304 304 302 302 301 302 305 305 307 308 311 313 313 316 317 317 317 313 312 312 317 318 316 315 317 316 316 317 318 319 320 317 317 321 320 323 324 328 326 326 326 327 327 325 325
303 304 303 302 301 304 306 307 307 308 315 314 312 311 312 312 314 313 314 311 316 319 318 316 316 317 318 319 318 320 319 316 320 319 318 316 319 325 326 325 328 328 325 324 324
303 303 303 303 301 304 306 304 308 312 298 304 311 311 311 310 312 312 311 313 315 317 316 318 319 318 319 319 319 320 319 318 321 320 319 319 319 317 326 327 328 328 326 324 324
304 303 303 304 303 302 302 305 311 319 316 312 314 311 311 310 312 313 313 314 314 314 315 316 316 316 318 318 319 319 321 320 319 319 322 321 319 320 329 328 328 326 326 325 325
304 304 303 304 301 303 302 308 317 313 307 307 318 317 311 311 310 313 313 315 315 317 316 316 316 316 317 318 318 319 317 321 323 323 323 322 324 321 323 325 328 326 325 324 326
304 304 303 303 303 302 303 313 315 310 306 308 310 317 318 313 311 313 314 313 313 315 316 319 320 317 317 318 318 318 318 321 326 327 327 325 326 321 320 319 325 325 324 324 323
304 304 304 303 303 303 305 313 312 309 307 307 307 308 319 319 319 314 315 315 314 314 316 318 319 317 317 317 317 320 320 319 326 327 326 325 324 320 320 320 318 323 323 323 323
305 305 304 303 303 303 305 310 312 310 309 309 308 310 311 312 316 318 318 317 316 316 314 316 320 318 317 317 316 318 319 322 325 329 329 328 327 322 321 318 316 316 321 322 323
305 306 304 303 303 304 306 308 308 308 308 310 310 310 310 312 312 312 318 319 317 317 316 315 317 318 318 319 318 319 319 321 323 324 325 325 323 319 319 320 316 313 316 318 321
306 306 303 303 305 303 304 305 306 307 307 308 309 308 310 310 312 313 315 316 318 317 317 315 316 318 318 317 317 317 319 320 324 326 323 319 323 318 317 317 317 316 315 316 319
306 304 303 303 305 304 303 304 306 307 307 306 308 308 307 309 310 313 314 315 319 321 319 316 317 318 319 317 318 318 318 320 322 322 325 324 324 320 317 318 318 316 313 314 317
301 305 305 304 303 304 304 304 305 306 306 306 308 308 308 308 308 310 311 313 319 320 320 319 318 318 320 319 319 322 319 320 321 322 324 324 323 321 321 320 320 316 315 313 314
300 303 305 307 305 304 303 305 305 305 306 307 307 307 308 309 307 308 311 318 318 320 321 321 319 319 318 318 319 318 320 321 320 320 323 322 323 322 320 318 317 315 315 315 314
299 304 304 303 305 305 304 305 305 306 306 307 307 306 307 308 307 308 309 315 319 321 321 320 323 317 319 318 319 319 318 321 321 321 322 322 323 320 320 317 316 317 316 315 314
303 300 304 305 305 307 306 304 305 305 305 305 306 306 306 306 306 308 310 314 318 320 320 321 322 321 320 318 319 319 319 319 318 320 321 322 321 320 319 319 317 315 316 316 314

GFSSW_925_thetae_057.txt.gz
Theta_e
307 309 309 309 307 308 308 307 306 304 303 305 310 312 312 314 312 311 313 315 316 315 314 315 313 312 312 312 311 307 310 311 312 312 314 325 325 324 326 328 328 326 328 329 329
307 308 308 308 307 307 307 308 307 306 305 303 306 311 313 314 313 315 313 314 316 314 313 313 314 314 312 313 310 309 309 311 311 311 314 328 325 325 327 328 327 326 328 330 329
308 308 307 307 307 307 307 306 306 306 306 305 304 311 314 314 314 312 318 316 319 317 313 311 313 314 313 311 311 309 311 311 312 311 317 326 327 327 327 325 328 331 328 330 327
306 306 306 307 307 307 306 306 306 305 305 305 304 311 314 315 306 318 317 316 318 315 312 311 312 313 310 311 309 312 310 311 311 312 322 324 324 328 327 331 332 329 327 328 327
304 305 305 305 306 307 307 306 305 305 305 304 304 308 313 315 316 310 311 313 315 313 311 311 312 312 312 312 313 312 315 315 314 318 321 323 324 328 334 330 330 329 328 327 325
303 303 303 303 304 305 306 307 306 305 305 305 304 307 313 314 307 309 314 316 315 312 312 311 311 312 314 314 316 315 316 314 314 321 322 322 324 323 328 329 330 329 328 325 325
305 303 303 303 302 302 304 305 306 306 305 305 305 309 312 311 305 315 314 317 315 313 311 312 312 314 314 315 315 316 316 314 315 320 321 321 323 324 323 329 330 328 326 325 323
304 305 305 304 303 303 302 304 306 306 305 304 306 310 312 306 307 308 307 307 314 314 311 313 312 313 314 314 314 315 315 315 315 321 322 322 324 322 326 330 329 326 327 324 323
303 302 305 304 304 303 302 304 305 305 305 305 310 312 314 310 314 314 314 311 309 311 314 315 313 312 314 313 313 313 313 315 315 317 321 322 324 323 329 331 330 327 325 323 320
303 303 301 300 301 303 302 303 305 308 307 312 314 312 311 313 311 315 315 313 312 314 315 313 312 312 310 311 314 312 315 315 314 316 324 325 324 322 322 323 330 326 324 322 321
304 304 303 303 300 301 301 304 303 310 309 314 315 315 313 313 316 316 315 312 313 314 314 312 313 314 315 312 313 315 316 315 314 315 322 323 321 321 325 329 328 326 324 322 321
304 305 304 303 302 302 301 305 305 306 310 309 308 313 315 315 316 313 314 313 313 314 312 314 315 314 314 314 314 315 316 316 316 316 321 320 320 322 322 324 328 328 325 322 322
303 303 304 304 303 301 302 305 306 307 310 312 311 310 310 314 316 314 312 311 313 314 314 315 315 315 315 315 316 316 317 317 318 317 319 322 319 326 323 324 324 327 326 323 322
303 304 303 304 303 303 304 305 303 306 311 309 313 310 312 314 315 312 311 311 315 314 316 315 315 315 315 315 315 317 316 318 316 316 319 316 318 315 324 324 326 325 326 325 323
303 304 303 303 303 303 303 301 303 308 301 303 310 310 311 310 309 313 311 310 312 316 316 318 316 316 316 316 316 318 318 318 317 318 318 318 316 316 325 326 323 324 326 325 323
303 304 304 304 305 303 301 301 307 317 311 308 311 311 312 310 309 311 310 313 312 314 315 316 314 316 316 317 316 317 319 318 318 317 321 319 318 318 325 325 322 323 326 324 323
303 304 304 304 302 302 302 305 318 315 307 307 313 310 311 310 309 312 312 313 315 314 314 314 313 314 315 316 316 317 317 319 320 321 322 320 321 318 318 322 322 323 325 325 322
303 304 304 304 303 303 303 310 315 309 307 307 307 312 312 310 310 310 312 310 313 314 313 314 316 314 315 316 317 317 317 319 323 324 322 323 325 322 317 317 320 322 323 324 323
303 304 304 304 304 303 302 310 313 310 307 309 307 310 315 316 313 312 312 312 311 312 316 316 317 316 315 316 316 317 318 317 322 324 326 323 322 320 318 318 320 323 322 322 323
303 305 304 304 303 303 303 307 312 310 309 310 307 308 311 311 314 314 314 314 315 313 313 315 318 317 316 315 315 317 317 321 322 328 329 324 325 322 321 318 317 317 321 321 322
304 306 304 304 303 304 303 304 307 306 307 309 310 310 310 311 312 311 314 316 316 315 313 313 315 316 317 317 316 317 318 320 322 321 322 324 321 317 320 319 316 313 313 319 320
304 306 303 303 304 305 303 303 305 305 307 308 309 308 308 309 311 312 313 312 317 318 316 315 316 318 316 315 316 316 318 319 321 323 320 318 321 317 317 316 316 314 312 313 318
304 303 303 303 305 303 303 303 303 306 306 307 307 308 308 308 307 308 312 312 316 317 321 320 317 318 318 316 315 316 316 317 320 319 322 323 323 318 317 316 315 315 315 313 313
299 304 303 303 302 304 304 304 304 304 305 306 307 307 307 307 307 308 309 310 310 319 320 319 318 317 320 318 317 319 318 317 319 320 319 322 320 320 319 319 317 316 314 312 311
299 302 304 306 304 304 304 304 303 305 304 306 306 306 307 308 307 307 307 309 311 318 320 320 322 321 317 316 317 319 318 317 318 319 320 319 321 320 319 318 318 317 315 313 312
298 303 304 302 305 305 305 305 304 303 304 305 305 306 305 306 306 306 306 307 310 316 319 319 321 319 318 318 317 318 318 318 317 318 319 319 319 318 318 317 316 315 315 314 313
302 300 305 306 305 306 304 304 305 304 304 303 305 305 305 305 305 305 305 307 311 314 317 318 319 320 321 320 317 319 318 318 318 319 320 321 319 319 319 317 316 316 313 314 314

GFSSW_925_thetae_063.txt.gz
Theta_e
308 308 308 308 307 306 306 306 306 306 306 306 305 304 302 303 303 310 312 306 312 312 314 315 311 310 309 311 310 309 316 317 316 315 317 314 320 322 324 328 328 327 327 328 328
307 307 307 306 306 306 306 305 305 305 305 305 305 305 303 304 310 311 307 307 311 314 314 310 310 310 312 313 312 315 316 316 314 314 315 315 315 317 326 327 328 328 325 328 328
304 304 305 307 306 304 304 302 302 303 305 305 305 306 303 306 310 307 315 315 312 313 312 312 312 314 314 312 312 312 316 313 313 313 313 313 319 323 326 327 327 327 327 327 328
304 305 305 304 306 305 303 302 303 302 302 304 305 306 303 312 303 313 313 314 314 312 311 311 313 314 314 314 312 314 313 312 313 312 314 315 322 327 327 326 328 328 327 328 326
303 303 303 304 305 305 304 303 303 302 302 303 304 306 304 309 307 303 306 309 315 312 310 310 313 312 314 311 310 312 313 312 313 314 314 321 323 325 327 328 330 329 328 328 326
303 303 303 303 302 302 302 301 300 300 301 301 304 305 308 307 303 305 310 313 314 313 310 309 311 312 312 312 313 314 313 315 315 315 318 322 322 323 324 330 330 329 328 326 325
303 303 303 303 303 302 302 302 300 299 299 302 307 306 306 304 301 305 311 314 314 310 311 310 310 312 313 315 314 315 317 316 315 315 318 322 323 324 325 331 329 327 326 325 324
302 302 304 304 304 304 303 303 302 299 301 306 307 307 307 301 301 305 303 306 308 308 310 311 311 312 313 314 314 316 315 317 314 319 319 321 321 319 324 331 330 328 326 325 324
303 303 304 304 304 304 304 304 302 304 307 307 306 307 307 305 310 307 309 308 306 307 311 312 311 313 313 314 316 314 317 315 314 316 321 323 321 321 327 330 331 331 327 326 323
303 303 303 303 303 303 304 304 302 309 308 308 308 306 306 304 309 312 313 311 309 311 313 313 312 314 313 314 315 317 317 315 316 317 318 321 322 321 326 330 330 330 329 325 323
302 302 302 302 303 303 304 300 305 306 304 310 310 307 306 313 314 314 313 313 311 312 317 314 317 316 313 315 314 314 315 315 314 313 315 318 319 319 319 329 330 331 329 326 322
301 301 301 302 303 303 302 303 305 302 306 305 307 307 308 310 311 311 312 314 312 311 314 314 318 317 313 314 314 315 316 317 316 315 316 319 320 320 320 323 327 329 329 327 324
300 300 301 302 303 303 302 303 302 302 306 307 307 307 307 307 308 308 311 312 312 313 314 317 316 315 314 314 315 316 317 316 316 315 316 318 320 319 320 322 324 326 325 325 325
299 299 300 301 303 302 301 304 303 303 310 308 309 309 307 308 309 308 308 311 312 313 314 313 314 314 315 315 315 317 315 316 315 316 320 318 322 320 319 320 323 324 328 328 326
298 299 299 300 304 303 303 302 302 306 309 305 310 308 310 307 307 311 309 309 312 313 314 315 315 315 315 315 315 315 316 316 316 317 318 319 320 320 318 322 321 322 325 328 327
297 297 298 300 303 303 302 302 304 312 310 309 310 312 311 311 310 311 309 309 311 314 315 314 314 315 315 314 314 315 316 318 318 319 323 321 321 321 320 321 321 321 322 325 327
297 298 300 300 304 302 302 302 309 310 309 307 308 308 309 310 312 311 310 310 312 316 318 315 315 314 314 316 315 317 319 321 324 325 325 319 320 321 320 320 320 321 321 323 325
297 299 299 300 302 304 303 305 308 306 311 309 308 308 309 311 311 311 311 309 310 312 314 317 316 315 314 316 317 317 318 323 325 325 323 319 324 321 321 320 319 318 318 320 325
297 298 299 300 302 304 303 304 305 306 309 309 309 309 311 311 311 312 311 310 309 312 314 315 315 312 313 314 317 317 319 319 322 323 325 323 323 320 320 319 318 318 322 322 325
299 299 300 300 302 303 303 305 303 308 307 308 310 310 310 310 311 313 313 311 311 313 313 315 318 315 314 314 314 318 318 320 321 324 326 323 323 322 321 320 320 321 319 323 323
298 301 300 301 303 304 305 305 302 302 302 307 309 309 309 309 308 313 314 309 309 314 313 315 316 316 316 316 316 317 318 320 321 322 324 324 323 322 323 322 321 321 319 317 322
298 300 301 303 303 304 306 304 302 302 304 306 307 309 309 308 307 309 311 311 308 309 316 314 316 316 317 314 315 315 318 320 323 323 322 323 322 316 320 319 319 320 318 317 314
300 300 301 302 303 304 305 304 302 302 304 306 307 307 308 308 308 309 309 308 308 309 310 321 317 317 316 316 314 316 316 318 319 319 322 326 322 317 318 319 319 318 319 317 316
299 301 301 302 302 303 305 304 304 302 302 302 305 306 306 307 307 307 306 306 308 310 315 319 321 318 318 320 319 318 316 316 319 322 321 321 320 319 319 321 321 320 319 318 317
299 299 301 302 300 303 304 304 303 304 303 303 303 305 306 306 306 306 306 306 306 311 313 319 320 321 320 319 319 319 318 317 316 318 319 319 319 319 318 319 320 320 318 317 318
298 301 301 301 303 302 304 304 304 303 304 304 305 305 306 306 306 306 306 306 306 308 309 310 320 319 319 318 318 319 318 316 316 316 317 317 319 317 318 316 316 318 318 318 318
298 298 301 301 302 304 306 304 304 304 304 303 304 304 304 304 304 304 304 305 306 306 307 310 317 318 318 317 317 320 317 316 317 316 317 319 318 318 318 318 318 319 319 318 318

GFSSW_925_thetae_066.txt.gz
Theta_e
306 307 307 308 307 306 306 304 302 302 303 304 304 304 304 302 300 309 312 310 311 309 313 317 315 314 314 316 317 317 318 318 318 318 320 319 320 320 323 324 328 329 330 330 329
305 306 307 306 305 304 304 303 302 303 302 303 304 304 304 302 309 309 309 311 306 312 315 317 316 314 315 315 316 317 318 318 318 318 319 319 320 320 322 323 327 330 330 328 329
304 304 305 307 307 306 305 304 303 303 303 302 303 304 302 303 309 309 313 315 310 313 316 316 315 314 314 315 316 316 317 317 318 318 318 319 320 322 323 322 323 327 330 329 330
303 303 303 304 306 304 304 303 302 302 300 300 301 306 303 310 305 314 311 313 313 316 313 314 315 314 315 315 316 316 317 316 317 317 317 319 320 322 324 325 328 327 329 330 330
303 303 303 305 305 304 302 302 302 301 300 299 301 303 307 308 305 305 304 310 317 315 314 315 316 316 316 315 316 316 315 317 317 317 317 319 321 322 323 325 329 330 330 331 330
303 303 302 303 305 304 304 304 303 303 303 301 302 304 309 307 303 307 310 312 315 315 314 315 316 316 315 316 316 316 316 316 316 317 319 320 319 323 322 324 331 331 331 330 329
301 301 303 304 304 304 303 304 304 304 303 301 305 307 310 307 303 304 304 307 313 313 317 317 315 314 314 315 316 316 317 317 318 318 319 320 320 321 322 329 331 331 331 330 328
304 303 303 303 303 302 303 303 304 304 302 306 307 308 311 305 303 305 305 306 305 313 312 313 315 316 316 316 317 317 317 318 318 317 318 321 318 319 324 329 331 330 331 330 329
303 303 303 303 302 302 303 303 303 302 307 307 309 310 309 305 308 308 311 308 307 312 312 313 315 317 317 316 317 318 319 319 318 317 320 324 320 325 327 328 328 331 332 331 330
300 302 302 302 302 302 303 302 303 309 309 309 309 309 308 309 306 312 313 312 309 308 313 316 317 318 318 317 318 319 320 318 319 319 319 321 323 322 323 327 329 330 332 332 330
300 301 301 301 302 303 304 304 306 308 305 306 309 311 311 309 310 310 314 314 313 309 316 318 319 319 318 318 317 317 318 318 317 317 316 317 319 321 322 325 329 330 331 332 331
299 300 300 301 301 303 305 306 304 303 306 305 307 307 306 309 310 312 313 314 315 311 313 320 321 318 318 317 317 316 317 318 317 318 318 316 320 322 322 323 325 329 331 332 331
299 299 299 300 301 305 305 305 304 303 307 307 307 308 308 307 308 309 310 310 313 316 312 318 317 318 318 317 316 316 317 318 317 318 318 319 321 322 321 323 325 327 328 330 331
298 298 299 299 304 304 305 305 304 304 310 308 310 310 308 308 308 307 310 310 309 313 316 314 313 316 318 318 317 317 317 317 318 318 316 321 322 321 321 321 322 325 328 329 330
298 298 298 298 302 304 304 304 304 306 308 307 309 309 308 308 307 308 309 310 309 310 315 316 313 314 316 317 317 317 317 318 318 319 317 318 322 320 321 321 320 321 325 329 330
297 297 298 300 304 304 304 304 305 311 306 309 310 312 311 309 308 312 308 308 310 313 313 316 315 314 314 315 317 316 317 317 318 318 321 320 323 321 320 321 321 321 323 327 330
297 298 299 301 303 303 304 305 310 307 306 309 310 310 310 309 312 311 310 309 310 312 313 314 315 316 315 315 316 317 318 321 322 324 321 322 323 323 321 321 322 323 323 325 329
297 297 300 301 302 303 304 306 308 304 306 308 310 310 308 312 312 312 313 311 310 311 311 312 317 316 317 317 318 317 318 322 323 325 325 323 324 323 321 321 323 322 323 323 327
297 299 300 300 302 303 304 307 303 304 307 310 310 309 311 311 311 312 312 312 310 311 313 314 316 316 316 317 317 319 321 320 323 325 325 325 323 322 321 321 321 322 323 326 326
299 300 300 300 302 304 306 305 304 305 309 309 308 310 311 310 312 314 313 312 312 310 312 314 317 316 316 316 318 320 319 321 321 325 327 325 324 323 321 321 321 324 324 325 327
298 301 300 301 302 304 306 305 305 304 305 308 310 310 310 309 308 316 317 313 311 309 311 314 317 318 316 318 318 319 320 321 321 322 326 327 325 322 322 322 322 323 323 323 327
298 300 302 303 303 304 304 303 304 304 304 305 307 309 310 309 309 311 314 310 308 311 313 314 318 319 318 317 317 318 319 320 323 324 323 326 325 321 322 323 322 322 322 323 321
298 299 301 302 305 304 303 304 304 304 304 305 306 308 308 309 308 308 311 309 307 309 313 318 316 317 316 317 317 318 318 318 319 320 323 328 323 321 321 321 322 322 322 322 323
299 301 301 302 303 304 304 304 305 304 305 305 306 307 308 308 307 307 307 307 307 310 313 317 320 316 315 315 318 318 318 318 320 322 321 320 320 320 319 320 320 321 322 323 323
299 301 300 303 302 302 303 303 306 305 304 304 305 305 306 307 307 307 307 306 307 308 309 314 323 322 321 320 320 321 321 319 318 319 321 320 320 320 319 319 320 320 321 321 321
299 300 301 301 303 302 301 303 304 304 304 305 305 305 307 307 307 307 307 307 307 308 309 311 319 317 317 317 319 320 320 320 320 320 319 320 320 319 319 320 320 320 321 321 322
297 297 301 300 301 302 304 304 305 305 305 305 305 306 307 307 306 306 306 307 307 308 308 310 313 316 316 315 314 318 320 319 319 319 320 321 320 319 320 320 321 321 320 320 321

GFSSW_925_thetae_069.txt.gz
Theta_e
307 308 308 308 307 306 306 305 304 303 303 303 302 303 302 302 301 309 310 311 313 313 312 317 318 318 316 318 319 319 319 320 320 321 320 321 320 321 321 322 322 327 329 330 332
306 306 307 307 307 306 307 306 304 304 303 302 300 301 302 302 310 311 312 309 309 308 314 318 320 318 317 318 319 319 319 319 321 320 320 321 320 321 321 321 322 324 329 330 330
303 303 303 305 306 306 303 302 302 302 302 302 300 299 302 305 310 316 313 308 315 313 313 316 319 318 318 317 318 319 319 319 320 319 319 320 320 321 322 322 322 325 325 330 331
304 304 304 304 306 306 305 304 304 304 304 304 303 300 300 310 309 311 305 306 313 314 316 317 320 319 318 317 317 318 318 319 319 319 319 319 320 320 321 321 323 326 327 329 332
303 303 303 303 306 306 305 305 304 304 304 304 304 305 306 312 312 309 306 310 319 315 317 317 319 320 319 317 317 318 318 318 318 318 318 319 319 320 320 321 322 327 331 331 332
302 301 301 303 303 304 303 303 303 303 303 304 305 306 308 314 312 307 307 306 312 318 318 317 318 319 318 318 318 318 318 318 317 318 318 318 319 320 320 321 323 328 331 331 332
303 304 304 303 303 303 302 302 302 303 303 303 305 307 308 311 311 310 307 306 305 310 317 317 317 318 319 319 318 318 317 318 319 318 318 318 319 320 320 321 324 327 331 331 331
302 301 303 303 302 302 302 302 303 303 302 305 307 310 310 308 310 309 309 308 308 307 308 314 317 319 318 317 317 318 318 318 319 319 319 319 320 320 321 324 326 329 330 331 331
301 301 301 302 302 301 301 302 303 303 308 308 311 311 311 308 309 308 309 309 311 311 308 311 314 317 319 319 319 320 320 320 321 320 319 319 321 322 325 324 326 328 330 332 332
301 301 300 301 301 301 302 304 305 307 310 311 310 313 312 310 311 310 314 314 314 311 310 313 316 318 318 321 321 320 321 321 322 322 319 319 322 322 324 326 327 327 330 332 332
301 300 300 300 300 300 304 308 308 313 308 307 309 312 310 309 311 312 312 314 315 314 313 311 316 319 319 319 320 320 321 322 322 321 320 321 320 322 322 324 325 328 329 332 333
300 299 299 299 299 301 306 308 307 306 308 308 308 308 307 307 308 311 314 316 316 318 315 310 314 316 317 319 319 320 320 321 321 320 319 319 319 319 321 322 323 326 328 329 333
299 298 299 299 299 304 306 307 306 307 309 308 309 309 310 309 309 309 313 316 316 317 319 314 314 316 317 319 321 321 321 321 321 321 320 320 320 321 321 322 322 323 324 327 331
298 298 298 298 301 306 305 306 307 307 312 311 311 312 311 310 310 308 310 314 314 315 316 318 315 317 318 319 321 321 320 320 320 320 322 321 321 323 322 323 323 324 325 326 330
299 298 298 297 302 303 305 305 307 308 309 309 311 311 311 311 309 311 309 313 315 314 314 319 318 315 318 319 320 321 320 320 320 321 321 321 321 321 322 321 322 321 323 327 328
297 297 297 300 302 304 304 307 307 316 309 309 311 312 314 313 311 312 309 310 312 314 314 313 315 317 315 316 318 319 320 320 320 321 324 322 323 323 324 322 321 321 322 326 328
297 297 298 300 303 305 305 307 312 309 305 307 311 311 311 311 313 311 311 312 315 318 318 316 316 316 317 314 317 317 319 323 324 325 325 323 323 323 322 321 322 322 323 326 328
297 297 298 300 301 302 305 309 309 304 306 306 309 309 307 309 314 314 314 311 312 312 316 321 320 317 316 317 317 319 320 325 328 329 326 324 325 325 323 322 323 323 324 324 327
297 297 299 300 301 303 307 310 305 305 304 307 309 306 307 311 312 315 314 315 312 311 316 318 316 315 318 317 316 319 320 320 323 327 330 326 325 324 323 322 322 322 324 325 327
298 299 300 301 302 303 306 306 306 305 308 308 306 305 309 311 313 316 315 314 313 312 312 315 317 316 318 317 317 319 320 321 322 328 330 328 328 326 323 322 321 323 325 326 327
297 301 300 301 302 304 307 305 305 305 305 307 307 307 309 310 311 315 318 316 312 312 312 313 314 318 318 320 320 318 320 321 322 324 327 329 329 325 324 323 323 324 323 325 329
298 302 302 302 304 305 305 305 305 305 305 305 305 307 309 310 310 311 319 312 309 309 314 312 314 319 320 319 319 319 321 322 326 325 326 329 330 322 324 324 323 323 323 323 323
299 300 301 303 306 306 304 304 304 304 305 305 305 305 307 308 310 310 314 313 309 308 312 313 316 316 319 321 319 320 321 321 322 324 329 331 326 324 322 321 322 323 323 323 324
300 302 301 304 304 305 305 305 304 305 304 305 306 306 307 309 310 309 310 309 308 307 311 311 318 319 321 321 319 320 320 320 322 326 324 326 325 323 322 321 320 321 322 323 323
299 301 301 303 304 303 304 305 304 304 305 304 305 306 307 308 309 309 309 309 308 309 309 312 321 322 318 320 320 319 319 320 320 321 322 322 321 320 320 320 320 320 321 321 322
299 299 301 302 303 303 303 304 304 304 305 306 305 305 306 306 307 307 308 309 309 309 309 310 318 319 322 318 319 320 319 318 319 320 320 321 321 320 320 320 320 320 321 321 322
297 297 301 301 302 304 304 303 302 303 304 305 306 305 306 307 308 309 309 309 309 310 310 309 314 318 325 319 318 320 320 320 320 320 321 322 322 321 321 320 321 322 322 322 321

GFSSW_925_thetae_072.txt.gz
Theta_e
307 307 307 308 307 307 306 304 302 301 301 302 302 301 299 301 304 310 312 311 310 313 314 314 318 320 320 319 318 319 319 321 320 320 321 322 322 321 321 321 321 321 325 328 334
306 306 307 307 307 307 306 303 303 303 303 304 304 304 301 299 308 312 312 311 311 310 310 312 318 319 320 318 318 319 321 320 319 320 321 321 321 321 321 321 321 322 325 331 331
306 306 307 307 307 306 306 305 304 303 303 304 304 305 303 301 312 316 311 307 305 310 315 310 315 320 320 318 318 318 320 319 319 319 320 319 320 321 321 321 323 324 326 328 332
302 304 305 305 306 306 305 304 303 302 302 303 304 307 305 308 316 312 306 308 309 314 317 313 314 317 320 319 318 317 318 319 319 319 319 319 319 320 320 322 322 322 325 327 330
302 303 304 305 306 305 303 302 302 301 301 302 304 307 307 309 313 313 312 309 314 318 316 317 317 318 319 319 318 318 317 318 318 319 319 318 319 319 320 320 321 321 329 330 330
302 302 302 304 305 303 302 302 301 301 301 303 303 307 308 309 309 312 311 308 307 312 319 317 318 318 319 319 319 318 317 317 318 319 319 318 318 318 320 320 321 321 327 331 331
302 302 302 301 302 302 302 301 300 301 301 303 304 308 309 308 307 308 310 310 308 308 310 318 317 317 318 318 318 318 318 318 318 318 319 318 318 318 319 320 320 320 324 330 331
301 301 302 301 301 301 301 300 300 301 304 304 307 310 310 308 308 310 311 312 312 309 308 308 312 316 319 319 319 319 318 319 318 318 319 319 319 319 320 321 321 322 325 330 331
300 300 301 300 300 300 299 299 300 304 305 308 310 312 313 310 311 310 310 310 311 311 309 310 310 316 318 319 320 318 319 318 318 319 320 320 320 320 321 323 322 324 327 329 331
300 299 300 300 300 300 299 303 307 308 308 311 312 313 313 312 311 311 312 315 314 313 313 310 310 315 317 319 323 320 319 318 320 321 321 321 320 320 323 324 324 324 325 329 332
301 300 300 299 299 298 300 306 309 311 312 311 311 312 311 312 308 309 312 313 315 315 316 310 313 316 317 318 320 320 319 320 321 321 322 322 321 320 322 322 325 325 326 329 332
299 299 300 298 298 298 300 309 308 306 309 308 308 308 308 307 309 309 310 315 316 318 317 316 313 315 314 318 318 319 320 321 321 321 321 321 321 321 320 321 323 325 326 327 332
298 298 299 298 298 300 306 307 306 308 309 309 310 310 310 311 311 310 308 313 315 317 318 321 318 312 312 314 319 320 321 321 321 320 322 320 321 321 321 321 321 323 324 327 332
297 299 298 297 300 304 306 307 307 307 312 313 312 313 313 311 312 310 309 311 317 318 317 320 319 314 315 317 316 320 320 321 321 322 323 322 323 323 322 322 322 323 324 324 328
298 297 299 297 300 302 304 306 307 308 316 312 311 312 312 312 312 311 309 311 315 315 317 319 319 318 318 318 317 319 321 323 322 322 323 321 322 322 321 323 323 323 324 325 325
298 297 297 299 301 302 304 306 308 314 314 310 313 314 314 314 313 313 310 311 313 314 315 315 314 315 317 318 318 318 320 323 323 323 325 322 323 323 324 324 323 324 323 325 326
298 297 298 299 301 302 304 306 313 312 306 306 309 311 311 310 309 313 312 311 313 316 316 316 315 315 315 317 318 318 324 329 328 326 327 322 323 324 324 322 322 322 322 325 328
297 297 298 298 299 301 304 307 312 307 309 307 309 307 308 307 307 314 313 313 311 314 314 319 321 316 317 318 320 318 322 325 329 330 326 323 324 325 324 322 323 323 323 326 327
297 298 299 299 299 301 306 308 307 307 306 305 306 308 308 306 311 311 316 315 313 312 315 318 319 317 317 318 318 320 320 319 325 326 332 327 324 325 323 322 322 322 323 324 326
298 299 299 299 299 302 305 307 307 307 306 308 308 307 305 307 312 313 316 316 317 314 312 314 320 317 317 317 319 320 319 325 323 327 335 332 328 326 325 323 322 322 325 326 327
297 300 298 299 301 304 305 305 305 305 306 305 307 307 307 308 309 310 314 317 314 313 312 313 317 318 317 322 322 321 320 321 322 323 332 335 331 329 327 324 323 325 325 327 329
298 300 299 302 304 304 304 304 305 305 305 305 306 306 308 309 310 311 312 316 311 310 314 315 316 317 316 315 319 320 320 320 326 326 324 330 331 328 326 324 325 323 324 325 325
300 299 298 303 304 305 303 304 304 304 305 305 306 305 305 306 307 309 311 313 311 313 312 310 317 316 316 317 321 323 321 321 322 327 329 334 327 325 324 323 322 323 324 325 325
301 300 300 305 304 304 304 305 305 305 304 305 305 306 306 305 306 310 312 313 311 310 309 311 314 318 320 322 321 325 322 322 324 328 330 331 328 327 324 322 321 322 323 323 324
300 300 302 303 305 304 304 307 305 305 304 304 304 305 306 309 307 309 308 310 310 309 310 312 319 320 319 318 321 324 323 322 324 325 328 326 326 326 323 322 322 322 321 321 321
301 298 299 302 303 303 303 303 304 306 305 305 305 304 304 305 306 307 307 308 312 311 310 311 315 314 316 317 319 324 322 322 324 324 323 322 323 322 321 321 323 324 323 323 323
296 297 300 301 302 303 305 304 302 303 304 306 306 307 307 307 308 309 309 310 311 311 311 310 312 318 318 319 321 322 322 322 321 320 321 325 324 322 321 320 323 322 322 321 321

GFSSW_925_thetae_078.txt.gz
Theta_e
306 306 307 307 306 306 306 304 303 301 301 301 301 301 300 301 301 304 306 307 309 310 311 311 313 314 316 314 314 311 312 313 315 315 316 316 315 315 316 318 320 319 324 328 334
305 305 306 306 306 305 305 305 302 301 301 302 301 300 301 302 305 307 311 310 311 310 310 310 310 310 314 315 316 313 311 314 314 314 314 315 313 313 316 317 317 330 334 333 334
304 304 305 305 306 306 305 304 302 301 301 301 301 305 301 303 308 309 310 309 311 309 307 309 309 308 314 315 315 313 317 314 313 312 313 314 314 316 314 315 316 324 335 333 332
302 302 303 304 305 305 304 302 301 300 300 303 303 306 304 305 300 310 307 308 309 312 315 316 313 308 308 315 315 316 315 314 314 314 314 314 314 315 313 315 317 322 332 332 330
301 301 303 303 303 304 303 301 300 299 299 299 303 306 305 306 307 304 306 306 309 314 317 316 312 308 309 310 312 315 316 316 316 314 314 314 314 314 314 313 313 317 329 330 328
302 301 303 302 302 302 302 300 299 299 298 298 303 307 307 305 302 304 306 305 309 312 312 312 315 312 311 312 312 314 314 315 315 314 314 314 314 312 314 313 313 318 325 328 327
302 300 301 301 301 302 300 299 299 298 297 298 302 307 306 305 300 302 303 307 308 309 309 309 307 307 308 312 315 316 315 315 315 314 314 313 313 314 312 312 313 313 318 323 325
302 300 299 300 298 299 299 298 297 297 299 301 305 308 308 304 304 307 308 308 310 310 310 311 311 306 307 312 315 316 316 317 316 315 314 312 316 315 313 311 312 311 310 324 324
301 299 299 299 298 298 299 297 301 305 306 304 307 308 309 309 311 310 309 308 311 312 310 311 309 307 308 314 315 315 317 316 316 315 315 314 316 315 314 313 312 312 310 320 325
302 301 298 298 298 298 297 302 307 309 308 308 309 311 310 311 309 307 307 309 313 313 310 309 306 305 309 313 318 316 316 315 315 316 316 316 315 315 315 314 313 312 313 322 326
302 301 298 297 298 299 299 303 305 305 305 309 311 311 312 312 309 307 307 306 313 314 313 311 308 308 305 309 314 316 317 317 316 317 318 318 317 317 318 317 314 313 313 322 327
300 299 297 297 297 298 300 302 303 306 306 306 306 306 306 307 308 308 307 305 313 315 314 314 311 309 308 310 312 314 316 317 316 317 317 316 316 318 318 317 316 315 314 319 324
299 298 297 297 297 299 297 301 302 304 305 306 306 306 306 307 307 305 306 305 311 313 314 315 316 313 311 316 319 314 315 315 315 317 317 317 319 319 319 317 314 313 316 316 326
299 298 297 298 298 297 299 300 302 303 305 307 309 308 308 309 308 307 307 305 308 314 316 316 316 318 318 319 318 321 313 315 318 321 323 320 324 320 320 320 317 315 314 316 326
297 297 297 298 298 298 298 299 302 305 304 306 310 309 309 310 310 309 308 307 314 314 315 314 316 317 319 319 318 319 314 316 320 321 323 321 323 321 320 319 318 316 313 317 326
297 297 297 299 297 297 298 300 304 306 307 309 311 310 312 311 311 308 307 308 310 314 314 313 312 314 315 315 317 316 316 317 320 322 324 320 324 323 321 320 319 317 317 318 327
297 297 298 299 297 297 299 300 305 307 304 309 313 311 313 312 311 309 308 312 311 313 313 312 312 312 314 316 316 317 320 323 324 325 324 321 324 323 321 319 318 318 318 319 326
298 297 298 298 298 296 299 304 305 303 304 305 307 310 312 311 311 310 308 309 310 311 312 312 313 315 314 315 318 318 322 327 326 329 326 323 324 322 320 320 319 317 316 323 327
297 297 296 297 297 297 300 304 302 303 304 306 306 307 310 306 307 311 308 308 309 309 312 314 315 313 314 314 316 321 325 321 327 328 327 327 324 320 319 318 317 316 322 327 327
296 296 295 296 297 298 301 302 301 301 303 303 306 307 308 307 309 308 315 316 315 311 310 313 315 314 317 315 317 318 321 325 324 328 330 327 327 324 327 323 318 317 320 327 327
296 297 296 296 297 299 298 299 300 300 301 304 306 305 306 307 306 307 316 315 313 311 311 314 314 315 318 319 321 321 323 323 323 324 333 332 332 326 327 326 322 318 318 324 326
295 296 296 297 298 299 298 298 299 299 301 302 304 305 306 306 306 306 313 315 311 311 313 314 315 315 315 314 318 320 320 323 324 326 326 326 328 328 327 324 320 320 320 319 326
296 295 296 296 299 298 298 299 299 299 300 302 305 304 304 305 304 306 313 311 310 310 311 310 314 315 315 315 318 318 319 320 324 324 329 329 328 326 325 325 322 320 321 321 321
295 295 294 294 295 299 299 299 300 301 301 300 301 303 304 305 306 305 310 312 310 311 311 310 312 313 315 316 316 319 318 317 322 324 324 325 326 324 326 326 324 321 321 322 322
294 292 296 298 298 299 299 300 302 301 302 303 304 304 304 304 304 304 307 311 311 311 310 311 311 312 313 314 314 315 318 318 319 321 325 323 325 327 327 326 323 320 322 323 324
295 295 297 299 300 300 302 301 303 303 305 305 306 306 306 307 306 308 307 308 310 309 311 310 310 312 312 312 315 317 317 316 317 320 320 322 326 322 325 324 321 319 321 323 323
294 295 296 297 297 298 299 299 304 305 304 303 304 306 307 307 308 307 306 307 308 310 310 310 312 310 310 313 313 317 317 317 317 320 322 325 322 323 326 322 320 318 321 322 319

GFSSW_925_thetae_081.txt.gz
Theta_e
305 305 305 306 306 306 307 307 305 302 301 303 306 306 302 301 299 302 305 302 308 306 309 312 314 315 315 313 312 307 311 310 313 314 314 314 315 314 314 314 314 319 330 328 334
304 304 304 304 305 305 305 305 304 304 305 303 301 304 301 302 305 306 304 309 308 310 310 310 310 311 313 313 313 313 310 311 311 312 313 314 313 312 314 314 314 319 331 333 334
304 303 303 303 304 304 304 303 303 304 304 305 304 304 301 305 307 302 311 310 310 310 311 310 308 308 313 313 313 313 314 311 312 313 313 313 311 311 313 313 314 314 325 332 332
302 303 303 303 303 303 302 302 302 303 303 304 304 305 305 305 298 309 308 307 308 309 311 317 310 306 306 311 313 316 313 315 314 313 313 313 313 312 311 313 314 312 322 332 332
302 302 302 303 303 303 302 300 300 301 303 303 303 304 306 306 305 304 305 304 306 311 318 316 310 307 307 307 309 313 315 314 314 313 312 312 313 313 314 312 312 310 328 331 331
303 303 302 302 302 302 300 299 299 299 300 302 303 304 305 305 301 302 305 305 305 313 315 312 314 311 309 309 309 311 312 312 313 313 313 314 314 312 313 312 311 309 315 330 330
303 302 301 301 301 300 298 298 298 297 297 301 303 304 305 305 302 301 302 302 306 308 307 308 307 306 307 308 311 314 314 313 313 313 312 313 314 312 311 310 311 310 314 325 328
303 302 300 299 297 298 298 299 298 302 303 304 304 305 307 305 305 307 309 308 307 308 308 309 310 306 305 307 311 315 314 316 314 313 313 312 317 315 312 310 310 310 308 320 325
303 302 301 299 297 297 298 299 305 306 307 304 306 307 308 307 310 311 309 307 309 310 309 309 307 306 306 308 310 313 315 314 314 314 313 311 315 314 312 311 311 310 309 308 320
301 300 300 298 297 297 298 303 307 308 307 307 308 309 309 309 310 309 306 309 309 312 310 308 304 305 307 309 311 314 315 313 314 314 314 314 315 315 314 314 311 310 310 307 316
300 301 299 298 297 297 300 303 303 305 304 306 309 311 310 310 308 307 307 305 309 312 312 310 307 307 305 308 310 313 314 315 314 314 315 315 315 315 315 314 313 315 314 310 315
300 300 301 297 297 297 297 301 300 300 302 305 306 306 306 307 307 307 307 305 312 314 313 314 311 309 307 307 307 309 311 312 313 314 315 314 315 315 315 315 315 314 315 310 321
300 299 297 297 296 298 297 299 298 299 304 306 305 305 306 306 306 305 306 305 310 313 313 314 315 314 311 309 312 313 316 313 314 315 314 315 317 315 315 315 316 316 313 311 322
299 297 296 297 297 297 297 297 298 301 305 305 307 306 306 306 306 305 305 305 305 312 312 314 315 317 316 318 317 319 316 316 313 318 318 319 322 320 318 317 317 317 312 312 322
299 297 297 297 298 297 297 297 299 303 301 302 308 307 307 306 309 305 306 305 307 314 313 314 315 316 317 317 317 316 317 316 317 318 319 319 323 319 317 318 318 318 314 311 320
298 297 297 298 298 297 297 298 302 304 303 304 310 309 308 309 310 306 306 307 309 313 313 311 311 314 314 314 314 316 316 316 316 320 322 318 320 319 317 318 319 319 315 312 318
297 297 297 298 297 298 297 299 303 304 300 304 306 306 309 311 311 307 308 310 311 314 314 312 312 312 313 315 314 316 318 317 318 320 320 318 319 318 317 319 319 319 317 313 320
297 297 296 296 296 298 297 301 302 298 300 303 305 305 308 311 311 308 306 308 310 309 310 312 312 311 313 313 315 316 318 320 324 323 324 317 320 318 318 319 319 319 317 314 319
296 295 296 295 296 297 296 300 300 300 302 303 304 309 310 309 306 309 307 307 308 309 310 312 314 312 313 313 314 319 321 319 325 323 328 322 324 319 326 320 322 321 318 316 322
295 295 295 295 296 297 296 298 301 300 300 300 304 308 309 308 306 307 310 315 313 309 309 312 314 312 317 314 315 316 319 325 320 325 328 325 325 330 329 326 323 319 318 318 326
295 292 294 296 296 298 298 296 298 298 299 302 304 307 308 308 306 306 315 314 312 311 311 313 313 313 317 318 318 320 318 320 323 323 329 331 331 327 327 325 324 321 320 323 326
294 289 296 297 296 295 298 297 298 298 299 299 302 303 306 307 306 308 314 315 312 312 313 313 315 314 313 313 316 318 318 321 325 328 325 325 323 326 323 322 323 321 322 321 325
293 295 294 296 296 298 297 298 297 298 298 298 302 304 304 306 306 307 313 311 310 310 312 311 313 312 309 314 318 319 319 318 320 321 323 323 322 323 322 321 322 321 324 322 324
294 293 289 293 290 292 296 298 298 298 299 300 300 300 300 304 305 306 310 311 310 310 311 309 310 311 311 310 314 314 316 316 316 322 324 322 323 324 323 321 322 322 324 323 323
294 291 291 288 294 296 295 294 298 298 299 299 301 303 303 306 306 304 309 311 310 311 310 308 309 311 311 311 312 313 314 314 315 316 319 317 322 324 323 322 322 322 322 319 317
292 294 294 292 297 297 297 301 301 299 303 302 303 304 305 307 307 308 307 308 310 308 309 309 309 310 310 309 311 313 310 313 314 316 317 317 319 320 323 322 322 320 319 316 315
293 293 297 294 296 297 297 299 299 300 303 303 304 304 306 306 307 306 306 306 307 309 310 309 309 310 307 307 308 311 314 316 317 317 315 318 318 323 324 324 322 321 315 311 310

GFSSW_925_thetae_084.txt.gz
Theta_e
305 305 304 304 304 304 305 305 305 305 305 305 305 305 305 303 300 303 305 301 304 306 308 313 314 314 313 312 309 305 308 307 309 311 311 312 314 313 313 313 313 315 322 326 329
305 304 304 304 304 304 304 303 303 304 304 304 304 305 305 301 305 305 306 302 304 308 311 310 309 312 312 312 311 310 309 308 308 309 310 311 313 313 313 313 312 313 318 330 333
304 304 304 303 303 304 304 303 303 303 304 304 304 304 304 303 305 300 311 310 308 309 310 309 308 310 312 312 313 313 312 309 311 310 311 311 310 310 312 311 312 313 313 330 331
304 304 303 303 303 303 303 301 302 302 303 303 304 304 304 304 297 308 307 307 309 310 311 314 309 306 307 310 312 314 313 313 312 312 313 312 311 312 310 312 313 311 311 324 331
303 303 303 303 303 302 301 299 301 302 303 303 303 303 303 304 304 301 304 303 304 311 314 316 309 306 306 306 308 312 314 313 313 312 311 311 312 313 312 310 310 309 310 317 328
303 303 303 302 302 302 299 297 298 298 300 303 304 304 304 302 302 301 303 303 303 313 314 314 313 308 308 308 307 308 309 309 310 311 311 313 314 312 313 310 310 309 308 312 323
303 303 302 302 301 299 298 297 297 300 302 304 305 304 304 302 300 301 302 302 302 309 309 308 308 306 306 306 308 311 312 312 312 311 311 311 313 312 312 310 310 309 308 307 318
302 302 300 300 298 298 297 296 301 303 307 307 306 304 306 302 302 305 305 307 307 305 306 308 307 307 305 305 308 312 312 314 312 312 312 311 315 313 311 310 311 308 307 307 312
301 301 300 299 298 297 296 300 303 307 306 305 305 305 306 305 308 308 310 307 306 307 306 308 306 306 305 307 306 309 310 312 313 313 313 311 314 313 312 310 309 308 307 307 307
301 301 301 299 298 296 297 302 304 308 307 308 307 307 306 307 310 310 306 308 308 309 307 307 304 304 304 305 307 308 312 313 314 312 312 312 313 313 312 312 313 311 309 308 306
300 300 300 298 296 296 297 301 300 301 300 302 304 309 308 308 308 307 307 306 306 311 311 307 306 306 305 307 308 310 311 310 309 310 312 311 312 313 312 311 310 310 310 310 309
300 300 299 297 296 297 297 299 298 297 300 300 301 302 303 304 306 306 306 305 311 313 311 313 309 306 305 305 306 307 307 308 309 310 311 312 313 313 312 312 313 311 311 311 310
299 299 298 297 296 296 297 298 297 298 299 303 304 304 305 305 306 305 305 305 307 313 313 314 314 313 310 310 309 309 311 313 314 314 311 312 314 312 312 313 313 312 312 312 311
299 298 296 296 296 297 296 296 296 299 304 303 305 305 305 305 307 304 305 305 305 311 313 313 311 314 312 312 310 316 315 316 315 315 315 315 319 313 314 315 315 314 313 313 311
298 298 296 297 298 297 297 297 297 301 303 299 304 305 305 305 305 305 304 304 306 311 313 312 315 317 317 316 315 316 316 317 316 316 316 315 317 314 314 315 315 314 313 313 311
298 298 297 296 297 297 297 297 300 303 301 301 304 304 305 307 308 305 304 307 307 313 313 310 311 312 311 313 314 314 315 315 315 317 318 314 316 315 315 315 315 315 315 315 312
297 296 296 297 296 297 297 297 300 302 299 298 304 303 305 305 309 306 307 311 311 312 313 312 312 312 313 313 313 314 316 315 316 321 319 314 316 316 315 315 315 316 316 315 313
295 294 293 294 295 295 296 298 299 296 298 301 301 304 309 308 308 309 307 308 309 308 310 311 310 311 312 312 314 315 316 317 321 321 321 319 316 316 323 322 321 320 317 315 312
294 294 294 295 295 296 293 297 297 300 300 300 300 308 307 308 308 306 306 306 307 308 310 311 312 311 313 312 313 317 319 317 321 319 323 321 319 322 324 323 322 321 320 320 316
294 295 294 295 296 296 295 296 298 298 298 300 301 307 307 307 308 307 309 311 310 308 308 311 312 312 315 313 313 315 318 324 321 320 323 321 322 327 325 323 322 322 321 323 320
294 291 293 295 296 298 294 296 296 296 297 299 301 301 304 305 307 308 311 313 311 310 310 311 312 313 316 317 316 318 319 320 320 323 324 322 323 326 325 322 322 322 323 323 319
292 290 296 297 295 294 291 296 297 297 297 297 300 301 302 304 304 308 311 314 310 311 314 313 313 313 312 311 314 316 316 316 323 322 322 320 320 325 325 320 321 321 322 322 323
291 291 293 295 287 290 297 297 297 297 297 297 298 299 304 302 303 306 309 311 312 311 313 312 312 310 307 312 316 318 317 317 316 319 322 326 320 321 320 321 319 320 321 319 322
289 292 288 294 288 292 295 296 296 297 298 298 299 299 300 301 301 304 307 309 310 310 311 308 310 309 308 308 310 310 312 313 316 316 314 319 318 315 320 321 320 322 319 317 319
291 289 290 291 292 293 296 296 296 297 297 298 299 299 299 303 306 306 307 310 310 310 309 306 309 310 309 309 310 310 310 311 313 313 315 312 314 315 317 321 321 320 316 315 315
290 293 294 290 293 294 296 296 297 298 300 300 300 299 301 304 305 308 306 307 310 308 309 308 309 309 310 308 308 310 308 306 307 309 312 313 315 314 316 322 321 315 312 312 310
293 293 294 293 294 292 294 296 298 299 299 300 302 303 304 305 303 305 306 306 307 308 308 308 306 306 305 305 307 306 309 313 312 313 314 317 315 318 321 323 320 313 308 307 306

GFSSW_925_thetae_087.txt.gz
Theta_e
305 305 305 305 304 304 304 304 304 304 304 304 305 305 305 304 297 302 305 300 302 302 306 314 312 313 312 313 310 307 312 312 312 312 312 313 314 314 313 315 314 315 320 321 330
305 305 305 304 304 304 304 303 303 303 303 304 304 305 305 299 304 304 307 309 301 306 306 314 313 313 315 314 313 313 313 312 310 312 312 312 313 314 314 315 315 315 316 321 332
304 304 304 304 304 304 303 302 302 303 303 303 304 304 304 301 303 300 309 309 305 309 309 310 309 313 313 314 314 314 314 311 311 311 311 312 311 312 313 314 314 315 316 322 325
304 304 304 304 303 303 302 298 301 302 302 303 304 304 304 303 298 307 305 304 312 308 311 311 307 309 310 313 314 314 313 313 312 312 313 313 313 313 313 314 315 315 316 314 319
303 303 303 303 303 302 301 298 298 298 300 302 304 305 302 302 300 299 302 303 303 313 312 315 308 307 308 307 309 314 314 314 314 314 314 314 314 315 315 314 315 314 312 314 315
303 303 303 303 302 301 300 296 295 298 301 303 305 305 304 301 299 301 301 302 303 312 313 315 313 309 308 308 309 309 310 311 311 312 312 313 314 314 314 314 315 314 314 314 315
300 301 302 302 301 300 296 295 297 301 304 307 306 305 304 303 299 300 300 301 302 303 312 312 313 308 308 308 308 310 310 312 313 314 314 313 313 314 315 315 314 315 316 315 315
301 301 301 299 298 296 295 295 300 302 307 306 306 305 306 304 303 303 304 305 304 303 304 307 307 307 307 307 308 310 311 312 313 313 313 314 314 314 314 314 314 314 314 314 314
301 300 300 299 296 296 295 299 301 305 306 306 305 305 306 303 307 309 309 308 307 306 305 306 307 308 306 308 308 308 309 313 313 313 314 314 315 313 314 315 315 315 315 314 313
300 300 300 299 296 296 296 301 304 306 301 307 306 306 306 308 309 308 306 308 307 306 306 307 307 308 307 308 306 306 309 312 313 314 312 312 312 312 313 313 315 315 316 316 315
300 299 299 296 296 296 298 299 298 300 297 298 300 301 301 300 303 306 307 306 306 310 307 307 309 309 308 309 307 309 311 311 310 309 309 310 311 312 312 313 314 314 315 316 316
299 299 296 296 296 296 298 297 296 295 299 299 300 300 300 301 302 303 304 306 309 311 311 311 311 309 308 307 308 308 308 309 310 309 312 314 315 314 314 313 313 314 315 316 316
298 298 296 296 296 296 297 296 297 296 300 301 302 302 303 303 303 303 303 305 307 311 313 313 313 311 308 308 308 308 310 311 313 314 315 314 315 314 313 313 313 313 314 315 316
298 298 297 295 296 297 295 297 297 297 303 300 303 304 304 305 306 305 304 306 307 309 313 313 312 314 312 312 311 313 312 313 316 317 315 315 316 313 314 315 315 316 316 315 315
297 296 297 296 296 296 297 296 297 299 296 299 302 305 305 305 305 306 304 305 307 310 313 312 315 315 315 315 312 316 316 316 315 317 317 316 318 315 315 316 317 317 317 317 317
297 293 297 297 296 296 295 296 299 300 297 298 301 300 300 303 307 305 304 305 305 312 313 310 311 314 314 314 315 315 314 315 316 316 319 316 317 316 316 317 321 322 320 317 318
294 293 294 295 295 295 295 297 300 297 298 298 301 300 300 309 309 308 305 304 310 309 312 313 313 312 313 314 314 314 316 319 319 319 317 315 317 317 316 323 324 324 322 322 320
293 293 293 294 294 295 296 298 294 295 297 300 299 300 300 308 308 309 309 305 309 308 309 311 312 313 313 313 315 315 316 317 317 321 320 319 320 317 324 322 322 322 323 324 325
293 293 294 294 295 296 295 296 295 300 299 298 299 301 306 305 305 307 307 309 308 309 311 311 313 311 313 313 314 317 318 317 320 319 320 318 320 318 323 323 322 323 323 324 324
294 293 293 295 296 295 295 295 296 296 296 296 298 302 302 301 299 304 307 310 308 309 309 311 316 313 314 313 313 316 317 320 319 320 321 319 320 321 326 324 322 323 324 324 323
293 293 294 295 296 296 295 296 296 295 296 297 298 298 298 299 301 303 306 311 312 310 310 311 313 315 316 316 317 318 318 317 320 322 323 323 320 326 324 321 323 322 322 323 322
291 291 295 294 294 295 296 296 296 296 296 296 297 298 298 299 304 304 305 306 304 309 313 313 313 314 313 311 314 316 316 316 318 321 321 321 321 322 316 319 320 322 321 320 319
291 292 293 294 291 293 294 295 295 296 296 297 297 297 297 299 300 300 305 306 303 307 314 312 312 309 316 316 316 316 317 313 313 313 318 321 320 320 312 315 318 321 319 317 316
290 290 290 294 290 294 295 295 296 296 297 297 297 298 298 299 299 301 302 305 303 310 310 310 311 308 307 309 311 312 311 310 314 314 312 313 312 312 311 312 317 318 316 314 312
290 290 291 291 293 295 293 294 296 297 297 297 298 298 298 299 303 303 305 306 306 309 310 309 311 311 310 309 310 310 310 310 311 310 310 308 309 310 312 313 318 314 312 310 308
292 292 294 293 293 291 294 295 296 297 298 298 300 298 299 300 302 305 307 307 308 309 310 309 310 310 309 308 307 307 307 307 307 308 309 310 313 313 314 316 316 312 309 306 304
293 293 293 292 294 293 293 295 297 298 298 298 298 301 301 302 304 305 305 306 307 308 309 309 309 310 308 306 307 305 307 308 309 311 314 313 313 311 316 314 312 308 305 302 300

GFSSW_925_thetae_090.txt.gz
Theta_e
305 305 305 305 305 305 304 304 303 304 304 304 305 305 305 299 298 305 306 305 304 303 304 316 312 312 312 315 316 315 316 317 316 315 315 315 315 316 316 317 317 318 319 321 325
305 305 305 305 304 304 304 303 303 303 303 304 304 305 305 297 305 305 307 310 310 306 307 312 314 315 314 314 315 316 318 318 318 316 316 316 315 315 316 316 316 317 317 317 320
305 305 304 304 304 304 304 301 300 302 302 303 304 305 304 301 306 304 306 309 304 303 312 310 311 316 316 316 316 316 317 318 316 315 316 316 316 315 315 315 315 316 316 317 321
304 304 304 304 304 303 303 299 298 300 300 301 303 305 305 305 303 310 305 303 310 314 312 311 311 314 314 315 316 317 316 316 316 315 315 315 315 315 315 316 316 316 316 317 318
303 303 303 303 303 303 302 299 296 296 299 302 305 306 305 304 303 301 300 303 309 313 312 312 311 311 311 311 313 315 314 314 315 315 315 315 315 316 317 317 317 317 317 318 318
299 300 302 302 302 301 300 297 295 298 300 304 307 306 307 304 301 302 302 303 304 311 312 312 313 312 311 311 311 313 313 314 314 314 315 315 316 316 317 317 317 317 318 318 319
300 300 299 298 297 296 296 295 297 299 302 306 307 307 308 305 304 303 303 303 303 305 311 311 313 315 313 314 314 313 314 315 315 315 316 316 317 318 317 317 317 318 318 318 319
301 300 297 297 296 296 295 296 299 302 306 306 306 307 308 306 305 307 309 308 306 304 304 306 309 312 313 311 311 311 312 313 313 314 315 316 315 316 316 317 317 318 318 318 319
300 300 298 298 296 296 295 298 302 306 303 307 307 308 307 305 309 311 310 310 309 308 305 305 308 310 309 310 310 310 310 311 312 314 315 316 315 316 317 317 317 318 318 319 319
300 299 299 298 296 296 297 299 301 305 302 305 307 308 308 307 303 308 305 309 310 309 308 305 308 309 309 309 309 308 308 309 311 312 314 314 314 315 315 314 314 315 317 318 319
298 298 298 297 296 298 299 300 301 304 299 301 301 301 301 301 301 302 303 307 309 309 308 306 308 310 310 309 309 308 309 310 312 312 310 311 311 311 313 314 315 315 316 316 317
297 297 297 296 296 297 298 300 299 298 301 301 301 302 301 302 304 306 303 306 308 311 309 308 309 308 309 309 309 309 308 307 308 310 312 313 314 316 315 315 316 316 316 317 317
296 297 296 295 296 298 298 298 298 298 302 303 303 304 305 304 306 307 305 304 306 309 313 310 311 309 309 310 311 311 310 311 310 311 314 316 316 315 316 316 316 316 317 317 317
295 295 295 295 298 298 298 298 298 299 305 301 303 307 304 306 308 305 307 307 304 305 310 313 312 313 312 312 310 311 310 311 311 315 317 316 314 313 314 315 317 319 321 321 320
295 296 294 295 298 298 297 297 298 302 300 300 303 306 303 302 304 305 307 307 308 306 310 312 313 312 313 312 311 311 315 315 316 317 316 316 318 315 315 317 320 322 324 324 323
295 294 293 297 297 297 297 298 302 305 298 299 300 302 301 300 303 306 307 306 306 307 309 310 313 313 313 312 314 315 317 316 315 315 319 316 317 314 318 320 323 325 325 326 325
294 293 295 296 297 296 297 301 302 298 297 298 301 300 300 300 304 308 308 308 308 307 310 310 311 314 314 317 315 315 314 318 320 320 316 317 317 316 318 325 326 326 326 326 327
293 294 294 296 296 295 299 300 297 295 297 300 300 299 299 304 304 308 309 308 308 308 308 312 312 312 314 314 314 315 315 316 315 316 316 317 320 320 324 324 324 324 324 325 326
293 296 296 297 297 298 299 299 296 298 299 298 298 298 301 304 301 302 304 307 308 308 307 308 309 311 313 312 314 316 319 316 319 318 320 316 317 322 323 324 323 323 323 324 326
296 296 297 296 297 299 299 296 296 296 296 296 296 298 301 301 300 301 302 309 311 311 311 312 311 313 314 314 316 317 316 320 320 321 320 317 318 321 325 322 321 322 323 324 325
296 297 297 296 298 298 298 296 297 297 297 297 297 297 297 298 298 299 302 304 304 308 308 313 314 317 316 317 317 318 318 319 320 321 324 319 321 326 321 318 318 321 322 323 325
296 298 296 295 298 297 297 296 296 296 297 297 298 298 299 300 302 303 305 304 305 304 306 313 314 317 316 316 315 316 316 318 320 323 320 321 320 321 319 314 313 317 321 321 318
297 296 295 296 297 297 296 296 296 297 297 297 298 298 298 298 299 301 302 304 303 304 310 314 314 316 316 315 315 316 318 316 315 315 319 320 319 321 314 312 314 316 320 318 314
297 298 296 297 296 296 296 296 297 296 297 298 298 299 299 299 299 300 300 302 302 303 305 311 313 311 312 314 315 316 314 313 315 317 314 315 313 311 311 315 317 318 318 315 310
296 297 296 297 297 296 296 296 297 298 298 298 300 300 300 301 299 301 304 306 304 306 310 312 313 311 310 310 309 309 309 310 312 311 311 309 310 311 314 316 316 318 315 312 307
297 296 295 295 295 296 296 296 297 298 298 299 300 300 299 302 301 301 304 305 310 308 308 309 311 310 308 308 308 308 307 308 308 308 310 311 313 311 314 314 316 311 309 308 304
295 294 295 295 295 296 297 296 296 298 297 298 300 301 301 301 302 302 303 305 306 308 308 309 310 307 308 306 306 306 307 308 308 309 311 313 313 312 313 313 310 308 304 303 300

GFSSW_925_thetae_093.txt.gz
Theta_e
306 305 306 306 305 305 305 305 303 304 304 304 305 305 300 297 298 307 309 308 308 307 302 308 316 316 314 315 320 319 320 321 321 320 320 319 317 318 318 318 318 319 319 323 323
305 306 305 305 305 305 305 304 301 303 303 304 304 305 304 301 307 309 308 307 309 307 309 309 314 314 316 317 319 320 321 320 320 320 320 318 318 318 317 317 318 318 319 319 319
305 305 305 305 305 305 304 303 302 302 302 301 302 305 302 305 310 310 309 309 306 306 311 309 312 314 316 316 317 319 320 320 320 320 320 319 319 319 318 318 318 318 318 319 318
304 303 304 304 304 304 303 302 302 301 299 299 302 305 303 309 309 312 306 304 309 313 314 314 312 312 316 316 317 319 318 319 319 319 319 318 318 318 318 319 318 318 318 318 318
300 298 299 302 302 302 302 300 298 297 298 299 303 305 308 309 308 305 300 303 309 314 315 315 315 314 314 315 315 317 317 317 318 317 318 318 317 318 318 319 319 319 318 319 318
299 298 298 300 301 299 299 296 296 296 299 300 305 307 310 309 304 304 304 304 305 310 312 314 314 314 314 314 314 313 313 314 314 315 316 316 317 318 318 319 319 319 319 320 320
300 299 297 296 296 296 296 295 296 298 300 305 306 308 309 309 306 306 306 306 305 305 309 311 313 315 316 316 315 316 316 316 316 315 316 317 318 318 318 319 319 319 320 320 320
301 299 297 296 296 296 295 296 297 301 305 305 306 309 310 307 306 307 310 310 309 305 305 307 310 314 315 316 315 312 313 313 313 313 314 316 318 317 318 319 319 319 319 320 320
298 297 298 298 295 296 297 299 300 304 304 306 311 310 311 306 310 309 310 311 310 311 308 305 306 309 310 312 312 313 311 311 312 313 313 315 316 317 318 318 318 319 320 320 320
297 298 299 297 295 296 300 299 301 306 305 306 308 310 310 308 305 303 304 308 310 312 311 307 307 308 309 311 311 309 309 310 311 311 313 315 316 316 316 317 317 317 317 318 319
298 299 298 297 296 298 301 303 304 308 303 303 304 304 303 305 306 307 305 303 306 311 312 311 307 309 310 311 310 310 310 310 309 311 313 313 313 312 313 313 313 315 316 316 316
297 297 296 294 296 299 301 303 301 301 304 304 304 304 304 305 307 309 306 305 306 310 311 311 310 309 310 311 310 310 310 312 310 309 310 310 313 313 314 315 316 316 317 317 317
296 295 293 294 298 301 301 300 300 301 305 305 305 307 308 307 309 309 309 308 307 306 308 311 311 310 309 310 310 311 312 311 310 310 312 313 313 315 316 317 316 316 317 318 318
296 294 292 297 300 300 301 299 300 303 308 306 304 308 307 306 307 308 305 309 310 308 306 309 311 311 313 311 311 312 311 310 311 312 312 317 316 316 316 316 316 318 321 324 325
295 293 293 295 299 301 299 299 300 305 306 302 304 308 306 303 303 305 307 307 308 310 310 306 306 311 313 312 311 312 311 311 312 313 314 316 317 315 316 314 318 321 324 325 326
295 293 297 299 300 299 298 300 303 311 303 302 302 304 303 303 302 302 305 308 308 308 309 309 307 311 312 314 313 312 313 315 316 316 319 316 315 316 317 320 323 325 325 326 326
294 293 297 298 300 298 299 303 306 304 301 301 302 302 302 301 300 302 306 307 307 309 310 309 307 313 312 312 313 314 317 319 318 317 315 315 316 316 320 324 325 325 325 326 327
293 296 296 298 299 299 301 304 302 300 299 301 301 300 300 300 301 303 304 305 307 307 310 311 308 312 313 313 314 314 315 316 316 317 317 316 317 316 323 323 323 324 325 325 326
296 299 299 299 300 300 303 304 302 300 299 299 298 299 300 303 307 303 303 304 305 310 312 310 310 310 313 312 313 314 317 314 317 319 322 320 318 324 322 323 322 322 323 324 325
299 299 299 299 300 301 302 300 299 298 298 298 298 298 299 300 300 301 301 306 308 308 307 316 314 312 312 311 312 314 313 317 319 319 317 314 314 326 325 322 319 319 322 323 323
299 301 299 298 300 301 302 299 298 298 297 298 298 298 298 299 300 301 300 302 307 307 306 310 317 315 313 313 312 313 318 317 317 317 319 319 322 325 320 317 316 317 320 322 322
299 303 298 298 302 300 300 297 297 298 298 298 299 299 299 300 300 300 302 304 306 304 307 308 317 318 313 313 312 313 315 317 319 320 318 322 324 320 319 315 316 318 320 320 319
300 300 297 300 301 299 298 297 297 298 298 298 298 299 299 300 300 300 301 303 303 305 308 308 318 321 319 318 317 316 315 316 318 318 321 320 319 319 313 314 317 318 320 319 316
301 301 299 299 299 299 298 298 298 299 299 299 299 300 300 301 302 301 301 301 303 304 306 306 310 319 318 317 318 318 317 317 317 319 316 317 315 314 313 315 316 320 318 318 313
301 300 298 300 300 299 298 298 299 299 300 299 300 301 302 303 302 302 303 306 305 306 307 308 317 314 315 314 314 315 315 314 315 314 312 312 311 312 315 316 317 316 315 313 309
301 300 298 299 298 298 299 298 298 299 299 300 300 301 302 302 301 302 302 304 308 309 308 310 314 311 310 309 309 309 309 309 310 310 309 311 312 314 313 313 313 312 309 308 304
297 297 299 296 298 299 299 298 298 300 299 299 301 302 303 304 304 304 305 305 306 309 310 311 309 310 309 307 306 307 307 308 308 311 313 315 313 312 311 310 303 302 303 301 301

GFSSW_925_thetae_096.txt.gz
Theta_e
305 306 306 306 306 306 306 306 305 303 302 303 303 300 299 301 303 308 310 311 310 310 309 306 307 316 315 316 320 320 321 322 321 321 322 322 321 321 319 319 319 320 320 323 328
304 306 306 306 306 306 305 305 305 303 301 302 301 300 300 303 307 310 311 309 308 308 308 307 308 315 316 317 316 318 323 321 320 320 321 321 320 320 319 318 318 319 320 320 322
305 306 306 306 305 305 305 304 303 302 301 300 299 300 304 306 312 313 309 308 309 308 310 312 309 312 314 314 316 316 320 321 320 320 320 320 320 320 319 318 319 320 320 321 321
304 304 302 303 303 303 303 301 298 296 296 297 298 300 306 310 311 312 307 306 307 310 310 313 315 311 312 314 316 316 317 319 319 319 319 319 320 320 320 321 320 320 320 320 320
301 299 299 301 302 302 298 296 296 296 296 297 299 302 309 313 312 307 303 302 305 313 315 316 315 314 312 312 313 315 316 316 318 318 318 319 318 319 319 319 319 319 319 319 319
299 299 298 299 299 296 296 295 295 295 296 298 300 306 309 311 307 306 305 305 305 307 313 313 314 314 314 314 314 314 315 314 315 316 316 316 316 317 317 318 318 319 318 319 320
299 300 298 298 296 295 295 296 296 297 298 301 304 309 310 310 308 308 307 307 306 305 307 309 312 313 314 315 315 314 314 313 314 314 314 315 315 316 317 317 317 318 319 319 319
299 299 298 296 296 295 295 298 299 299 302 303 305 310 313 310 308 307 307 309 310 309 306 306 307 310 313 314 314 315 315 315 315 316 316 316 317 316 316 317 318 318 319 319 320
299 298 297 296 295 295 296 299 300 300 303 303 311 314 312 309 306 311 310 311 311 311 311 309 306 307 311 313 314 314 315 315 314 313 313 313 314 314 315 316 316 318 320 319 320
298 297 297 296 294 297 300 302 302 301 308 308 310 310 311 309 306 306 305 304 308 308 311 311 308 307 307 310 313 313 312 313 313 312 312 312 314 314 315 316 318 318 319 318 319
297 296 296 294 294 300 301 305 305 308 308 306 306 311 309 305 305 307 308 308 306 305 308 312 310 308 308 309 309 310 311 312 312 311 312 313 313 312 315 315 313 314 316 316 317
296 295 293 293 295 301 303 304 302 301 303 304 304 304 304 304 305 308 308 307 305 305 305 309 313 311 309 308 309 311 311 312 312 311 311 310 311 311 311 312 313 313 313 314 315
295 294 292 293 298 302 303 301 301 303 305 305 307 306 306 306 307 308 308 308 309 308 307 307 309 311 311 310 308 311 312 311 311 311 310 311 310 312 313 314 314 314 315 316 317
295 293 293 295 300 302 304 301 301 304 307 308 305 306 308 308 306 307 308 307 306 307 309 309 308 306 308 311 310 310 311 311 312 311 311 310 313 312 315 316 315 315 316 318 323
294 293 294 297 303 303 301 300 301 306 314 306 306 308 307 306 304 304 305 304 302 305 307 308 308 309 307 309 311 311 311 311 312 312 312 312 313 313 315 315 316 321 324 325 326
294 293 296 301 302 301 300 301 304 312 314 304 303 304 304 304 304 303 302 303 303 305 307 307 307 308 309 307 311 313 311 312 312 313 315 313 314 314 315 316 320 325 325 326 327
294 294 298 299 302 300 301 304 309 310 303 303 303 303 302 301 301 301 301 301 301 307 308 309 308 310 309 305 312 314 314 318 320 319 319 314 314 315 315 324 325 324 325 326 327
293 296 298 300 301 301 303 306 306 304 302 302 301 300 300 301 303 305 304 303 304 307 310 312 311 309 310 311 315 316 315 319 320 320 318 314 315 318 318 323 323 324 324 325 325
294 300 301 301 301 302 305 307 305 302 300 299 299 300 300 301 301 303 303 302 303 309 311 310 310 310 310 312 313 317 318 318 320 317 322 325 315 322 321 323 322 322 323 324 323
298 301 301 300 300 303 306 305 301 300 299 299 298 299 300 300 300 300 301 302 302 308 306 307 310 311 311 311 313 316 315 317 318 327 326 327 322 327 325 322 318 318 322 322 320
298 302 301 300 301 305 306 302 299 298 298 298 298 299 299 299 301 302 302 302 307 306 305 305 309 311 314 314 315 313 317 316 317 319 322 322 326 324 320 316 317 320 321 321 318
302 305 300 300 305 302 303 299 297 298 299 299 298 299 299 300 300 301 301 301 304 305 304 306 314 313 318 314 314 311 315 318 319 319 318 324 327 320 318 315 319 320 320 318 315
303 302 298 302 306 302 300 299 298 299 299 299 300 300 300 299 301 300 301 301 304 304 305 307 310 315 316 316 314 312 312 315 318 318 323 324 326 317 316 318 318 317 316 315 312
304 304 301 302 299 300 300 299 299 299 300 301 300 300 302 303 302 303 303 303 305 306 305 306 307 308 313 316 314 314 314 317 319 320 319 319 320 317 315 316 315 314 313 312 309
303 304 301 303 301 300 299 300 300 300 300 299 301 300 301 302 302 301 304 305 304 305 307 308 311 312 313 313 318 319 318 318 318 317 315 313 315 314 313 313 311 309 309 307 304
302 302 297 300 300 300 301 300 300 300 300 300 302 301 301 303 303 303 303 304 307 308 309 309 315 314 315 316 316 317 315 316 312 312 311 312 313 310 309 305 304 302 301 300 298
299 298 300 299 300 301 303 299 300 301 300 300 301 301 302 304 303 303 304 305 306 307 311 311 313 313 310 307 309 311 309 309 314 312 312 313 310 306 306 300 297 296 295 295 294

GFSSW_925_thetae_099.txt.gz
Theta_e
305 306 307 307 307 306 306 306 306 303 301 302 298 296 298 302 302 304 308 308 311 311 311 308 306 306 312 312 313 317 320 321 319 319 319 319 320 319 317 316 317 318 318 328 331
304 306 307 307 307 306 306 305 303 300 300 300 301 297 298 303 306 309 307 309 310 307 307 307 304 305 312 313 311 312 316 320 317 317 318 318 316 315 317 316 316 317 318 328 330
305 306 306 305 304 304 304 303 299 298 299 301 300 301 298 305 311 313 311 311 310 308 308 310 311 306 308 311 313 312 314 313 315 318 318 317 316 316 316 316 316 317 317 317 319
303 304 302 302 303 303 303 299 296 296 297 301 300 301 301 309 309 311 307 308 306 306 311 310 311 311 308 307 309 311 313 313 313 315 317 317 316 316 316 317 316 315 316 317 317
302 300 300 302 302 301 299 296 297 295 295 295 298 302 306 310 313 310 307 303 303 307 312 313 313 313 311 308 308 310 310 312 313 314 314 314 315 316 316 314 314 315 315 315 315
300 299 300 300 298 295 295 295 295 296 297 297 299 304 309 307 306 306 305 305 305 306 311 313 312 311 312 312 310 311 311 310 311 313 311 313 314 313 315 312 313 314 314 314 314
299 300 300 300 296 295 295 295 296 298 299 299 304 308 309 308 307 309 307 306 306 306 304 305 306 306 308 311 312 312 312 312 311 310 310 311 311 311 311 312 313 314 314 314 314
300 300 299 297 295 295 294 295 297 299 299 302 305 309 309 309 309 309 306 307 307 307 307 307 306 304 305 307 310 311 311 312 313 312 312 311 313 312 312 312 313 313 314 315 316
301 300 298 296 295 294 297 300 300 301 301 302 307 310 315 310 309 306 307 307 306 310 310 310 308 303 303 305 308 310 312 312 312 312 312 310 312 312 311 313 313 313 313 314 315
301 299 297 295 294 294 300 302 303 303 303 307 308 311 312 310 305 305 306 306 305 304 303 306 308 307 302 302 307 310 312 311 312 312 311 311 310 310 309 310 310 310 311 312 314
299 297 295 293 293 297 301 303 302 305 306 309 309 309 309 307 303 304 305 307 307 304 301 302 307 310 304 303 305 306 308 307 308 309 310 310 307 308 309 310 309 310 308 308 312
298 295 293 292 294 300 302 302 301 300 301 302 302 302 303 303 303 303 306 307 306 304 302 302 303 306 309 307 306 306 306 306 307 309 310 308 307 306 307 307 308 308 308 308 308
296 294 292 292 297 301 302 301 301 303 302 303 304 305 306 304 303 305 307 307 307 306 307 306 305 307 307 309 310 309 307 306 307 309 308 308 309 307 309 309 309 310 309 310 309
294 292 293 294 302 302 302 300 301 304 305 307 306 306 308 307 306 306 306 305 306 305 305 305 307 307 307 307 306 305 309 308 307 309 310 309 310 308 308 310 310 311 313 311 310
293 293 294 297 298 302 300 300 301 305 315 308 307 307 307 305 305 304 303 302 301 301 301 301 302 304 306 306 307 308 307 311 309 309 310 309 308 309 310 311 312 315 311 312 313
294 293 295 300 301 300 300 300 303 311 315 303 306 306 303 303 302 301 301 301 301 300 300 300 303 305 307 307 306 306 308 312 313 311 312 312 311 310 311 312 314 322 325 325 324
294 294 296 299 301 301 300 302 309 313 304 302 301 300 300 300 301 301 303 302 301 301 303 305 306 306 307 307 308 309 309 315 317 317 315 312 312 312 313 313 320 326 323 322 321
293 295 299 301 298 301 302 305 307 305 301 300 299 300 300 300 301 301 301 302 301 306 308 308 308 306 307 307 311 309 310 317 317 318 316 313 314 314 313 315 323 323 321 320 319
294 299 300 301 299 302 303 307 304 300 299 298 298 299 299 299 299 299 300 299 302 307 307 307 304 304 304 309 311 313 315 310 318 319 322 321 320 322 321 323 321 322 319 318 315
298 301 301 297 300 303 305 306 301 299 298 297 297 298 298 298 299 300 302 302 303 306 305 307 306 304 305 309 313 314 314 317 319 322 323 326 326 324 320 319 321 320 316 314 311
297 301 301 299 302 303 303 304 299 298 298 297 298 298 298 299 299 300 300 301 302 305 304 303 306 306 308 312 314 315 315 316 318 318 325 326 326 313 317 322 321 316 313 310 307
299 302 300 301 303 303 302 299 297 298 299 299 298 299 300 300 300 300 301 300 301 303 303 306 308 308 308 308 312 314 314 316 317 319 319 322 321 314 317 318 315 314 312 308 305
301 299 298 302 303 301 300 299 298 299 299 299 301 301 300 301 301 302 303 303 304 304 303 305 307 305 307 313 313 315 314 315 318 317 321 323 320 315 316 311 310 309 307 304 302
301 301 299 300 298 300 300 301 299 300 300 300 299 299 301 302 302 303 303 303 304 304 305 305 307 305 306 309 310 313 314 316 318 319 322 321 317 313 310 306 304 303 301 300 298
300 302 300 302 299 298 299 300 300 300 300 299 300 301 301 301 301 301 302 302 303 304 305 306 309 308 307 307 309 310 313 318 320 317 320 314 309 309 303 302 299 299 298 297 296
298 301 295 299 299 297 300 301 300 300 300 300 301 300 300 301 302 304 303 304 305 306 308 307 310 313 315 314 315 317 317 314 312 312 312 311 307 304 300 297 296 295 294 294 293
299 298 298 299 298 299 301 301 299 299 300 300 300 302 301 302 302 302 302 302 303 304 305 310 311 314 316 314 314 317 313 309 306 305 307 307 302 302 297 295 293 292 292 291 291

GFSSW_925_thetae_102.txt.gz
Theta_e
304 302 303 306 306 306 306 305 301 299 301 302 302 301 300 299 298 303 305 301 309 310 310 310 306 306 307 309 312 313 315 317 317 318 318 317 318 318 316 315 315 314 316 322 335
303 304 304 307 306 303 302 303 297 295 296 300 299 300 297 301 305 308 309 304 308 309 307 307 305 303 305 310 310 310 313 319 317 316 317 317 316 315 316 315 316 315 316 329 335
304 303 304 304 302 299 300 298 296 296 298 299 301 299 297 305 309 312 311 308 309 309 308 308 309 309 304 311 311 310 314 315 314 313 313 314 315 315 316 315 317 316 315 315 321
303 302 303 302 300 300 299 297 295 296 297 298 300 301 299 309 300 311 307 309 308 306 308 310 309 310 307 305 307 313 312 312 312 312 311 313 313 314 314 315 316 314 314 314 316
303 301 301 299 300 298 296 296 295 295 296 298 300 301 304 309 310 305 307 306 303 303 309 311 311 312 312 309 306 306 308 308 309 311 312 312 312 314 314 313 312 312 313 313 312
302 301 299 299 298 297 295 295 295 295 296 299 300 303 308 305 302 307 306 304 305 306 310 311 313 310 310 309 309 309 309 309 308 307 308 310 311 310 312 312 310 311 310 311 311
302 300 300 299 297 295 295 295 295 295 297 299 303 307 309 305 306 306 307 305 306 306 304 305 304 304 303 304 307 308 308 309 310 309 309 309 309 310 309 310 310 310 310 311 310
301 300 301 298 296 295 295 294 296 299 299 300 304 309 307 302 307 310 308 306 306 306 306 307 307 304 303 303 304 306 308 309 311 310 310 309 312 311 309 308 309 310 311 312 312
302 301 301 297 295 294 293 298 301 301 302 301 306 309 311 311 310 310 309 306 305 305 305 305 307 305 304 302 301 306 306 307 308 310 310 310 311 311 309 310 311 311 312 312 312
303 302 300 296 294 293 296 301 303 303 302 306 307 309 311 309 304 304 305 305 305 305 303 303 303 307 300 300 302 305 308 306 308 308 309 309 310 310 311 309 308 308 308 309 311
303 301 298 294 293 294 299 303 299 302 305 308 309 310 308 306 304 303 303 305 305 303 302 301 299 301 306 302 304 303 302 302 303 304 306 305 306 307 309 304 305 307 306 306 307
302 299 296 293 292 298 300 300 300 300 300 301 301 305 306 304 304 303 304 304 305 304 303 301 301 301 304 307 305 304 304 304 304 305 305 305 305 307 305 306 305 305 304 304 305
300 297 293 292 294 300 301 301 301 302 300 301 302 303 303 303 303 303 304 306 306 305 306 305 305 306 306 305 305 306 307 307 307 307 306 305 306 307 307 306 307 307 307 306 305
298 294 293 294 300 301 301 300 300 304 306 306 306 306 307 306 305 305 302 304 301 301 302 303 304 305 303 303 304 305 305 306 306 305 308 307 308 308 308 308 309 308 308 308 308
295 293 293 297 298 300 300 299 300 303 302 308 308 307 307 304 302 303 301 300 300 299 300 300 299 298 300 300 301 302 306 306 306 306 312 309 309 309 308 309 308 308 317 318 319
293 293 295 300 300 301 300 300 303 310 305 304 303 300 300 300 300 300 300 301 300 300 299 299 299 298 300 304 306 306 307 307 309 313 313 311 312 310 309 310 309 323 323 320 317
294 293 296 299 300 300 300 302 309 310 304 301 299 299 300 299 300 299 299 298 300 300 300 303 304 303 304 305 306 307 307 310 311 314 313 310 311 310 313 313 312 321 319 317 314
293 295 298 300 298 301 302 304 307 304 300 299 298 299 299 298 299 298 299 299 299 302 305 306 304 304 303 303 303 303 311 311 312 314 315 311 312 315 320 321 321 319 315 311 309
293 297 300 301 299 302 302 303 302 300 298 297 298 298 298 298 298 298 299 299 301 305 306 306 305 303 303 303 309 311 312 310 312 312 315 319 316 319 319 319 316 314 311 308 305
298 300 301 298 299 303 303 307 298 298 298 297 297 298 298 297 298 299 300 300 300 302 304 305 304 303 303 304 307 312 312 311 313 314 316 320 323 325 316 319 315 309 307 304 301
299 300 300 299 302 302 302 304 298 298 298 297 297 298 298 298 298 298 299 299 300 302 303 303 304 303 304 308 311 314 315 314 314 317 316 322 321 310 311 311 310 307 303 301 299
299 301 300 299 301 302 302 299 298 298 298 298 298 299 300 299 300 300 300 300 301 302 301 305 304 305 305 304 305 312 314 314 313 314 318 319 318 309 306 305 304 302 301 299 297
300 298 298 301 299 299 300 299 299 300 300 300 300 300 299 299 301 302 302 303 303 303 302 304 303 305 304 311 311 314 315 315 316 316 320 322 318 307 304 301 300 299 298 296 295
300 297 297 298 296 299 300 299 300 300 300 299 299 299 301 301 301 300 301 301 303 302 304 305 304 305 306 306 307 309 311 313 316 318 316 312 311 305 301 299 297 296 296 295 294
295 298 299 299 298 298 298 299 300 299 300 299 299 301 300 300 300 300 302 300 301 303 305 305 309 308 306 306 306 306 313 314 316 315 314 309 307 302 298 296 295 294 293 293 292
296 297 297 298 296 295 300 300 299 299 299 300 300 300 300 300 300 300 302 301 302 305 307 304 308 309 309 309 308 311 312 308 308 309 309 306 304 298 295 293 292 292 291 291 290
298 297 297 299 298 298 299 300 299 297 299 300 299 301 302 302 301 301 301 301 302 302 302 304 308 312 315 313 314 310 307 304 303 302 302 304 302 296 293 292 290 290 289 289 288

GFSSW_925_thetae_105.txt.gz
Theta_e
305 304 302 304 305 305 304 303 303 301 303 301 298 296 296 297 297 302 305 301 305 306 307 310 306 305 307 308 310 310 314 313 313 315 315 315 317 316 315 314 314 315 315 317 332
306 304 303 303 304 303 300 300 300 300 301 299 296 296 296 298 304 306 307 307 309 308 308 306 306 302 303 309 309 310 312 315 313 314 316 316 315 315 315 315 315 314 315 316 322
306 304 303 302 303 301 298 296 297 296 297 296 297 298 297 301 306 305 310 305 308 308 307 308 308 309 304 309 310 309 314 314 314 313 313 312 312 313 314 315 315 315 315 314 315
306 303 302 301 301 299 297 297 296 298 295 296 298 298 299 306 299 309 309 309 309 307 306 309 308 309 307 305 304 310 310 310 310 311 310 311 311 312 311 312 313 313 313 313 314
305 303 302 300 300 298 297 295 294 296 295 296 299 300 302 306 307 301 307 307 304 303 307 308 310 310 312 310 308 307 306 306 306 307 308 309 309 310 311 311 310 311 311 311 312
305 304 301 300 300 299 297 295 294 294 295 297 300 303 306 303 300 306 307 304 304 306 309 310 312 311 305 305 305 308 307 306 308 307 306 307 308 307 309 309 309 310 309 309 310
305 304 301 300 300 298 296 295 294 294 297 299 300 306 308 303 302 307 305 306 305 305 303 303 304 304 303 302 304 304 305 305 308 308 308 307 310 309 308 307 307 307 307 308 308
305 302 301 300 300 297 295 294 294 296 299 300 302 308 306 301 307 309 306 308 306 305 304 305 304 303 303 302 302 303 303 306 308 306 309 309 311 310 308 306 307 307 308 308 307
304 302 302 301 300 296 294 293 298 300 302 301 305 307 307 307 311 308 309 307 305 305 305 304 305 304 304 303 303 302 302 304 304 306 307 309 308 308 307 308 309 309 308 308 309
303 303 302 301 298 294 293 299 303 303 304 303 306 307 306 307 305 303 305 304 304 304 304 302 302 305 300 304 305 301 304 302 303 304 302 302 302 303 304 304 305 307 308 308 307
303 303 303 301 295 293 297 302 297 300 305 306 307 306 307 305 304 303 304 303 304 303 303 302 299 300 302 304 306 306 305 305 306 305 303 304 303 304 304 304 304 305 305 305 305
301 303 302 298 293 293 298 299 300 299 298 299 301 305 306 306 305 304 303 302 305 304 302 301 301 300 301 303 305 305 305 305 304 304 305 305 306 306 305 304 304 305 305 304 303
303 303 300 294 293 298 300 300 302 302 297 299 301 301 302 301 302 302 303 303 305 305 304 304 305 304 302 303 303 304 305 305 305 304 304 304 305 305 306 305 305 306 304 304 309
303 302 297 292 297 301 301 300 300 303 303 303 304 305 305 304 304 303 301 301 300 300 300 299 301 300 299 299 300 299 301 302 302 304 305 305 306 306 307 307 308 307 313 317 315
302 298 293 295 300 300 300 299 299 303 298 307 306 302 301 302 301 302 300 300 299 299 299 299 298 298 298 298 298 299 300 303 306 306 305 306 307 307 307 307 308 312 318 315 314
298 294 293 297 299 300 300 300 303 306 300 303 300 300 301 300 300 299 299 299 300 300 299 298 299 299 298 301 302 304 304 304 304 306 308 305 307 308 307 308 309 317 314 311 309
295 293 296 299 300 300 299 302 307 310 303 299 299 299 300 299 299 298 299 299 297 299 300 301 302 302 303 304 303 304 306 306 305 307 307 305 307 307 318 319 318 316 311 308 305
293 294 296 299 299 299 302 301 306 303 300 298 298 299 299 298 298 298 299 297 299 302 303 304 302 303 302 302 302 301 304 307 307 309 309 309 313 318 317 314 311 309 306 304 303
293 295 298 300 299 301 300 300 301 299 298 298 298 298 298 297 297 297 298 298 299 301 302 304 304 301 300 301 302 307 302 303 308 308 310 308 309 317 309 309 306 304 303 302 299
296 299 300 300 300 302 300 305 297 298 298 298 298 298 297 297 297 298 298 298 299 298 302 302 302 301 300 302 301 306 305 308 310 313 312 311 315 313 308 307 306 303 302 300 297
300 300 300 298 302 300 301 303 298 298 298 298 297 297 297 299 298 298 299 298 298 300 301 302 303 302 302 302 302 310 312 311 311 312 312 313 314 308 305 304 303 301 299 297 295
299 301 299 300 301 301 302 302 298 298 298 299 298 300 299 299 299 299 300 299 299 301 301 302 301 304 302 301 302 303 306 314 315 314 314 316 310 306 302 301 299 298 297 295 293
298 298 298 300 300 301 301 299 300 300 299 299 300 299 298 299 300 301 301 302 301 301 302 303 302 301 302 309 308 311 311 311 316 316 315 315 310 303 300 297 296 295 294 293 292
297 297 297 298 296 299 299 299 300 299 299 299 299 299 300 300 300 299 301 299 301 301 303 302 301 302 302 303 305 308 308 309 313 317 312 310 305 301 297 295 294 293 292 292 291
297 297 298 299 298 298 298 299 300 299 299 298 299 300 300 300 299 299 299 298 299 301 303 305 306 306 304 304 305 308 310 311 312 314 310 306 302 298 295 293 292 291 290 290 289
299 297 297 297 297 298 299 299 299 299 299 299 299 299 299 300 299 299 299 300 300 301 305 305 303 306 306 306 309 305 303 303 306 307 307 302 298 295 292 291 289 289 288 288 288
297 296 297 297 296 298 298 300 299 297 299 299 299 299 301 301 301 300 300 301 302 302 303 304 304 308 312 309 306 300 302 301 300 299 301 303 297 293 291 289 289 287 287 287 287

GFSSW_925_thetae_108.txt.gz
Theta_e
305 305 305 304 305 305 304 303 302 300 298 297 297 296 297 296 297 301 303 301 303 303 306 309 306 305 307 307 309 307 311 311 311 312 312 314 315 315 314 314 314 314 314 314 323
304 305 306 304 304 303 303 300 299 297 297 295 295 297 297 298 303 305 306 304 307 308 309 306 305 302 301 307 307 310 312 312 311 311 314 315 313 313 315 314 314 314 314 315 319
305 306 306 304 303 302 302 301 298 298 295 295 296 298 297 300 303 301 308 308 308 308 307 308 307 307 303 308 309 308 310 311 313 313 313 312 312 312 313 313 313 314 313 312 313
305 307 306 303 303 302 302 301 300 300 296 295 296 298 298 303 299 307 308 308 309 307 307 308 307 309 308 304 304 311 308 310 309 310 310 310 310 310 310 311 311 310 310 311 311
306 307 306 303 302 301 300 299 298 299 295 295 298 300 300 301 301 301 307 308 306 305 306 306 308 309 310 309 307 306 307 306 305 305 305 305 306 307 308 307 308 308 309 309 310
307 308 306 304 301 300 299 297 296 295 294 296 299 302 305 298 299 302 306 306 304 306 308 309 311 309 304 303 303 305 303 303 303 305 306 306 308 306 308 308 307 306 307 308 308
307 308 305 304 301 300 299 297 294 294 294 297 300 306 307 300 302 306 305 305 304 305 304 304 304 303 302 303 302 303 302 302 304 306 307 306 306 307 306 305 305 305 304 305 306
309 308 305 303 301 300 299 295 294 294 297 299 301 307 304 301 301 304 305 305 306 306 304 304 304 303 303 302 303 302 302 303 306 303 304 307 305 305 304 304 304 304 305 306 305
310 308 305 303 301 300 298 294 296 301 302 302 305 306 303 304 308 308 310 307 306 304 304 304 303 303 303 303 303 301 300 302 303 302 302 302 304 305 304 302 303 303 301 302 305
310 307 304 302 301 300 295 296 303 304 303 305 307 305 302 305 305 303 308 304 303 303 304 301 300 302 300 303 303 300 300 302 304 303 303 302 303 304 304 302 303 303 302 302 303
309 307 304 303 301 298 293 301 296 297 305 302 303 302 305 307 305 302 304 302 303 303 303 301 299 302 303 303 304 302 304 305 305 304 304 303 303 304 304 302 302 303 303 303 303
309 306 303 301 301 294 296 298 299 299 297 298 304 305 305 306 306 304 302 301 303 302 301 301 300 300 299 301 303 302 303 303 303 303 303 302 302 302 303 303 303 304 304 303 303
308 305 303 302 298 293 299 300 302 301 295 296 300 300 299 302 302 300 301 301 304 303 302 303 304 302 301 302 302 302 303 303 303 301 300 300 301 301 302 303 304 305 305 310 315
306 303 302 299 293 300 300 300 300 302 299 300 302 303 302 302 303 301 300 301 300 301 300 299 300 300 299 298 299 297 299 300 299 299 299 303 302 301 302 304 304 305 305 313 312
305 303 301 295 299 300 300 299 300 302 298 304 303 301 301 303 300 299 299 300 300 300 299 300 299 299 299 299 298 298 298 298 299 303 303 302 301 300 302 303 308 314 312 308 306
304 302 299 294 297 300 300 299 302 303 299 302 299 299 300 299 298 298 298 298 299 299 298 299 299 299 298 299 300 301 302 303 302 302 303 301 299 301 304 314 313 312 309 307 304
303 301 295 296 299 300 300 302 304 306 302 299 298 299 298 298 298 298 298 297 296 298 300 301 301 301 301 302 301 301 301 303 302 308 304 301 302 305 312 309 307 306 304 302 300
299 296 294 299 300 300 301 303 305 302 299 298 297 298 297 297 297 298 298 297 301 299 300 302 301 302 300 301 301 300 301 304 305 306 305 303 306 316 309 305 304 303 302 299 297
297 295 296 299 299 301 299 302 297 299 298 298 298 298 298 297 297 297 298 297 298 298 298 300 303 299 299 299 300 302 302 301 302 302 304 305 307 310 304 303 303 302 300 297 295
294 297 299 300 300 301 300 303 297 298 297 297 299 298 297 296 297 298 297 298 298 298 299 302 302 299 299 300 300 302 304 305 307 307 310 308 311 308 304 303 301 299 298 295 294
298 299 300 299 301 298 297 302 297 297 298 298 297 297 297 298 298 298 299 298 298 299 301 301 302 300 301 301 299 305 306 305 305 309 310 308 307 305 302 300 298 297 296 294 293
299 297 299 300 301 299 300 302 298 298 299 299 299 299 299 299 299 299 300 298 299 300 300 300 300 303 301 300 301 301 303 305 306 314 312 311 307 302 299 297 296 294 293 292 292
299 298 298 300 302 301 301 299 300 300 299 299 300 299 298 298 299 300 300 300 300 300 301 302 302 300 301 306 308 308 309 311 309 309 316 307 304 299 297 294 293 292 291 291 290
297 297 298 299 296 300 300 301 300 299 299 298 298 299 299 300 299 299 301 299 300 299 302 301 300 300 300 300 301 304 306 308 309 310 309 305 304 297 295 292 291 290 290 290 289
296 296 299 301 296 299 299 300 300 299 299 297 298 300 299 300 299 299 298 296 297 300 301 300 303 302 303 303 303 306 305 303 312 312 310 304 299 296 293 291 290 289 288 288 288
298 298 297 297 298 299 300 299 299 299 299 298 299 299 298 299 299 298 299 298 298 299 303 306 303 304 303 304 307 303 302 300 300 304 301 299 296 293 291 290 289 287 287 287 287
296 296 297 296 297 298 298 299 299 297 298 298 298 299 300 300 299 298 299 300 301 303 303 303 304 305 308 305 304 303 301 300 298 297 300 302 296 292 290 288 287 286 286 286 286

GFSSW_925_thetae_111.txt.gz
Theta_e
306 306 306 307 306 306 304 304 302 300 299 296 295 295 297 297 297 301 303 301 303 302 307 309 305 306 307 308 311 309 313 313 312 312 313 314 317 317 316 317 316 316 317 317 315
307 305 306 308 306 305 303 303 301 299 300 295 295 296 298 297 301 304 306 306 306 306 307 307 304 303 305 308 309 315 317 314 312 312 314 316 316 316 316 317 317 316 316 314 314
310 306 308 307 306 304 303 302 300 297 295 295 295 297 299 298 301 301 307 309 308 308 307 307 306 304 304 310 310 310 309 313 315 314 315 315 314 314 314 314 314 314 313 314 313
312 308 307 307 306 303 302 300 299 298 295 294 295 298 299 301 301 305 306 305 307 307 306 307 307 309 307 305 306 311 311 312 312 311 310 310 311 311 311 311 312 312 312 312 313
315 309 307 307 306 303 301 299 298 297 295 294 296 299 300 299 300 301 307 309 307 306 305 307 308 309 310 309 308 308 309 307 307 305 306 307 308 310 310 311 310 309 309 310 310
315 312 307 307 306 303 301 299 298 295 294 294 298 300 303 299 299 300 304 308 304 305 307 309 310 309 306 305 306 306 305 304 304 306 306 307 308 307 310 308 307 307 308 308 308
316 314 309 308 306 303 300 299 298 294 293 294 298 304 306 299 301 304 306 305 303 305 305 306 305 304 303 304 303 303 304 304 305 307 307 306 306 308 307 306 306 307 307 307 307
317 314 310 308 306 303 300 300 296 294 296 299 300 305 302 300 301 301 304 305 305 306 304 304 303 304 305 304 306 306 303 305 305 305 304 307 305 308 306 306 306 306 306 306 307
317 314 311 308 306 302 300 299 294 301 302 303 304 304 302 302 304 307 306 305 305 305 304 303 303 304 303 306 307 304 304 303 304 305 305 306 305 306 306 305 306 306 306 306 306
318 315 311 309 305 302 300 295 302 304 304 305 306 304 301 304 305 302 309 306 303 303 304 303 304 306 304 307 304 303 303 303 304 306 306 306 306 306 305 305 305 305 306 306 306
317 312 310 307 304 301 299 299 298 299 305 302 301 300 303 306 305 302 303 302 303 304 306 301 304 306 306 306 306 305 304 305 306 305 305 306 305 304 304 303 304 305 305 306 306
315 311 309 307 303 301 295 300 298 299 300 299 304 304 305 306 306 305 303 303 304 304 303 303 304 304 301 301 303 303 304 304 304 304 303 302 302 302 302 303 303 304 305 306 307
314 311 307 305 302 298 294 299 301 301 297 297 299 300 300 303 304 303 301 301 303 303 303 304 304 303 302 302 303 303 303 303 301 301 300 301 302 303 302 303 304 308 312 312 311
312 308 306 303 301 296 300 300 301 301 299 299 300 302 301 301 301 300 299 302 301 304 303 303 300 301 300 299 300 300 300 300 300 300 300 302 302 302 302 304 313 312 309 307 305
310 307 305 304 297 300 300 300 300 301 302 303 303 301 301 302 301 300 298 300 300 300 301 301 300 301 301 301 299 301 300 301 302 302 303 302 302 302 302 308 309 307 305 303 301
308 306 303 298 300 300 300 299 301 305 300 303 299 300 300 299 298 298 299 299 299 300 299 300 300 301 301 300 300 302 303 303 304 303 302 301 301 302 311 310 307 304 303 300 298
305 304 301 296 298 300 300 302 303 302 301 300 299 299 298 298 298 298 298 298 299 300 300 301 300 301 302 303 301 301 302 304 305 306 303 303 303 305 309 307 304 303 300 299 297
304 302 298 297 299 300 302 304 299 302 301 298 298 298 298 297 297 298 297 298 301 299 300 300 300 302 301 302 301 300 301 302 303 304 304 301 301 309 306 304 302 301 299 297 296
301 297 298 300 300 300 303 302 300 300 299 298 298 299 298 297 297 298 298 298 300 298 299 300 301 301 300 299 299 301 302 301 302 302 303 302 306 306 303 302 301 299 297 296 294
296 296 295 297 300 300 302 300 299 298 297 298 300 298 299 297 298 298 297 298 299 299 298 301 301 300 299 301 300 301 302 306 304 308 308 307 307 312 303 301 299 297 296 294 293
297 297 297 299 300 300 301 300 297 297 298 298 298 297 297 298 298 299 298 298 298 301 301 301 300 299 300 301 300 303 303 303 304 305 311 312 311 303 300 298 296 295 294 293 292
299 300 298 299 302 300 301 302 298 298 299 299 299 298 299 299 299 299 299 299 299 300 300 301 303 303 301 301 303 301 302 305 306 308 309 311 309 299 297 295 294 293 292 291 291
298 298 297 298 301 301 301 300 299 299 300 300 300 300 298 299 299 300 300 300 300 300 301 303 303 301 302 307 306 305 305 307 310 307 307 310 308 297 295 293 292 291 291 290 289
298 299 299 300 298 300 301 300 300 299 299 298 299 299 300 299 299 299 300 300 300 300 302 302 302 301 299 298 299 303 304 305 308 310 308 309 301 296 294 292 290 290 289 289 288
298 299 299 300 299 300 300 301 300 300 299 298 299 300 300 299 300 300 299 299 297 299 301 302 302 302 302 302 302 305 304 303 301 306 310 302 298 295 293 291 289 288 288 288 287
298 299 298 300 299 300 301 301 300 299 299 298 299 299 299 300 299 299 299 299 300 300 303 303 304 302 301 303 304 302 301 302 299 302 300 298 296 292 291 289 288 287 287 287 286
295 296 299 300 299 300 300 300 300 299 298 299 300 300 300 300 299 299 299 300 301 302 305 304 304 304 306 304 303 305 301 300 298 298 301 302 296 292 290 288 287 286 286 285 285

GFSSW_925_thetae_114.txt.gz
Theta_e
310 308 307 306 307 306 304 302 301 298 296 295 295 295 296 298 298 306 307 305 305 302 307 309 308 310 310 312 315 314 314 316 317 317 317 316 317 318 319 319 319 319 319 319 318
312 309 307 307 307 306 304 302 301 299 296 295 295 295 296 298 306 306 307 307 303 303 309 308 309 308 309 310 312 312 314 315 315 315 315 315 316 317 317 318 318 318 318 316 315
314 311 309 308 308 306 304 302 300 299 296 295 295 295 297 298 307 309 306 307 308 308 308 308 308 308 308 310 311 311 313 313 314 314 315 316 316 316 315 315 316 315 314 315 315
318 314 311 308 308 307 304 302 300 299 296 295 295 296 297 306 307 307 306 307 308 312 308 308 309 308 307 308 311 311 311 311 312 313 314 313 312 312 312 313 314 314 314 314 314
319 317 315 309 307 307 305 302 300 299 295 294 294 297 304 304 303 303 306 309 312 308 307 308 308 308 308 308 309 310 309 310 312 311 310 310 311 311 312 313 313 312 312 312 312
320 317 316 313 308 308 305 302 300 299 295 294 295 299 304 304 301 302 305 311 309 308 307 308 309 309 309 309 309 310 311 310 309 309 309 309 309 310 311 311 311 310 310 311 311
321 320 316 314 310 308 306 302 300 299 294 294 296 305 305 304 303 304 304 307 307 307 309 309 309 309 308 308 308 307 307 308 308 308 308 309 310 311 311 310 310 310 310 310 310
322 320 317 315 311 308 305 302 300 295 296 299 300 306 304 302 303 303 304 306 307 306 306 306 306 309 309 309 309 309 309 308 309 308 308 308 308 309 311 310 310 310 310 309 310
322 321 317 315 311 308 304 301 298 298 302 302 306 307 304 303 306 307 305 305 307 307 306 305 307 309 309 310 310 309 307 307 307 308 308 307 307 308 309 309 309 309 309 309 310
322 319 317 314 310 307 305 300 299 304 306 306 307 306 305 304 308 305 310 307 307 307 307 307 308 309 310 310 308 308 307 307 307 307 308 308 308 309 308 308 308 308 308 309 308
320 319 315 312 309 307 303 299 304 306 306 308 305 304 304 309 307 305 306 305 307 308 308 308 308 309 309 309 308 307 307 307 307 308 307 308 308 307 307 307 307 307 308 308 311
318 317 313 311 309 306 300 301 300 301 306 304 304 305 304 307 307 306 305 306 307 307 308 308 308 309 308 307 306 307 307 307 307 307 306 305 305 306 307 306 306 306 311 314 313
318 317 311 310 306 303 297 300 301 301 304 304 302 302 304 305 303 305 305 305 306 306 306 307 307 306 306 306 306 307 307 307 306 304 304 305 305 307 306 306 309 313 312 311 310
317 314 310 308 303 297 296 300 301 299 304 311 301 302 302 304 303 303 303 304 304 303 305 306 306 305 305 305 305 306 305 303 303 304 305 305 305 307 308 307 311 311 310 309 307
316 311 312 309 303 300 300 300 300 302 320 306 304 303 303 303 303 302 301 303 305 305 305 305 304 304 305 305 304 304 303 304 304 304 305 305 306 308 306 306 311 309 308 307 305
313 309 307 303 299 300 300 300 302 308 316 305 304 304 304 302 302 302 302 303 303 304 304 305 303 303 304 303 303 303 303 304 305 305 306 306 305 307 309 311 308 306 304 304 303
312 308 306 303 302 300 300 302 306 312 304 304 304 303 305 303 301 302 303 303 304 304 305 304 304 303 303 302 304 304 304 305 306 309 307 305 305 305 311 308 305 304 302 302 300
307 304 301 302 300 299 301 305 311 309 305 301 302 303 305 302 301 301 301 303 303 302 304 305 304 303 303 303 304 305 304 305 302 304 305 305 305 308 308 306 304 302 301 300 298
301 298 298 300 300 300 303 306 313 309 305 302 302 304 303 301 301 301 301 302 302 302 302 303 301 302 303 302 302 303 303 303 303 304 305 305 305 308 306 305 303 301 300 298 296
300 298 299 300 300 302 303 308 307 301 301 302 303 304 304 302 301 301 302 300 301 301 300 301 301 300 302 302 302 301 303 306 305 308 308 307 307 315 306 303 300 299 297 295 294
299 300 297 300 300 303 305 306 303 300 300 301 302 302 302 301 301 301 300 300 300 301 301 302 301 300 301 301 302 303 303 304 306 307 310 312 315 304 301 298 297 298 296 295 293
300 301 296 300 303 303 306 304 302 300 300 300 301 301 302 301 301 301 301 300 300 302 300 301 303 303 303 303 303 302 303 305 308 310 308 311 312 299 297 296 295 295 295 294 292
300 299 297 299 305 305 303 302 301 300 300 301 301 301 301 301 302 301 301 301 301 301 301 304 304 304 305 308 307 309 305 304 307 309 310 312 311 299 297 295 294 293 293 293 292
301 302 299 299 304 305 304 303 301 300 301 301 301 300 301 302 301 300 300 301 302 302 302 304 303 303 305 302 302 304 306 307 308 310 310 312 306 299 296 294 292 292 292 292 291
303 303 302 304 303 304 303 303 301 301 300 300 300 301 301 301 301 300 300 301 300 301 302 303 303 304 304 303 303 305 306 306 306 305 308 308 303 297 294 293 292 291 291 290 290
303 303 302 304 303 303 303 302 301 301 300 300 301 301 301 300 300 301 301 302 304 302 302 302 303 305 305 306 306 307 303 305 303 301 302 301 298 295 293 292 292 290 289 289 288
300 302 304 302 303 304 304 301 302 303 301 301 301 301 301 301 301 301 302 303 303 304 305 307 305 307 310 305 306 307 303 302 301 300 303 307 298 295 293 291 289 289 289 288 287

GFSSW_925_thetae_120.txt.gz
Theta_e
313 313 312 311 310 310 310 308 305 304 299 298 298 298 297 297 298 310 313 308 307 307 304 309 312 313 313 314 318 318 319 319 320 321 321 320 320 320 320 320 320 321 321 322 321
315 315 314 313 312 311 310 310 305 303 301 299 300 299 298 297 308 313 311 307 306 306 306 311 312 312 313 314 315 316 319 320 320 319 319 318 318 317 316 318 319 320 321 320 319
320 317 316 314 312 311 311 311 309 304 303 302 300 298 299 300 314 316 306 307 306 304 310 312 312 312 312 313 314 315 316 317 317 318 316 316 316 317 316 317 318 318 317 318 317
320 320 318 316 314 314 312 310 310 306 303 303 300 297 300 310 318 314 306 307 307 312 314 312 312 311 311 312 314 314 315 315 316 314 314 314 315 314 314 315 315 315 316 317 317
321 321 320 317 317 315 314 310 309 306 304 303 300 296 307 315 317 308 303 305 308 311 310 310 311 311 312 313 314 313 313 313 313 313 312 312 312 312 311 311 312 313 314 315 315
323 322 320 319 317 316 315 311 310 307 305 303 299 296 308 315 310 308 309 311 311 311 310 309 309 310 310 311 311 312 312 313 312 312 311 312 311 311 311 311 311 313 314 314 314
325 323 320 320 318 316 315 313 311 308 305 302 297 303 308 314 314 310 308 306 308 309 309 310 310 311 312 312 312 311 311 311 311 311 311 312 311 311 312 312 312 313 313 313 314
324 323 321 320 319 317 315 314 311 308 304 299 300 306 311 314 309 307 307 307 307 307 308 309 310 310 310 310 310 310 311 312 313 315 312 310 310 312 313 312 312 313 313 313 312
320 322 323 322 320 317 315 313 311 307 301 302 307 310 317 308 308 308 306 307 307 308 308 308 309 309 309 310 311 314 314 314 315 314 312 311 311 312 312 311 312 312 311 312 312
318 321 322 321 319 317 313 312 310 305 306 310 310 312 314 311 309 310 309 309 307 309 310 310 309 308 309 310 311 314 315 315 315 314 313 312 311 311 312 312 313 312 312 312 312
316 319 320 321 319 315 312 311 306 311 311 317 319 317 317 316 310 310 310 310 307 308 309 310 310 310 311 313 314 314 314 313 314 314 312 312 312 311 312 312 312 312 311 312 312
317 316 319 320 316 314 311 307 310 306 314 316 315 316 315 314 313 313 310 311 311 309 309 310 312 311 313 314 313 312 312 313 312 311 311 311 311 311 311 311 311 311 313 315 314
317 317 319 318 315 309 309 308 307 307 312 317 316 316 316 314 314 313 312 310 310 312 312 313 314 314 313 311 310 311 312 312 310 310 310 310 310 310 311 313 312 313 314 313 312
317 317 317 315 309 308 306 310 308 306 318 312 314 314 315 311 310 310 311 311 310 310 310 311 311 311 311 311 310 310 310 310 309 309 309 309 309 309 310 311 312 314 313 310 309
316 317 316 316 309 307 310 307 306 310 315 312 310 307 308 309 308 308 310 309 309 311 310 310 309 309 309 308 309 309 309 309 308 308 308 308 309 310 311 311 314 312 309 308 307
315 316 316 310 307 309 306 305 307 317 318 313 309 307 308 308 308 306 306 306 307 307 307 308 309 309 308 308 308 308 307 307 307 308 309 308 309 310 314 314 311 308 307 305 304
314 315 315 311 307 304 304 305 317 320 312 313 311 310 309 309 308 307 307 306 307 308 309 309 309 309 309 307 307 307 307 309 310 312 313 311 311 315 312 309 307 306 305 302 301
312 314 312 310 307 304 304 311 319 312 313 310 310 310 310 310 309 308 307 308 308 308 309 309 310 310 309 308 307 307 307 309 309 312 311 309 308 312 310 307 305 304 303 300 298
311 306 306 308 306 303 309 316 316 312 313 313 310 310 309 310 309 309 308 308 309 309 308 309 309 307 306 306 306 306 307 306 308 307 308 307 307 312 308 305 304 303 301 299 297
305 303 302 304 304 305 311 314 314 313 315 314 312 310 311 311 309 308 309 309 309 308 307 307 307 306 307 306 305 305 305 307 306 307 308 308 309 312 306 303 302 301 300 298 296
304 304 301 302 303 306 312 313 314 314 315 311 313 311 311 310 311 310 309 306 306 306 305 304 304 305 306 306 305 305 306 305 305 305 308 311 313 305 302 301 300 299 298 297 295
303 305 300 301 303 303 311 313 312 315 314 310 309 309 310 310 310 311 309 308 305 305 304 305 305 306 306 306 305 304 304 305 309 307 306 308 313 302 300 300 298 297 297 295 294
301 299 300 301 307 307 309 313 314 313 312 307 308 308 309 309 309 309 307 305 304 304 305 304 304 305 303 305 304 303 305 306 307 309 309 311 311 301 300 298 297 295 295 294 292
300 301 298 299 302 308 312 314 313 312 311 308 306 307 308 307 307 306 306 306 304 303 303 305 304 306 305 307 306 309 311 309 309 310 309 310 308 302 299 297 296 294 293 292 291
303 304 302 302 303 305 311 311 313 314 308 307 306 307 306 307 307 306 305 306 304 304 303 303 303 305 304 303 302 305 306 306 310 309 311 311 309 301 298 296 295 293 292 291 290
302 307 304 308 304 305 306 315 313 311 308 307 306 306 306 306 305 306 306 306 305 304 303 303 303 306 305 304 305 306 307 306 309 310 310 307 306 298 296 295 294 292 291 289 289
305 306 308 307 307 306 308 311 312 312 309 306 306 306 306 305 304 306 304 304 304 304 304 305 308 305 306 308 309 310 311 311 311 308 307 307 303 297 296 293 291 291 289 288 287

GFSSW_925_thetae_123.txt.gz
Theta_e
316 315 315 316 316 316 317 315 313 311 308 304 303 303 300 298 306 311 313 309 312 307 306 305 311 312 312 310 310 313 313 314 315 316 316 316 317 315 315 315 318 320 320 319 318
319 318 317 318 318 318 318 317 316 312 308 305 307 305 303 300 311 313 312 307 307 306 304 307 310 310 308 310 310 311 312 314 315 314 313 312 311 313 314 314 315 317 316 315 316
321 321 320 318 318 318 318 317 317 314 310 309 308 307 312 308 313 314 306 307 306 306 311 313 312 310 310 309 308 309 311 312 313 313 313 311 311 311 311 313 315 314 313 314 315
321 321 321 320 318 318 316 315 315 315 310 308 307 304 311 312 317 312 306 306 306 309 314 314 310 310 310 309 308 309 310 311 311 312 310 309 310 310 311 311 310 308 310 314 314
323 322 321 320 319 318 317 315 314 316 311 307 305 301 308 311 314 310 306 305 305 307 312 309 308 308 308 309 307 309 310 309 309 308 309 310 309 309 309 308 308 309 310 311 313
325 324 323 322 320 319 317 316 315 315 312 307 303 300 306 313 311 308 307 310 311 311 311 309 308 308 307 309 309 309 309 308 309 308 308 308 308 309 309 308 308 308 307 311 312
324 325 324 323 322 321 318 315 316 316 313 307 300 303 306 310 314 312 308 308 306 306 308 309 309 310 309 309 310 309 308 308 308 309 308 308 307 307 307 308 308 307 311 311 310
323 324 324 323 321 320 320 315 316 317 314 305 301 305 307 314 314 312 309 309 308 307 306 307 308 308 309 308 308 307 308 308 309 310 311 307 309 309 307 310 311 309 310 310 310
321 322 323 322 322 321 318 316 316 316 314 303 307 308 314 311 309 309 306 307 307 307 308 308 308 308 308 307 307 308 310 311 312 312 310 308 308 308 308 309 308 308 308 307 308
317 317 318 320 321 319 317 316 315 313 310 306 309 311 312 314 310 310 309 308 308 307 308 308 307 306 305 305 306 309 310 311 311 312 310 309 307 307 308 308 307 307 306 305 310
318 317 316 320 320 317 316 313 306 308 306 313 314 313 316 316 311 310 310 309 309 305 307 308 307 306 306 306 308 309 311 310 309 311 310 309 308 307 307 307 306 307 307 310 309
316 317 317 319 319 316 314 310 310 307 310 313 313 314 315 316 316 313 312 310 310 306 305 307 308 308 309 310 311 312 310 309 310 311 310 307 306 306 307 307 307 308 309 308 307
313 317 315 316 317 312 312 314 308 307 308 313 315 316 317 316 316 314 311 310 309 309 309 308 309 311 311 311 311 310 309 309 309 308 306 305 306 306 307 307 312 309 307 306 304
315 317 315 315 312 311 308 316 310 306 312 314 314 315 316 314 313 311 313 311 309 309 309 309 310 311 310 309 309 308 308 309 309 307 306 306 306 306 307 309 310 307 305 303 301
315 317 315 316 310 308 314 315 307 309 314 311 308 308 311 312 307 308 310 310 310 309 309 309 309 308 308 308 308 308 308 307 307 304 304 305 304 306 306 311 308 305 303 301 299
312 315 316 312 310 312 313 307 306 315 317 312 307 307 308 309 308 306 308 305 305 306 308 307 305 305 306 308 307 307 306 306 305 304 305 306 305 307 310 309 306 304 301 299 297
309 314 314 312 309 311 307 308 315 318 312 311 309 308 308 308 308 306 305 304 303 305 306 306 307 306 307 307 307 306 305 306 308 308 308 308 308 315 308 305 304 303 301 298 296
306 312 311 312 311 306 306 312 318 313 312 313 311 309 309 309 307 307 306 305 304 305 306 307 307 308 308 307 306 306 306 308 310 308 306 306 308 311 305 303 303 301 299 297 295
306 309 308 309 305 306 309 314 313 311 312 312 311 310 309 310 310 308 306 306 306 306 306 307 308 306 306 306 305 306 304 305 306 304 306 305 308 307 304 302 302 300 298 295 293
306 305 304 309 304 305 312 314 313 312 312 313 316 311 310 309 309 307 308 308 308 308 306 307 306 307 306 306 305 304 304 304 305 307 307 305 308 313 305 302 301 300 298 295 293
305 306 303 307 304 305 310 313 312 312 312 314 315 313 310 310 309 308 309 306 306 305 304 304 304 304 305 305 305 305 304 305 304 304 305 304 301 305 301 301 300 298 297 294 292
304 306 302 304 303 302 308 310 311 312 312 314 314 309 311 311 310 310 310 310 305 304 303 304 304 304 305 304 304 303 304 305 303 305 305 306 304 301 299 300 298 296 295 293 291
304 300 301 302 307 305 306 310 311 312 313 315 315 309 307 308 309 309 308 306 304 304 304 304 303 303 304 304 306 308 309 309 309 306 307 306 303 301 300 298 296 294 293 292 290
299 300 299 300 301 306 307 309 312 311 313 314 311 307 307 308 308 306 307 305 304 303 305 304 304 303 303 304 304 303 304 307 310 311 306 304 300 302 300 297 295 293 292 290 289
301 301 300 300 302 305 308 310 311 314 311 312 313 306 306 307 306 306 306 305 304 305 302 301 303 300 302 304 303 303 302 303 304 306 306 302 305 300 299 296 294 292 291 289 288
302 303 299 301 302 305 307 311 312 313 313 310 309 306 305 305 305 305 305 304 303 304 303 302 301 298 296 303 304 304 303 304 302 304 303 302 303 298 296 294 292 291 289 288 287
302 303 301 303 303 305 306 307 311 311 311 308 307 305 306 306 305 303 302 303 304 303 303 301 299 297 301 305 309 305 302 303 304 306 307 308 302 297 295 293 291 290 288 286 285

GFSSW_925_thetae_126.txt.gz
Theta_e
320 319 320 320 320 320 320 320 319 319 318 316 316 316 312 309 313 312 312 309 311 308 306 304 309 311 311 310 309 310 311 312 314 315 315 312 312 312 313 313 315 316 315 317 316
321 321 321 321 320 320 320 320 320 320 318 317 317 317 316 309 312 314 311 307 306 306 305 307 309 309 307 310 309 309 310 313 313 314 312 311 309 310 312 311 313 311 312 312 314
322 322 321 321 321 321 321 320 320 319 319 318 318 317 317 312 314 315 306 306 306 308 311 314 314 310 309 308 308 308 308 310 312 311 311 310 308 310 310 311 312 310 309 309 314
323 322 321 321 321 321 321 320 320 319 317 318 319 317 316 314 320 313 306 305 305 306 306 311 307 309 309 308 308 308 308 309 310 310 308 308 309 308 310 310 310 308 308 309 310
324 323 322 322 321 321 320 320 319 319 317 317 315 315 311 310 314 311 308 309 308 307 311 310 307 306 307 306 306 307 308 308 307 307 306 308 308 309 308 307 307 307 308 307 310
325 324 323 323 322 321 321 322 322 321 318 315 311 305 306 315 312 309 307 308 308 310 310 309 307 306 306 308 309 308 307 306 307 307 307 308 307 307 308 308 307 306 307 307 309
323 324 324 324 324 323 322 321 319 320 318 312 305 302 305 314 315 311 310 308 308 307 305 306 307 308 308 308 308 307 307 307 308 308 307 308 308 308 307 306 307 305 306 309 311
322 321 323 324 323 323 322 320 319 318 317 313 305 304 308 316 315 314 314 310 308 308 307 307 307 307 308 307 307 307 307 308 309 309 309 307 309 307 306 307 309 307 308 309 310
313 316 322 322 323 322 322 319 318 317 316 312 307 308 313 314 310 310 310 307 308 307 306 307 307 307 306 306 304 306 307 309 311 311 310 308 307 307 306 308 308 307 306 309 307
313 314 319 320 321 321 319 317 316 315 311 306 308 310 311 316 312 308 309 308 305 306 306 307 304 305 303 303 306 306 308 308 309 309 309 309 308 306 306 306 306 304 306 307 305
311 317 317 318 318 320 317 315 309 309 304 314 314 314 314 314 310 309 310 307 308 306 306 307 305 305 305 304 305 306 306 307 307 308 309 308 306 307 307 305 307 308 306 305 303
313 317 317 316 318 319 315 311 312 307 312 310 311 312 314 315 316 314 311 308 308 306 304 304 306 307 307 307 307 308 308 309 307 309 308 307 305 305 306 308 306 304 303 301 300
313 316 316 315 317 315 314 315 307 307 310 311 312 314 315 314 316 316 312 309 309 309 308 304 306 308 308 308 309 309 308 308 308 307 306 305 305 306 307 307 305 302 300 299 298
314 314 316 315 314 313 311 317 309 307 309 311 314 314 315 315 317 315 314 310 307 309 307 307 308 309 309 310 308 307 307 307 306 304 304 304 304 304 307 306 304 301 298 297 295
314 315 316 314 312 310 313 315 310 308 304 307 311 311 313 315 309 307 311 309 312 308 308 308 308 307 307 307 307 307 306 306 305 304 304 303 303 303 307 307 304 300 298 296 294
309 313 315 313 311 314 314 313 307 311 312 312 306 307 310 309 307 305 307 305 305 307 306 307 306 305 305 306 306 306 305 304 303 303 305 305 303 303 308 306 303 300 298 296 294
305 313 313 312 311 313 312 307 315 315 311 311 307 307 308 308 308 304 304 304 303 304 304 305 305 304 305 304 305 305 303 305 306 307 307 305 305 309 305 303 301 300 297 295 293
305 310 311 312 313 312 307 312 316 313 313 311 308 307 307 307 307 306 303 303 302 303 303 305 306 306 306 305 305 304 304 306 310 310 306 305 305 308 303 302 301 299 296 294 292
305 307 308 310 309 307 308 313 311 311 311 311 310 308 308 308 307 306 304 303 304 302 304 306 306 305 304 305 305 305 304 304 305 304 305 304 308 305 303 302 301 299 296 293 291
305 307 307 310 308 306 311 313 313 311 311 312 314 311 309 308 308 306 305 306 305 305 304 306 306 305 305 304 304 304 303 304 305 308 307 304 305 307 304 303 300 298 295 292 290
304 306 304 308 305 306 311 312 312 310 311 313 314 315 311 308 307 306 308 307 306 304 303 303 303 304 303 303 303 303 302 303 304 305 305 304 299 297 298 299 298 296 294 292 289
303 304 303 304 305 301 307 309 311 312 311 311 313 313 309 310 309 308 308 308 304 302 302 303 302 303 303 303 303 303 303 304 304 305 303 304 303 301 299 298 296 295 294 292 289
303 301 302 303 308 305 305 308 309 312 311 312 315 313 309 307 308 309 306 304 303 302 303 302 302 302 303 302 305 306 307 308 307 303 304 301 300 300 299 296 295 294 292 290 289
299 302 300 301 301 305 305 308 309 309 310 311 313 312 309 306 308 307 304 305 303 303 306 303 302 302 304 303 303 302 303 302 307 304 306 302 297 302 301 297 295 293 291 289 288
300 301 300 303 302 305 304 306 308 310 310 311 313 312 308 307 308 306 305 303 303 304 301 300 302 298 301 303 303 302 302 302 301 303 307 300 302 298 299 296 294 291 290 289 287
299 300 298 298 302 304 306 307 307 308 309 311 312 313 310 307 306 306 303 302 302 302 302 300 300 294 293 302 303 302 302 301 302 302 300 299 303 297 295 292 292 291 289 288 286
299 301 299 300 302 304 305 304 307 308 309 308 309 309 306 304 303 302 303 302 303 302 301 299 297 294 298 303 305 306 303 301 299 301 302 303 302 295 295 294 291 289 288 286 284

GFSSW_925_thetae_129.txt.gz
Theta_e
320 320 320 320 321 321 320 320 321 321 321 320 319 320 319 318 316 312 311 308 307 306 305 309 310 311 309 308 308 307 309 310 314 314 314 312 311 311 311 312 313 314 313 313 316
322 322 322 321 321 321 321 321 321 322 321 321 321 321 319 317 315 314 308 306 306 307 309 312 310 311 306 309 307 307 308 311 311 314 313 311 310 310 311 311 312 310 311 310 315
322 322 322 322 321 321 322 321 322 321 321 321 322 322 320 315 314 314 306 306 306 307 307 312 312 310 308 307 307 307 307 309 310 310 310 310 308 308 309 311 311 310 309 308 312
323 323 322 322 322 322 321 322 322 321 321 321 321 320 319 314 320 314 308 307 307 305 307 309 306 307 307 307 306 306 307 307 308 307 307 307 308 308 308 309 310 308 307 307 307
325 324 323 322 322 322 321 321 320 318 318 319 320 318 315 313 315 312 308 309 309 310 310 308 306 305 305 304 305 306 307 306 305 305 305 306 307 307 307 306 306 305 306 306 309
324 325 324 323 323 322 322 321 320 319 317 317 318 316 309 319 316 309 309 308 308 309 307 306 307 306 306 307 307 307 306 305 305 306 305 307 307 307 308 307 307 306 305 310 309
322 323 324 323 324 324 323 322 320 319 317 316 314 309 306 317 316 311 311 310 308 307 305 306 305 306 307 307 307 307 306 305 306 307 307 306 308 308 306 306 306 307 309 307 305
318 322 322 322 323 324 323 322 319 318 317 315 314 308 310 320 315 315 313 313 311 308 307 307 306 306 307 306 305 306 306 306 307 308 308 308 309 307 304 305 306 307 306 304 302
312 317 321 322 322 323 322 320 319 318 317 316 309 308 314 316 314 313 313 312 307 306 306 306 307 305 305 304 303 303 305 307 308 308 309 309 308 308 304 305 303 307 305 303 300
311 311 315 316 321 322 321 319 317 316 311 308 307 312 312 318 314 308 309 309 306 305 305 306 302 303 301 302 306 306 306 306 307 307 307 308 308 305 305 306 306 304 302 300 299
312 311 314 314 317 320 319 317 314 311 306 316 314 315 314 314 309 308 308 306 306 305 304 305 304 305 303 303 304 305 305 304 303 305 307 307 306 306 307 304 303 301 300 299 297
313 312 314 315 317 318 318 313 313 308 313 309 311 311 313 314 315 313 309 306 306 306 303 302 304 305 305 305 306 306 306 306 306 306 306 306 305 305 305 303 301 300 298 297 296
313 312 313 315 315 316 315 316 308 307 312 312 311 313 314 313 316 316 308 307 307 307 305 303 304 305 306 306 307 307 307 307 306 305 304 304 303 306 305 303 301 298 297 295 294
313 312 314 315 313 313 314 316 308 308 311 311 311 312 314 314 316 315 314 310 307 309 308 307 307 307 307 307 307 308 306 306 305 304 304 303 303 303 306 303 301 298 295 294 293
312 313 314 314 313 312 313 315 311 307 309 306 312 311 314 314 309 310 312 310 309 307 307 308 307 307 307 307 306 305 305 305 304 303 303 302 302 304 305 305 301 298 296 294 292
308 313 314 314 311 312 312 315 308 311 310 308 307 311 317 315 305 305 306 307 309 309 308 306 306 305 305 305 305 305 304 303 301 302 304 304 302 301 307 305 301 298 296 293 292
306 312 312 313 312 312 313 309 314 313 309 311 307 308 312 308 306 304 305 303 303 306 305 304 304 304 304 304 304 303 303 305 305 306 306 304 304 302 303 302 301 298 295 292 291
305 311 311 312 311 312 309 312 317 312 311 311 307 306 310 307 307 304 303 305 302 303 302 304 306 305 304 304 304 302 303 305 308 309 307 304 305 305 302 301 299 297 294 292 290
304 308 309 312 311 308 309 315 312 311 311 310 307 307 306 307 307 305 302 302 302 301 304 304 305 305 304 304 304 304 304 303 304 304 304 303 306 304 302 301 300 297 294 291 289
305 306 307 310 308 307 312 312 312 310 310 310 311 308 307 307 307 305 304 304 304 302 303 305 306 305 304 304 302 304 303 304 305 308 309 305 303 305 303 303 301 297 293 291 288
304 305 304 308 306 307 311 312 311 310 310 312 312 314 311 308 307 305 306 306 305 304 302 302 304 304 303 303 303 302 302 303 304 304 306 306 301 296 300 300 298 295 292 290 287
303 304 303 306 306 303 308 309 310 311 310 311 311 313 312 308 309 306 307 307 304 302 303 301 302 302 303 303 302 302 303 303 304 304 303 303 304 301 296 296 295 294 293 290 287
303 301 302 304 308 306 305 308 309 310 310 310 312 311 311 309 308 308 306 303 303 301 302 302 301 302 304 302 303 303 305 304 305 303 305 301 302 299 297 295 294 292 291 288 287
300 302 301 302 299 304 305 307 309 308 309 310 313 312 311 306 306 306 303 304 302 304 306 302 301 303 307 304 302 303 304 305 302 302 305 303 301 301 298 295 293 292 290 287 285
300 301 299 302 304 305 303 305 307 308 308 309 310 311 309 309 307 306 304 302 302 303 300 300 302 298 301 302 302 302 302 302 301 302 302 302 302 298 299 296 293 291 289 288 286
299 300 297 297 301 303 306 305 305 307 308 309 310 311 309 307 305 306 304 303 303 302 301 298 301 293 292 300 301 301 301 301 299 300 300 297 301 297 295 292 291 290 289 288 285
299 299 297 299 299 304 303 304 305 305 306 306 307 308 310 310 308 304 307 307 305 302 301 298 295 294 298 302 302 302 303 302 300 301 301 302 300 295 294 294 292 290 288 287 285

GFSSW_925_thetae_132.txt.gz
Theta_e
319 320 321 321 321 321 321 321 322 322 322 322 322 322 322 321 320 313 309 307 306 306 310 311 311 311 309 307 307 306 308 310 313 311 314 311 311 311 310 311 312 313 312 311 311
321 321 321 321 321 322 322 322 322 322 322 322 322 322 321 320 317 314 307 306 306 307 308 311 310 309 305 307 305 306 308 311 311 312 312 310 310 310 310 310 311 310 310 311 312
323 323 322 322 322 322 322 322 321 321 321 321 322 322 321 318 314 314 308 306 307 306 305 310 309 308 307 305 305 306 307 308 309 308 307 309 307 307 309 310 309 309 309 307 310
324 323 323 322 322 322 322 321 321 320 321 321 321 321 321 314 320 315 308 308 309 308 310 308 304 304 305 306 304 305 305 306 305 306 304 306 305 307 307 308 309 307 304 311 311
324 324 324 324 323 322 322 321 321 320 320 320 321 320 318 316 317 314 307 308 309 310 307 306 305 305 306 305 305 305 306 305 305 303 304 304 305 306 307 305 304 310 310 308 306
324 324 323 324 324 323 323 322 321 321 320 319 319 318 311 322 317 310 308 309 309 308 305 305 305 305 306 307 307 306 306 304 304 305 305 306 305 305 306 304 307 306 304 303 301
322 323 323 322 323 323 323 322 322 320 320 319 317 312 307 321 319 312 311 310 308 308 305 306 305 305 306 306 306 306 305 304 306 307 307 304 308 308 304 306 306 304 302 300 298
320 318 320 322 323 323 323 322 321 319 319 318 316 309 315 321 318 317 314 314 313 309 307 307 305 305 306 306 303 305 304 306 306 308 307 307 308 307 301 307 305 303 301 299 297
312 313 312 320 322 322 322 321 320 319 318 317 312 308 317 318 315 316 317 313 307 306 306 306 306 304 303 303 303 302 305 306 307 306 308 306 308 304 303 307 305 301 299 298 296
309 310 311 315 319 321 321 320 319 317 312 308 308 313 315 320 314 308 310 310 305 305 304 304 301 301 300 302 304 306 305 305 306 306 303 306 305 304 304 303 301 299 297 296 296
311 311 311 313 315 317 319 318 315 312 308 317 315 317 315 314 313 307 308 305 306 304 305 304 304 304 302 302 304 304 304 304 302 303 305 305 304 306 303 301 299 298 297 296 295
311 313 311 312 314 316 319 315 316 308 311 310 312 311 313 314 315 315 307 308 306 306 302 301 304 304 304 304 304 305 306 305 304 305 304 304 304 304 302 301 299 297 295 294 293
312 313 312 312 315 316 316 316 310 308 312 312 311 312 314 314 316 318 306 306 306 306 303 303 305 304 305 305 306 306 306 306 306 304 303 303 302 306 303 300 299 297 295 293 292
311 312 311 312 315 313 314 316 312 308 310 310 311 312 313 313 315 315 312 309 307 310 305 305 305 305 306 306 305 307 305 306 306 303 304 302 304 301 304 302 300 297 294 293 291
308 312 313 312 312 312 313 316 311 306 310 306 310 311 313 313 308 311 312 311 309 307 307 309 307 306 307 306 306 307 304 304 304 303 302 302 301 302 303 304 301 298 296 292 291
306 312 312 313 312 312 313 313 309 308 310 306 311 314 316 315 306 306 309 310 308 308 307 307 305 305 306 305 305 304 304 302 300 300 303 302 301 301 305 305 301 298 295 293 290
305 310 312 311 312 311 313 309 314 313 308 308 306 314 315 313 306 304 305 304 306 311 310 307 306 305 305 306 303 302 302 304 305 304 305 303 301 302 303 302 302 299 294 292 289
305 308 312 312 312 312 311 312 313 310 309 309 306 307 312 307 306 303 304 304 302 303 302 306 306 304 303 304 304 302 302 304 307 307 305 303 304 302 302 300 298 296 293 291 289
304 306 309 311 311 310 311 314 309 310 310 309 306 306 307 306 307 304 304 304 303 301 306 303 304 304 303 303 304 303 303 302 304 304 304 303 302 302 301 300 297 295 294 291 288
305 306 307 310 310 308 312 312 311 309 310 309 308 306 306 306 306 305 303 303 304 302 303 304 306 304 303 303 301 303 302 303 303 308 308 306 304 305 302 302 300 296 293 290 287
304 305 305 309 307 308 312 312 310 309 310 311 311 313 308 306 305 304 306 305 304 303 302 303 304 304 303 303 303 302 302 302 303 303 306 306 304 295 297 300 301 295 292 288 287
303 304 303 307 307 304 308 309 309 310 309 310 310 312 312 308 307 306 306 306 303 302 303 302 304 303 303 301 302 302 301 302 302 304 303 304 305 299 296 294 296 293 291 288 285
304 301 302 304 308 307 306 308 309 310 310 310 311 310 310 308 311 307 306 303 302 302 302 302 303 303 304 302 302 302 302 302 304 304 303 301 303 298 296 295 293 292 290 288 286
300 303 301 302 302 305 306 308 309 307 309 309 311 311 308 307 306 306 303 303 302 305 305 303 302 303 306 305 302 303 304 304 304 302 304 304 303 300 298 296 293 291 289 286 284
300 301 299 303 305 304 304 305 308 309 308 308 309 311 310 310 306 305 303 302 301 303 300 302 303 298 301 302 302 302 302 302 302 303 302 302 301 302 298 297 293 290 288 287 285
299 301 295 298 301 302 305 305 305 306 307 308 309 309 307 309 307 306 304 302 301 301 300 299 302 295 295 300 300 301 300 300 301 301 300 299 300 298 297 293 291 290 289 287 285
297 298 298 299 300 303 303 304 304 304 305 306 306 308 308 308 307 305 303 303 305 303 302 302 301 301 303 301 302 301 298 299 298 299 299 300 300 295 294 294 291 289 289 287 285

GFSSW_925_thetae_135.txt.gz
Theta_e
319 320 321 321 321 321 321 321 322 322 322 323 323 323 323 322 321 315 308 307 306 307 308 311 310 309 309 310 309 309 316 316 315 315 315 312 312 313 311 312 313 313 315 310 312
321 322 322 321 321 321 321 321 322 322 322 322 323 323 323 322 318 314 307 306 307 307 306 310 310 309 309 309 309 313 315 315 313 313 310 310 310 310 311 311 313 312 312 313 315
322 322 322 322 322 322 321 321 321 322 322 322 322 323 323 321 315 314 308 308 309 306 307 308 307 307 308 307 307 308 314 310 309 309 307 310 309 308 310 311 311 310 313 313 312
323 323 323 323 323 322 322 321 321 321 322 322 320 321 322 317 323 314 308 309 309 310 308 306 306 307 307 308 305 308 306 307 308 307 307 308 308 309 309 310 311 312 311 309 308
323 323 323 324 324 323 322 322 322 322 321 320 320 320 320 320 322 316 308 309 309 309 305 307 307 307 308 307 307 306 307 307 307 306 306 306 308 308 308 309 309 307 306 305 304
322 322 322 321 322 323 323 323 322 322 321 319 319 318 315 324 319 314 308 310 310 308 305 305 306 306 307 308 308 307 307 307 306 308 306 307 308 307 307 308 306 305 303 301 300
323 322 322 323 322 323 322 322 323 322 321 320 319 318 310 321 319 315 311 311 309 308 306 305 305 307 307 308 307 307 308 308 308 308 309 307 310 305 308 307 306 304 302 300 298
319 320 321 321 321 322 323 322 322 321 320 319 318 314 318 320 320 318 317 313 313 311 307 306 305 306 307 306 306 307 307 310 309 309 307 308 311 307 307 307 305 303 301 299 298
315 314 317 317 317 321 321 321 321 320 318 317 315 310 321 318 316 315 317 316 308 306 306 305 305 304 305 307 308 306 309 308 309 306 308 309 310 308 307 307 305 303 301 300 298
311 311 312 311 312 319 320 320 319 318 314 311 308 315 318 320 314 308 311 310 305 305 305 305 304 305 304 307 309 308 307 306 308 308 307 309 310 307 305 305 303 302 300 299 298
311 311 311 311 314 315 318 317 315 314 309 319 317 319 316 314 313 306 310 305 306 307 308 305 306 307 306 305 305 306 306 307 306 307 307 310 308 308 305 303 303 301 300 299 298
307 309 311 311 314 315 315 317 314 308 317 311 314 313 314 314 319 316 306 308 307 310 304 306 309 307 305 304 306 306 307 308 307 306 307 308 308 307 306 303 302 300 299 298 297
310 311 312 312 313 314 313 316 311 310 313 313 312 314 315 315 318 319 307 307 308 308 306 312 310 304 306 306 307 307 307 307 309 307 304 305 307 307 305 302 300 299 297 296 295
310 311 312 313 312 313 314 315 313 310 314 310 312 313 313 314 316 315 312 309 308 315 306 307 306 305 306 307 307 309 307 308 308 306 308 304 308 306 307 306 303 301 299 296 295
307 311 311 312 312 312 312 316 310 307 303 306 310 311 313 315 310 312 312 312 317 311 309 310 307 307 308 309 307 309 307 306 305 305 305 305 306 307 306 307 307 303 300 296 294
305 309 311 312 312 312 312 315 308 310 304 306 312 314 316 314 309 309 312 310 310 309 306 309 305 306 308 306 306 305 305 304 303 305 308 308 307 307 308 307 306 303 299 296 294
305 306 311 311 312 311 313 311 313 313 307 306 310 316 315 316 312 307 313 309 314 316 315 310 310 306 305 308 304 304 307 310 310 308 309 304 305 307 305 306 306 305 300 296 292
304 305 310 311 311 311 312 312 313 309 309 308 305 314 315 311 307 304 310 307 303 305 309 311 309 306 304 310 311 305 307 309 309 308 308 304 307 307 304 303 301 300 298 295 292
304 305 309 311 310 311 312 314 312 310 309 309 305 309 311 307 308 304 308 308 306 304 310 306 306 304 303 303 305 304 306 304 307 305 306 307 305 305 303 303 301 300 297 296 292
304 306 307 310 311 309 313 313 311 309 309 309 308 307 309 307 308 306 304 305 305 304 306 306 307 304 303 303 302 305 304 307 307 309 308 307 307 310 308 306 303 302 299 295 291
304 305 306 309 308 308 311 310 310 309 309 310 310 310 307 307 308 307 307 305 304 302 303 305 307 305 303 305 306 304 305 305 306 306 308 309 314 308 307 305 305 303 299 295 291
303 304 304 307 308 305 310 311 309 310 309 310 310 312 312 308 307 307 308 306 303 303 304 305 308 306 305 302 302 302 305 306 309 307 305 306 310 303 303 302 302 301 297 293 290
303 301 303 306 308 307 308 309 309 310 310 310 311 311 310 308 310 308 307 303 303 303 304 305 306 308 306 304 303 303 303 304 306 305 307 308 311 301 300 300 300 299 295 292 289
300 303 303 302 304 307 309 309 309 308 309 309 311 310 310 310 308 308 305 303 303 306 305 306 305 310 310 308 305 305 305 304 305 307 305 308 308 306 305 302 299 296 294 292 289
300 302 300 303 305 306 306 306 309 310 308 309 310 312 310 310 307 307 304 302 301 303 302 306 306 302 302 303 303 303 304 305 306 305 307 307 307 306 304 303 301 297 292 290 289
299 301 297 300 303 304 306 306 307 308 308 309 310 311 309 311 309 308 305 303 304 302 301 301 305 299 299 301 302 303 303 303 304 305 305 304 304 303 301 298 297 295 292 291 289
298 297 299 300 303 303 304 306 305 306 305 307 308 309 310 309 308 308 306 305 304 304 303 304 305 308 310 303 303 306 304 303 304 302 302 302 303 301 300 298 297 294 292 291 288

GFSSW_925_thetae_138.txt.gz
Theta_e
317 319 320 321 321 321 321 321 322 322 322 323 323 324 324 324 323 318 313 309 309 309 309 311 313 312 314 316 316 317 324 325 322 322 320 316 316 316 315 316 316 317 317 317 319
320 321 321 321 321 321 321 321 322 322 322 322 323 323 322 323 320 319 309 307 309 307 309 313 314 313 315 315 316 320 324 322 319 319 317 315 315 314 316 315 316 318 318 317 318
320 321 322 322 322 322 322 322 322 322 322 322 322 322 322 323 323 317 309 309 310 310 310 311 311 313 315 314 314 316 322 317 315 314 313 315 315 313 314 316 314 316 317 316 315
323 323 323 323 323 322 322 322 322 322 322 321 321 320 321 320 329 316 309 309 309 310 310 310 312 314 315 315 312 315 312 312 313 312 312 313 314 314 314 315 315 315 314 313 312
322 322 323 323 323 323 323 323 322 322 322 321 319 320 320 326 326 317 309 310 310 310 309 311 313 313 315 313 312 313 312 312 312 312 312 312 313 313 313 313 312 311 311 311 310
323 323 322 322 322 321 322 322 322 322 322 321 320 319 321 327 319 315 309 311 312 311 310 310 311 311 312 312 313 312 312 313 313 313 312 312 312 312 312 311 311 310 309 308 306
323 322 323 321 321 322 322 322 322 322 322 321 319 316 320 324 318 315 312 312 310 311 311 308 308 311 312 313 311 311 313 313 313 313 313 312 312 313 312 311 311 310 308 307 305
321 322 322 322 321 321 321 321 322 322 321 320 318 316 323 320 318 319 319 318 314 311 309 308 308 310 311 311 311 312 312 314 313 313 312 313 316 312 312 312 311 309 308 307 304
315 317 317 318 317 316 320 321 321 320 319 318 316 318 323 319 319 316 318 320 315 309 307 307 309 310 310 312 313 313 313 314 313 312 312 313 315 312 312 311 311 310 309 307 305
313 313 313 316 315 315 316 319 319 318 315 311 312 320 321 322 317 310 313 315 309 308 309 310 311 312 311 312 314 313 312 312 313 312 312 313 314 313 312 312 311 310 308 307 305
312 312 311 312 313 313 315 317 316 316 314 325 323 322 320 318 315 309 314 309 310 313 316 311 315 316 312 311 311 311 311 312 312 312 311 313 314 314 311 311 310 309 308 307 305
308 309 309 310 310 312 316 317 318 310 321 318 318 320 319 318 323 317 310 313 313 317 313 314 316 314 310 310 309 310 311 312 312 311 311 313 313 313 311 312 311 309 308 307 305
306 309 309 312 312 315 316 317 314 312 317 319 319 320 320 318 322 323 310 313 314 316 315 317 317 310 310 310 310 311 312 312 312 313 313 311 313 314 311 310 308 307 306 304 304
307 311 312 313 313 313 314 314 313 309 319 317 316 317 317 318 319 319 319 312 313 316 316 317 316 315 313 311 311 313 312 311 312 313 314 310 313 312 312 311 309 309 307 306 303
306 311 312 311 313 313 312 315 314 311 312 309 313 313 315 316 314 315 317 317 319 317 316 315 312 311 312 312 312 314 311 311 311 311 312 312 310 313 310 310 311 311 309 306 303
304 308 311 312 313 313 314 313 310 312 305 309 313 315 317 316 311 315 316 315 316 319 316 315 311 310 311 310 311 309 310 310 311 312 313 312 311 311 312 310 310 311 309 306 302
304 305 310 311 312 312 314 313 315 311 307 308 313 315 315 317 314 314 318 317 317 318 318 316 314 311 309 310 309 310 312 315 314 313 312 309 309 311 310 310 310 310 309 305 301
304 305 305 310 311 312 313 315 313 306 308 310 309 315 315 316 312 313 317 317 314 315 316 317 315 313 312 312 313 312 313 314 311 310 311 309 310 310 310 309 308 307 308 304 301
304 304 305 308 311 311 313 316 308 307 308 310 310 313 315 314 312 311 316 315 314 313 313 312 310 309 308 309 313 309 311 310 312 311 310 309 309 310 309 309 308 307 305 305 301
303 305 306 307 310 311 314 313 310 309 310 309 309 310 312 313 312 310 313 312 313 312 311 311 311 307 305 306 307 308 309 310 310 310 309 309 309 312 313 310 310 309 308 306 301
303 306 307 307 308 310 312 310 309 310 311 311 309 308 310 311 312 312 311 308 307 308 308 309 311 308 306 308 309 308 309 308 310 310 310 311 316 318 317 310 309 309 308 306 302
304 306 306 306 309 308 311 310 309 310 311 312 312 311 310 310 311 312 311 310 305 306 307 308 310 310 309 306 306 308 309 310 312 310 310 310 317 310 309 310 308 307 307 305 300
305 304 305 307 309 309 310 309 310 309 310 311 312 313 313 310 311 310 309 305 305 306 308 307 309 311 309 308 307 307 308 308 309 310 311 316 318 310 308 307 307 306 306 302 298
302 304 304 305 304 308 309 310 311 309 309 309 310 311 312 313 312 310 308 305 306 307 305 308 309 316 312 310 310 309 308 308 309 312 311 315 318 314 310 309 307 306 305 302 297
304 305 305 304 306 307 310 308 308 310 310 310 311 311 311 313 312 311 307 305 304 305 305 308 311 315 310 309 309 310 309 308 311 309 311 314 312 311 309 308 306 305 304 300 296
303 304 303 305 305 307 307 309 309 309 310 311 311 311 311 311 311 310 308 307 309 304 306 305 310 307 309 306 306 309 309 308 310 309 311 311 310 308 306 304 304 303 302 299 296
299 302 303 304 305 307 306 308 308 309 309 309 309 311 311 311 310 310 310 309 308 308 307 308 311 310 312 308 308 312 314 311 310 309 308 308 308 306 305 305 305 303 300 298 296